GFSCGP_500_spd_000.txt.gz
Wind_Speed
52 55 51 44 47 49 52 52 53 50 46 52 51 52 48 42 38 32 33 36 34 30 29 31 38 41 43 46 43 40 39 39 40 40 38 38 37 36 40 43 41 42 42 41
51 55 47 51 51 51 52 53 54 53 52 54 54 52 50 46 39 36 30 26 31 34 33 33 38 39 39 42 43 42 41 42 42 43 42 40 38 39 40 41 41 41 41 39
53 52 46 48 50 48 48 51 50 56 54 54 56 53 51 44 37 31 34 37 34 34 36 31 35 40 42 42 44 43 44 45 45 46 45 44 42 42 40 37 40 42 43 43
47 42 42 42 46 46 52 45 50 51 54 56 53 53 49 46 43 38 38 39 34 31 31 30 33 36 39 40 40 41 40 42 45 46 46 45 46 45 44 43 45 43 43 43
50 48 47 50 44 48 54 54 50 52 55 58 60 60 53 54 55 55 48 44 45 46 50 41 36 42 43 44 45 41 42 41 43 46 47 48 48 47 48 49 49 48 47 46
55 54 56 55 55 52 52 55 59 57 57 61 61 60 54 56 60 62 58 61 62 60 60 62 58 45 45 48 45 45 46 46 44 41 44 47 49 48 49 50 51 51 48 45
58 58 58 57 57 55 51 52 58 63 65 63 61 65 57 62 61 64 63 65 66 66 64 63 62 57 50 50 51 52 50 49 45 47 46 45 46 48 50 49 46 49 50 46
68 65 58 57 56 59 58 59 62 63 64 65 63 70 65 60 60 61 66 67 68 66 62 59 58 58 56 50 50 55 57 55 50 47 48 49 47 46 47 41 41 43 44 45
70 77 73 71 67 64 64 65 57 61 61 65 66 69 69 63 61 59 64 65 62 60 63 69 60 56 43 39 38 41 44 48 54 53 47 49 52 43 41 45 47 49 50 47
75 79 77 77 76 75 70 68 69 68 69 72 75 73 72 62 59 62 62 62 62 60 60 61 60 56 58 58 46 49 49 47 49 53 54 52 49 46 46 49 54 54 56 57
71 74 78 81 81 75 76 75 73 69 65 70 74 73 65 64 58 63 64 64 65 59 54 52 52 54 60 57 54 51 51 47 53 56 61 63 61 56 55 57 60 65 66 67
71 73 75 73 73 72 72 72 69 70 74 72 70 68 57 58 60 62 66 67 66 68 63 61 64 59 59 62 57 57 51 56 59 61 61 67 67 58 63 66 66 68 70 69
69 65 72 73 74 75 75 70 70 69 63 63 64 64 55 58 65 70 70 72 72 73 72 74 75 73 64 63 65 68 69 70 66 65 69 67 66 66 68 70 72 73 72 69
67 67 70 72 72 69 69 67 66 66 69 69 71 74 71 76 74 65 65 67 70 73 74 74 81 80 71 68 65 70 66 70 65 62 64 60 63 73 74 78 77 75 77 74
64 69 67 67 68 68 66 67 65 68 70 76 76 81 75 73 65 66 66 68 66 65 69 74 76 80 85 84 79 71 73 81 77 77 81 80 72 71 72 68 72 67 66 76
65 67 68 68 66 67 71 69 68 69 71 73 73 76 75 76 79 73 74 74 65 69 78 74 76 85 90 88 92 88 86 84 86 93 94 90 82 76 77 78 80 81 78 74
70 69 71 77 71 74 79 73 73 75 73 76 81 79 79 78 77 76 75 79 81 81 73 74 76 76 81 82 91 96 93 88 87 89 87 82 79 78 79 81 82 84 84 81
74 72 75 79 76 83 80 76 78 80 80 80 81 83 83 84 83 81 78 81 86 90 91 84 84 76 79 81 84 83 83 91 92 85 80 80 79 80 88 87 88 88 86 84
75 74 79 81 81 83 80 77 78 80 83 84 84 84 85 84 83 81 83 84 83 84 85 88 92 89 81 77 81 83 86 92 85 86 89 83 86 84 86 88 91 97 98 93
76 76 77 79 81 83 81 80 81 82 83 83 84 83 83 84 85 82 84 86 86 88 87 87 85 88 89 95 93 91 92 87 85 96 90 84 88 88 89 90 89 81 89 97
73 72 73 74 76 78 76 74 74 76 77 79 80 81 82 84 85 85 85 87 88 88 89 91 92 93 92 91 91 95 101 100 91 90 88 88 90 90 86 84 71 69 66 67
69 69 70 71 73 75 72 71 72 72 73 75 77 79 81 84 86 87 87 86 87 87 87 88 90 91 94 97 102 104 103 95 96 93 92 92 82 81 81 80 69 72 67 63
64 60 63 65 66 63 63 65 66 69 72 73 76 78 81 82 83 84 85 85 86 88 89 90 92 90 89 92 95 98 101 107 100 98 93 90 85 76 70 70 67 65 69 67
55 55 60 59 57 60 61 62 65 67 70 71 73 75 77 78 79 81 83 84 85 86 88 89 89 90 89 90 92 94 97 101 109 105 99 96 94 79 72 71 76 75 74 73
52 53 54 58 58 59 60 62 64 65 65 66 67 69 71 72 74 76 78 79 80 81 82 82 83 85 87 88 90 91 93 96 98 102 112 112 112 108 96 93 91 85 85 83
47 49 55 57 55 56 61 60 61 60 60 61 61 59 62 68 72 74 75 75 76 77 76 77 77 80 80 81 81 83 86 90 93 96 97 99 109 113 118 112 104 94 85 83

GFSCGP_500_spd_003.txt.gz
Wind_Speed
48 52 48 44 48 51 53 55 56 48 45 52 46 51 47 41 40 36 36 34 36 37 27 29 34 36 38 38 37 36 36 38 39 40 38 38 36 40 39 38 38 38 41 43
50 54 49 52 52 53 53 55 54 53 49 51 51 51 48 48 42 38 35 30 33 33 32 35 34 35 37 38 36 36 34 35 38 41 43 45 43 41 41 39 40 42 42 44
52 50 46 49 49 49 49 52 51 55 50 51 54 57 54 48 45 37 41 42 41 38 37 33 29 28 25 28 31 33 33 31 34 38 43 48 48 47 44 43 46 47 47 45
46 43 45 46 48 46 50 48 52 52 53 56 53 55 53 56 52 50 49 48 44 35 33 36 37 37 32 42 43 40 37 38 36 37 39 41 46 48 50 49 50 50 48 47
51 48 46 51 52 56 57 56 55 58 58 62 61 60 58 58 61 56 53 48 45 47 50 50 44 45 44 43 47 47 45 43 39 39 39 40 41 47 49 51 52 52 52 49
47 47 47 47 49 50 55 57 58 62 64 64 62 62 61 63 63 61 47 23 48 56 54 56 58 56 54 49 47 49 51 50 48 43 43 43 43 44 48 53 56 57 56 54
55 53 54 49 52 50 51 53 58 62 61 63 65 67 68 66 63 63 60 60 57 57 58 61 60 61 58 53 48 50 51 54 58 56 52 48 47 47 48 51 54 55 54 53
63 64 57 58 57 58 59 60 63 64 67 68 64 70 66 66 66 61 65 67 63 63 63 66 65 61 58 59 59 57 54 55 59 62 61 60 55 54 54 54 55 59 59 55
66 70 64 65 66 65 68 66 60 65 66 68 74 76 71 64 67 69 68 67 65 66 66 63 62 62 64 63 59 56 52 46 51 55 57 60 60 56 56 58 61 62 61 59
61 65 70 68 66 65 63 62 64 63 64 68 71 74 75 68 67 68 70 74 75 73 70 69 70 70 69 65 65 55 51 49 51 56 61 66 63 60 59 61 66 67 66 65
67 71 74 70 72 67 67 67 68 69 70 69 67 71 70 67 65 67 69 68 68 68 68 67 67 66 66 64 64 65 57 52 56 58 63 65 64 65 59 56 62 62 59 58
65 67 70 73 71 73 74 71 64 59 55 68 70 65 61 60 63 66 65 64 68 69 68 67 66 66 66 68 69 64 64 60 61 66 65 68 65 58 58 62 63 65 61 61
57 59 67 71 68 68 68 63 59 62 68 72 70 68 64 55 49 50 57 65 67 68 70 68 69 72 73 74 72 74 73 71 69 71 73 71 68 64 63 65 68 68 69 69
66 69 71 72 70 66 68 65 66 69 73 68 61 65 62 60 58 61 59 57 61 66 71 76 79 81 78 79 79 76 76 76 72 76 78 79 74 71 68 65 75 75 69 71
64 67 66 66 68 71 70 69 67 70 67 71 70 67 63 66 68 69 71 73 75 76 80 81 82 78 77 78 77 78 82 80 76 80 84 85 79 83 81 74 77 74 75 76
68 72 72 73 70 72 74 71 72 72 70 73 73 76 75 73 72 75 78 78 75 74 76 75 76 78 82 81 79 84 83 83 82 79 85 86 86 88 88 84 88 84 82 79
73 75 77 81 77 79 83 77 75 75 74 76 78 76 76 77 77 79 79 81 81 81 81 84 86 89 87 82 85 89 89 84 88 86 87 92 95 96 99 101 98 88 78 76
77 78 81 85 83 88 86 82 81 81 81 81 82 83 83 84 84 83 83 84 84 85 86 86 87 87 87 87 88 90 97 98 93 91 90 91 92 91 91 97 84 83 82 80
78 78 81 80 83 86 86 80 77 78 80 79 79 81 81 82 82 79 82 84 84 85 85 86 86 86 85 86 87 89 95 101 104 104 98 97 97 96 88 91 91 84 84 82
74 72 72 76 78 81 81 77 76 76 77 75 76 77 78 80 83 80 82 83 84 84 83 83 83 83 83 85 88 90 90 92 95 99 101 102 102 102 98 88 88 86 86 89
66 67 68 66 67 69 65 65 66 68 70 72 73 74 77 78 78 78 78 79 80 80 81 82 84 86 87 87 88 88 88 89 93 95 96 97 99 101 102 101 95 93 90 93
57 58 59 59 62 63 59 61 63 61 62 65 68 71 73 74 75 76 77 77 79 81 83 85 88 87 86 88 90 88 87 89 90 91 94 96 99 101 99 95 94 94 94 94
54 54 56 56 56 53 55 57 57 60 64 65 67 67 69 71 72 74 77 78 79 81 83 84 87 89 88 88 92 94 93 95 95 95 95 95 96 98 100 103 102 99 99 99
49 46 51 53 48 51 53 55 57 59 61 61 62 63 66 69 71 73 74 75 77 79 80 83 84 85 85 86 88 90 90 91 93 93 94 95 98 98 99 100 100 102 105 104
44 45 47 52 51 52 52 54 55 57 58 60 62 62 62 64 66 68 70 71 73 76 79 80 80 81 81 81 81 81 81 81 80 81 81 83 87 91 94 97 97 97 97 101
42 48 53 55 52 53 57 54 56 59 60 58 57 57 59 60 62 64 66 69 72 73 73 73 74 76 75 74 71 70 69 69 70 70 70 72 75 78 82 86 89 90 91 90

GFSCGP_500_spd_006.txt.gz
Wind_Speed
49 50 45 43 47 51 53 52 53 48 49 52 45 51 49 42 36 32 31 34 35 38 35 37 38 36 35 36 40 37 33 31 30 32 36 38 38 39 38 36 40 43 41 42
48 52 45 47 49 50 53 57 50 50 45 50 52 50 49 47 40 38 37 36 36 37 37 33 34 36 37 38 37 38 35 34 31 32 36 38 38 40 43 42 44 44 44 46
49 50 50 51 46 45 46 49 52 53 47 46 51 52 53 49 42 44 41 43 43 42 42 43 43 43 40 38 35 31 31 30 34 35 34 38 40 41 43 44 46 46 49 49
44 42 45 47 47 47 52 49 51 55 56 54 51 56 53 58 53 55 54 54 50 50 47 44 41 39 41 42 41 40 42 42 41 40 41 43 43 43 44 46 47 48 50 49
44 45 44 45 44 44 50 51 49 50 56 58 55 55 57 59 60 57 59 55 55 51 39 40 45 55 50 49 50 48 48 49 48 46 44 44 47 49 50 50 50 50 50 50
45 47 49 49 47 47 47 49 52 52 52 60 57 56 59 55 56 49 53 57 48 36 40 42 45 55 55 59 58 57 53 55 57 55 52 53 51 50 53 53 53 54 55 55
51 50 51 52 53 54 54 55 57 61 60 59 61 61 65 61 59 58 57 58 60 58 60 61 58 59 61 60 59 60 60 57 55 56 54 54 56 55 55 57 58 57 58 59
58 57 58 59 59 61 62 61 60 62 65 68 65 69 64 68 67 69 67 66 67 68 69 71 72 68 66 63 60 57 55 48 47 53 53 55 59 63 62 61 63 64 65 66
59 65 64 64 65 62 64 63 59 61 63 67 73 75 75 67 71 73 71 73 72 71 73 73 70 70 72 71 67 64 59 58 54 54 61 61 59 62 66 68 69 71 72 72
60 64 65 60 59 59 52 62 63 64 66 70 71 72 73 67 67 67 65 64 65 67 69 72 73 71 70 69 71 68 63 61 63 63 65 61 59 61 64 71 71 72 74 74
61 58 64 62 62 58 61 65 66 63 65 69 70 69 64 63 68 68 66 66 67 65 63 64 67 70 70 68 66 68 67 64 63 67 62 62 64 65 67 70 71 75 78 77
59 60 62 62 59 62 59 55 53 57 63 64 63 66 59 49 48 60 68 68 68 69 68 68 68 63 63 65 67 69 70 68 64 65 63 66 68 68 70 72 72 72 73 73
59 58 58 63 62 63 64 65 67 70 73 72 66 55 55 63 67 67 67 64 63 66 68 67 68 69 71 73 71 70 73 75 75 70 70 72 75 75 77 77 76 76 76 75
59 62 63 65 63 65 67 66 67 68 72 71 68 67 65 72 74 70 64 63 67 67 68 69 71 73 77 79 79 80 80 78 78 80 82 81 79 77 76 84 82 83 81 78
59 62 62 63 64 65 68 71 70 73 75 78 79 79 74 69 74 71 69 68 66 65 67 71 75 78 81 82 84 87 88 90 92 92 88 84 83 79 79 80 86 91 90 88
60 65 64 69 66 71 75 75 74 76 78 80 81 83 79 79 77 74 73 73 74 75 75 75 76 79 82 85 89 91 92 92 93 92 91 88 86 87 85 87 86 88 98 99
65 68 71 78 75 79 84 81 79 81 80 82 85 84 82 83 81 80 80 79 80 81 82 82 82 83 85 89 91 94 94 93 93 94 95 97 98 95 95 93 93 86 91 97
72 74 78 83 80 87 87 84 84 84 84 84 84 86 86 84 82 82 80 81 81 82 83 84 86 87 88 90 94 96 97 97 98 97 99 100 103 104 101 99 99 103 98 96
77 79 82 81 83 87 85 77 75 75 76 74 74 74 74 74 74 70 68 72 74 76 78 79 81 83 85 86 90 93 95 97 98 97 97 98 99 100 103 105 104 105 107 105
81 79 72 73 72 75 73 66 63 58 62 60 61 62 63 66 69 66 66 69 69 71 72 74 76 78 79 82 84 86 87 90 91 92 92 94 98 99 100 101 103 105 108 107
69 66 66 64 63 66 61 60 58 56 56 56 57 57 59 63 63 61 63 65 68 70 71 73 74 75 78 81 84 85 88 90 92 94 94 94 94 95 95 97 98 100 103 107
58 57 58 56 56 57 52 53 50 50 51 54 56 58 60 61 62 63 65 66 68 70 72 74 77 78 80 84 87 88 89 91 93 95 95 95 94 94 94 95 95 95 97 99
54 51 53 52 51 47 49 48 49 49 53 51 55 56 59 61 63 64 66 66 67 70 72 74 78 80 80 82 85 86 86 89 90 91 91 92 93 93 93 95 97 100 100 100
44 46 49 52 41 44 45 49 51 52 54 55 56 57 59 61 63 64 65 65 65 66 68 72 74 75 76 78 80 82 82 83 83 82 80 81 83 84 85 89 91 94 96 98
40 44 43 47 42 45 45 49 52 54 56 56 56 57 59 61 63 63 62 61 63 64 66 70 71 72 72 72 71 72 73 72 70 69 69 70 71 71 72 74 77 82 85 90
37 42 47 49 46 52 49 51 54 54 54 55 57 59 59 59 57 57 57 58 60 63 65 67 66 65 62 62 64 65 64 64 64 65 64 62 61 59 58 58 58 63 68 74

GFSCGP_500_spd_009.txt.gz
Wind_Speed
44 48 49 44 49 48 50 53 54 52 52 52 47 51 48 45 34 35 36 37 37 38 37 37 38 37 35 35 33 34 32 33 35 37 39 41 41 40 40 41 40 41 42 43
49 53 53 49 48 51 52 56 57 57 56 56 54 49 46 50 44 40 38 39 40 38 38 38 37 38 39 39 39 37 37 41 37 33 36 36 39 42 43 42 42 42 44 45
52 52 51 49 51 51 52 54 55 56 55 55 58 57 54 49 47 45 45 43 40 43 43 41 40 41 43 40 38 37 35 36 36 32 30 33 36 38 38 40 43 44 48 51
48 46 46 49 48 49 51 51 53 56 56 57 57 59 50 50 51 52 47 46 48 45 47 48 47 44 42 42 42 39 37 39 41 43 45 44 43 43 44 44 43 45 46 48
43 43 44 48 50 50 51 50 48 49 52 54 52 57 57 55 57 58 56 52 52 50 44 40 42 39 36 34 38 40 48 53 52 54 52 51 51 52 50 49 50 50 49 50
43 46 48 46 47 49 50 51 53 54 55 59 58 59 62 60 63 63 63 59 55 52 53 50 47 48 42 44 42 49 55 59 55 54 55 57 58 55 53 53 54 56 55 55
46 47 50 49 50 50 50 53 57 61 62 63 60 65 65 64 65 65 64 63 62 62 59 59 58 58 56 56 60 66 65 66 62 61 63 63 63 65 63 60 58 58 59 60
50 50 54 57 57 58 59 59 59 62 64 68 67 72 69 68 69 71 72 70 69 69 69 68 69 67 66 68 70 70 69 70 70 69 67 67 70 68 69 67 65 66 64 65
54 54 57 58 59 60 62 59 60 61 61 62 68 69 63 69 69 68 69 70 72 72 72 73 71 69 68 67 68 69 70 70 69 68 68 62 61 64 68 69 70 72 69 69
55 59 56 59 59 60 59 57 56 52 51 55 63 66 70 61 65 64 64 65 65 68 69 69 70 72 69 66 68 69 69 69 70 70 68 70 68 68 71 73 77 80 70 74
58 59 54 58 57 55 57 58 57 58 61 66 68 66 62 60 60 60 62 65 68 66 68 70 70 67 71 71 72 72 72 71 68 68 66 69 74 74 78 80 80 80 74 76
53 58 57 54 54 57 59 57 53 52 60 61 61 60 51 56 63 68 68 68 66 68 66 66 68 71 74 78 76 74 73 71 70 71 71 69 70 77 82 85 83 83 77 79
56 59 60 59 56 57 58 60 62 61 58 67 70 67 59 63 65 68 71 66 61 64 69 73 73 77 79 81 76 69 71 74 73 73 77 77 74 78 80 81 79 78 79 80
59 60 61 62 61 59 62 61 61 55 61 55 59 68 64 66 72 76 75 73 75 77 80 85 86 88 88 83 82 84 85 82 81 81 80 83 80 83 84 85 85 83 77 77
60 62 61 63 63 63 65 66 63 65 65 71 76 75 71 72 78 83 85 82 82 84 87 87 88 88 87 88 87 87 86 87 86 86 88 89 89 90 89 89 90 92 91 90
62 66 65 67 65 66 70 69 69 69 70 75 79 84 80 85 86 88 88 87 87 89 89 87 86 86 86 87 89 91 92 93 93 94 94 95 94 94 95 94 95 98 99 97
65 67 68 74 68 71 79 73 76 79 80 83 86 87 88 88 89 90 90 87 88 88 87 87 87 86 87 89 92 93 95 97 96 97 98 99 99 98 98 100 100 99 98 98
66 67 71 75 73 81 79 79 82 84 85 84 83 85 82 82 82 83 80 78 77 76 78 78 78 78 78 81 85 89 91 93 96 96 97 99 101 102 102 104 106 107 108 106
68 70 74 77 79 83 80 79 79 80 81 74 74 72 73 72 70 64 62 64 62 63 64 66 67 69 71 74 76 79 81 86 89 92 92 92 94 97 99 101 103 106 109 110
71 72 76 79 82 84 81 76 72 64 72 66 64 63 63 62 62 56 57 58 58 59 60 64 64 65 67 70 72 74 76 79 83 85 88 89 91 93 94 95 96 98 101 105
73 74 77 78 76 75 70 68 64 62 59 57 56 55 56 55 54 53 52 55 56 57 58 61 62 64 67 71 72 73 75 79 82 84 86 88 91 92 93 93 93 95 95 96
74 73 73 69 68 67 63 60 55 52 51 51 52 52 53 53 53 56 57 58 58 60 62 63 65 67 69 73 75 77 78 81 83 83 85 86 88 90 91 92 91 93 95 96
66 61 62 63 60 57 55 51 49 50 50 48 50 52 54 55 55 57 60 60 61 62 62 64 67 69 69 72 74 75 77 79 79 80 79 79 79 79 79 79 79 79 82 86
56 55 60 54 52 49 49 48 47 47 49 49 51 53 56 58 59 60 60 60 61 63 63 65 66 67 67 68 70 73 74 76 74 70 68 63 59 59 63 66 68 70 70 72
48 53 49 55 49 48 48 48 48 48 50 52 54 56 57 59 59 61 61 60 60 60 61 62 62 63 63 66 68 69 69 67 64 60 56 47 50 58 65 68 70 69 67 65
40 44 50 51 46 50 50 49 50 52 53 55 56 57 58 60 61 61 60 58 57 57 57 57 59 61 63 62 61 59 57 57 56 49 44 48 53 59 59 55 53 55 57 58

GFSCGP_500_spd_012.txt.gz
Wind_Speed
48 46 46 44 45 46 50 54 54 50 49 51 47 50 53 51 41 36 38 44 40 34 34 35 35 36 37 35 31 32 33 31 31 34 35 36 36 37 38 36 37 36 38 41
46 47 47 51 48 50 54 57 56 55 52 53 50 50 45 47 48 51 41 37 39 40 37 36 37 38 39 38 39 37 36 37 39 37 39 40 40 39 36 37 35 36 36 36
50 50 53 53 54 53 54 53 53 53 52 51 53 56 53 45 44 45 42 38 35 36 37 38 35 36 38 38 40 39 37 38 38 40 40 36 36 38 35 36 36 39 38 38
47 39 42 49 52 50 47 47 47 47 49 54 55 58 51 46 52 53 49 46 43 43 43 43 44 44 42 43 43 41 37 36 38 40 41 40 38 42 44 46 48 46 46 46
40 42 40 42 44 46 47 46 48 50 51 52 53 52 53 53 57 58 55 54 48 45 45 40 42 45 45 46 48 48 46 39 42 44 48 49 54 51 52 51 53 54 55 55
44 46 45 46 46 47 50 51 50 50 52 56 53 56 60 55 56 60 56 52 54 49 44 38 37 43 50 48 47 48 48 47 50 50 54 57 60 65 62 60 57 56 59 61
46 43 42 45 46 48 47 48 50 54 55 55 57 60 58 60 61 62 60 60 58 53 52 45 51 55 57 54 55 55 55 58 55 59 60 65 68 73 70 67 65 64 66 66
43 43 44 43 42 46 49 50 50 54 55 57 56 60 58 56 58 62 57 56 58 63 65 63 62 61 59 60 58 59 61 61 62 64 68 73 78 77 75 72 72 73 74 73
41 43 46 51 52 53 55 55 55 59 60 60 56 57 58 59 59 59 61 62 63 67 69 66 66 65 65 65 65 65 66 65 66 67 68 68 68 68 69 69 71 73 72 75
58 63 61 57 54 53 52 55 57 59 60 61 58 55 54 54 57 60 63 65 65 65 65 66 67 66 68 69 71 68 67 69 71 73 71 68 68 71 72 73 75 78 76 76
52 52 51 48 47 46 51 52 52 55 56 59 59 58 51 57 58 60 60 63 66 65 64 67 70 72 72 71 70 71 71 71 74 73 73 76 77 75 74 76 76 79 80 82
51 51 47 46 44 47 51 51 53 58 59 60 61 60 51 51 58 62 65 67 67 69 72 75 75 70 71 70 70 69 71 72 75 75 78 81 82 80 79 81 78 76 76 84
53 55 56 57 54 52 53 53 55 58 61 63 64 66 52 57 62 62 70 73 65 64 71 76 75 77 78 79 80 82 84 83 83 86 89 88 85 82 78 78 81 80 79 83
53 55 56 58 55 55 59 58 59 61 66 65 67 67 61 60 62 60 63 67 70 74 78 80 82 86 89 90 90 91 92 93 93 94 93 92 90 87 88 90 88 85 87 88
57 58 60 60 60 59 61 63 61 65 66 69 69 71 68 68 71 72 77 82 85 85 87 90 92 93 96 98 99 98 99 98 99 100 100 98 95 92 92 93 93 92 90 91
60 63 63 63 62 63 67 66 66 67 68 72 73 76 73 76 78 80 83 86 87 90 94 94 96 98 98 99 100 100 100 98 100 100 99 99 99 98 98 98 99 99 99 98
63 65 66 69 68 70 75 67 70 71 72 74 79 79 79 79 80 83 84 86 87 87 86 85 84 84 83 84 84 83 83 85 85 86 87 88 90 92 93 95 98 101 102 104
63 66 69 72 72 77 72 72 74 75 76 78 80 82 83 83 82 81 78 78 77 75 71 69 72 72 70 72 73 73 75 76 78 79 80 81 83 86 88 90 93 96 100 103
63 66 71 73 74 76 72 71 74 77 79 78 79 77 78 77 74 69 66 68 64 59 57 57 58 60 62 65 65 66 69 72 74 76 77 80 82 84 85 86 88 90 94 96
67 67 71 72 76 79 75 75 78 80 84 77 71 72 68 68 67 60 55 51 51 51 52 51 53 56 59 60 62 64 66 69 72 74 77 80 82 85 86 86 86 87 88 89
66 68 71 72 77 80 78 78 77 75 70 70 66 62 60 57 55 52 49 49 50 50 52 53 55 58 61 63 65 66 68 70 72 75 78 80 82 85 86 85 85 85 85 85
70 69 70 73 77 80 77 73 66 64 63 60 57 55 55 53 50 48 48 49 51 52 55 56 58 59 63 65 67 69 71 73 75 77 79 80 81 80 80 79 76 73 69 64
68 65 71 73 74 72 64 57 58 56 55 54 53 51 51 50 49 50 51 53 54 56 58 58 60 63 65 67 68 70 71 72 72 73 74 72 71 69 67 63 58 54 54 61
66 66 71 71 64 58 53 51 52 51 52 51 50 49 49 50 51 54 55 56 57 58 59 60 62 64 64 65 66 67 67 67 68 69 64 60 59 59 59 52 53 58 65 67
66 67 64 62 55 50 50 48 49 51 50 48 47 48 48 51 52 54 56 57 58 59 60 60 61 60 59 61 60 62 64 65 64 57 52 51 53 53 50 52 54 53 63 67
60 60 56 55 48 51 52 50 50 52 51 51 51 50 51 53 54 55 57 58 60 60 58 58 55 55 56 56 59 62 60 58 50 43 41 42 46 48 45 39 39 50 56 57

GFSCGP_500_spd_015.txt.gz
Wind_Speed
43 43 39 38 40 41 42 44 47 46 47 53 50 48 47 44 41 42 37 35 35 36 35 34 35 33 33 32 32 31 31 30 31 32 34 34 35 36 38 40 38 39 40 39
42 43 42 43 43 46 46 50 51 53 51 53 49 46 43 39 45 46 47 38 32 30 32 33 34 34 33 32 31 31 31 31 34 35 36 38 41 42 40 42 42 42 38 36
45 43 43 45 48 48 49 50 50 52 50 48 49 51 42 37 45 44 42 43 40 37 36 38 39 40 40 39 37 36 34 33 32 32 35 41 42 43 44 42 40 42 42 39
40 38 37 39 43 45 45 45 46 45 47 48 49 53 49 48 49 44 44 47 47 45 42 40 40 42 43 44 45 45 42 41 38 38 39 38 43 46 46 47 45 44 45 47
36 42 39 39 42 47 47 48 48 46 47 51 50 53 50 52 51 51 51 50 48 46 42 41 40 37 37 40 45 47 49 48 48 44 45 45 44 48 51 54 52 50 51 55
42 43 43 44 45 44 45 45 47 48 50 52 49 52 51 53 52 51 51 49 45 42 38 41 45 38 35 37 43 48 53 52 52 54 52 51 51 54 57 57 62 64 63 62
43 42 42 43 45 42 43 45 47 50 51 52 51 53 52 50 51 53 53 51 46 43 45 50 49 44 42 44 48 55 59 59 57 54 55 57 59 63 62 65 65 69 73 72
43 43 41 41 45 47 46 47 44 49 51 53 55 56 53 55 58 53 51 51 50 48 48 52 51 52 56 60 62 61 61 62 61 59 60 61 63 65 72 70 74 77 78 78
43 42 41 44 45 45 48 53 59 64 61 56 56 53 50 49 51 51 52 53 54 56 58 60 63 64 68 63 63 64 65 66 67 67 67 67 67 68 70 71 73 76 80 82
48 50 50 52 54 56 56 57 57 55 55 56 54 49 49 50 48 49 51 54 56 59 61 65 66 68 68 67 66 66 67 68 72 74 75 73 69 68 71 74 76 78 78 78
59 58 55 54 53 51 53 53 51 50 53 55 55 53 50 53 53 55 55 55 58 60 64 67 70 71 71 71 72 74 75 74 75 74 74 75 71 73 73 73 74 78 80 81
53 54 55 52 50 50 49 47 49 52 54 56 58 58 51 54 54 55 58 60 64 67 69 71 74 78 78 80 83 82 73 67 75 83 79 78 76 75 76 79 79 80 84 86
54 56 56 56 53 51 50 51 52 55 58 58 59 60 53 56 58 60 63 66 68 70 71 74 77 78 81 84 84 82 84 83 85 89 91 93 94 93 93 90 90 89 90 95
54 56 56 54 51 54 55 54 55 57 60 60 61 59 56 57 61 64 66 67 70 72 73 75 76 77 80 83 86 92 94 97 97 99 99 100 101 102 102 104 103 102 100 99
54 54 56 56 57 60 59 60 59 62 60 60 61 62 63 64 67 69 70 70 73 75 78 80 81 83 87 91 94 96 98 99 100 100 100 100 100 99 99 100 101 100 101 101
57 59 61 61 60 60 64 63 64 62 63 67 67 72 68 72 72 74 75 76 78 81 82 83 85 86 89 90 92 94 94 94 93 90 89 88 87 85 84 84 84 86 88 90
61 61 61 64 62 63 68 60 61 64 65 68 73 74 75 75 76 77 78 81 82 83 84 84 85 85 84 81 80 79 78 79 80 79 77 76 77 77 78 78 80 81 83 85
59 60 62 63 62 69 63 65 66 69 70 71 75 76 78 77 78 80 81 82 82 81 78 74 73 74 74 73 71 68 66 65 65 66 68 70 72 74 76 77 78 79 80 80
59 59 62 62 64 67 64 63 67 70 70 71 73 74 76 78 79 79 79 78 74 71 67 64 59 56 57 58 59 59 60 63 65 66 68 71 73 76 78 80 81 82 83 83
59 58 61 64 68 71 69 68 70 73 75 72 76 77 78 80 80 76 73 68 61 57 55 53 53 53 52 53 56 59 62 66 67 68 70 72 75 77 79 79 79 81 82 82
57 60 64 66 71 74 69 71 72 74 75 76 77 78 79 78 75 70 60 53 52 51 51 50 50 51 53 55 58 62 65 66 67 69 72 74 76 78 79 76 74 73 73 71
59 61 63 66 71 75 72 74 72 73 75 76 77 78 74 68 60 53 49 48 49 49 48 49 51 54 57 59 61 63 65 67 68 70 72 74 73 72 71 69 66 65 62 54
60 60 64 68 71 73 73 72 71 73 74 74 74 69 60 55 50 48 48 47 47 48 50 51 52 54 58 60 62 63 66 68 68 69 68 66 69 66 61 56 56 57 52 46
61 64 68 71 69 68 67 67 67 64 64 66 61 55 51 51 49 49 48 48 48 49 50 52 54 56 58 60 63 65 65 65 63 62 63 65 63 54 49 48 52 57 50 42
63 68 68 71 69 67 68 66 62 60 57 56 53 51 49 49 49 49 48 49 49 51 52 54 55 56 59 61 62 61 60 58 57 61 61 61 51 44 40 41 43 43 42 43
62 66 69 70 64 63 62 59 59 56 55 53 52 50 48 48 48 48 48 49 50 51 53 54 56 58 58 59 57 55 54 56 59 59 59 53 42 38 40 40 37 41 40 41

GFSCGP_500_spd_018.txt.gz
Wind_Speed
38 40 35 37 39 39 39 39 41 39 42 47 45 46 46 43 43 41 35 32 31 35 37 37 34 31 30 31 30 29 29 30 33 35 35 35 36 38 38 39 39 40 39 41
41 42 37 40 39 40 41 43 42 44 44 46 45 46 42 41 41 38 37 39 38 32 31 33 36 38 38 37 36 36 35 33 32 33 38 41 41 42 42 43 44 45 46 44
40 38 38 37 37 36 40 41 40 41 42 43 45 46 42 39 41 41 40 40 40 40 37 35 37 39 42 43 44 43 41 41 40 38 37 39 41 44 47 47 47 47 46 46
35 32 33 33 34 37 40 38 41 41 43 46 48 50 43 42 41 43 42 41 42 44 42 39 38 38 40 43 44 47 48 47 48 48 46 44 45 45 47 48 49 50 52 53
37 38 34 34 36 39 38 40 41 43 45 44 45 47 52 49 46 47 46 44 43 42 43 43 44 42 43 50 45 47 50 47 47 50 52 53 51 51 50 53 54 56 57 58
37 38 38 36 35 35 37 37 39 42 44 46 43 46 50 47 47 47 50 51 52 50 49 44 45 43 46 51 49 46 48 49 51 52 54 56 58 57 57 57 60 62 62 63
40 40 42 42 43 41 39 37 39 43 44 46 47 48 46 47 46 57 56 55 54 52 48 47 47 47 48 52 54 50 48 51 52 54 58 62 67 65 62 60 64 66 68 71
42 43 41 41 41 41 39 38 41 46 47 45 50 50 49 57 61 56 54 51 51 51 51 51 49 49 52 52 53 58 56 56 60 65 65 66 66 66 66 67 69 68 71 72
41 41 36 34 35 37 41 45 46 51 54 54 55 62 62 62 60 56 54 51 50 50 51 53 54 54 55 58 61 63 65 66 70 72 70 71 72 72 72 72 73 73 74 74
44 45 44 44 48 50 50 51 53 56 60 63 62 60 60 57 54 53 51 52 53 54 55 56 59 61 61 63 66 68 71 74 72 73 74 74 76 77 77 78 79 80 78 77
49 52 52 54 53 49 49 50 52 55 59 62 61 57 56 55 55 54 55 55 56 58 60 61 63 65 67 69 70 69 67 69 72 76 79 83 83 84 84 86 84 82 77 78
49 51 52 50 49 49 49 50 52 55 57 59 60 58 56 57 59 59 58 59 61 62 63 65 66 68 70 72 74 76 78 80 81 84 85 87 87 88 91 85 80 82 87 87
50 54 52 54 54 53 52 50 53 58 59 59 61 63 57 59 60 59 60 62 65 65 66 68 70 72 75 76 78 80 82 83 85 86 88 89 89 90 91 93 96 96 99 99
55 57 58 58 56 56 55 53 54 60 63 64 63 63 60 59 59 61 62 64 65 67 71 72 74 76 77 79 81 85 87 88 90 91 92 92 94 95 96 98 99 100 101 102
58 61 59 56 54 56 55 55 61 66 66 69 64 63 63 59 59 61 62 63 66 68 71 73 75 77 80 82 84 87 88 89 91 92 93 93 93 93 93 94 94 95 95 95
59 58 56 57 58 61 63 58 63 66 63 62 61 66 57 60 62 62 65 67 70 71 72 75 77 79 81 83 85 87 88 89 89 86 84 83 82 80 79 77 77 78 79 79
54 56 59 60 60 66 69 61 61 63 65 66 66 64 63 62 65 68 70 72 75 76 78 79 80 80 82 84 85 84 84 82 78 75 72 69 67 67 67 68 69 70 72 73
58 60 64 66 66 71 63 60 63 65 62 64 64 63 64 68 70 72 74 75 75 76 77 78 80 81 83 83 82 79 76 71 67 66 65 64 63 64 67 70 73 74 76 77
58 62 66 67 68 70 67 61 62 64 63 63 64 67 70 71 72 72 73 75 76 76 78 79 80 80 75 71 68 64 63 62 62 61 61 62 66 69 71 73 75 76 77 76
59 61 61 64 68 69 61 59 60 62 65 60 66 68 69 70 72 72 76 76 76 78 79 77 72 65 60 58 58 58 58 59 60 61 63 66 69 71 73 75 76 75 75 74
57 58 59 58 64 67 60 61 62 66 61 65 67 68 71 73 73 74 75 76 76 74 67 60 57 55 54 54 54 56 57 59 62 64 65 68 70 71 73 73 73 71 68 67
56 56 58 61 66 68 62 67 65 65 68 69 70 72 74 75 74 75 75 75 70 62 56 53 51 51 52 53 54 56 58 60 61 64 66 68 69 70 71 70 67 65 63 56
57 54 58 63 65 66 68 68 68 68 70 71 72 74 75 75 75 73 71 62 56 54 52 51 51 51 52 53 54 56 57 59 60 63 65 66 68 68 66 65 65 59 51 43
53 55 61 65 63 66 67 66 66 68 70 70 72 73 73 73 69 64 57 54 52 50 50 51 52 53 53 53 55 56 56 58 60 62 64 66 65 63 62 64 60 50 42 41
54 58 61 67 66 67 68 65 66 67 68 69 68 68 66 63 58 53 51 51 49 48 49 51 53 53 54 55 57 58 59 59 61 62 63 62 61 60 60 59 51 43 42 42
54 58 66 66 63 64 66 66 67 68 66 64 62 60 56 54 52 49 49 49 49 48 49 51 52 54 56 58 59 59 59 60 60 60 58 57 57 57 56 52 41 41 41 40

GFSCGP_500_spd_021.txt.gz
Wind_Speed
34 36 33 36 38 38 38 37 37 32 34 36 37 39 37 38 34 33 33 32 31 31 33 37 38 37 37 35 34 34 33 34 32 32 34 36 40 40 42 44 45 44 44 44
38 39 36 40 42 41 40 40 37 37 36 38 37 36 32 34 37 35 33 33 35 36 35 36 36 37 38 39 39 40 40 37 38 38 37 38 40 43 45 47 48 50 51 50
43 42 42 41 40 38 38 35 35 37 33 37 41 42 35 35 37 36 35 37 38 39 40 40 39 39 39 40 41 43 44 45 44 43 44 44 45 45 46 48 50 52 52 53
44 38 36 34 32 35 37 35 37 38 41 43 43 46 44 37 37 37 39 39 39 40 41 41 41 42 41 40 40 41 42 45 47 47 47 48 48 49 50 50 52 53 55 56
37 34 34 34 33 35 35 36 37 40 42 46 44 43 45 43 39 40 42 42 40 40 41 42 48 51 52 52 50 50 50 51 52 52 52 51 52 54 55 55 56 57 57 59
38 38 34 33 33 34 38 37 41 45 45 48 38 42 53 47 44 45 44 44 41 44 50 56 58 54 54 54 53 53 53 53 53 53 54 53 57 59 60 61 62 64 65 64
37 38 38 36 37 40 43 45 45 48 46 47 44 47 49 45 46 47 46 47 52 58 61 59 58 56 56 57 56 55 55 56 56 59 58 59 62 63 65 68 71 71 73 73
39 39 40 42 41 41 45 45 46 46 47 45 47 53 53 55 55 55 55 58 62 64 64 60 59 59 58 56 56 56 58 59 60 62 63 64 65 67 67 70 73 74 76 76
41 42 40 40 39 40 41 43 42 46 48 52 55 58 56 56 55 57 59 61 61 59 59 58 58 58 59 58 58 59 63 62 64 65 68 71 73 73 73 73 76 82 80 80
47 47 40 41 42 43 43 45 49 52 53 57 57 57 57 53 53 53 55 57 58 59 60 61 59 58 60 62 64 66 67 68 69 69 72 74 75 74 77 78 81 83 84 84
48 48 47 46 45 45 46 47 48 48 53 56 57 58 56 54 55 57 58 59 61 62 62 62 63 63 64 65 66 68 70 70 71 72 73 75 77 78 79 79 80 84 89 90
46 53 56 51 53 50 46 45 47 51 54 56 60 61 60 58 59 59 59 61 62 65 66 68 69 69 69 68 68 68 69 71 74 76 78 79 81 82 83 85 87 88 90 92
48 56 59 59 55 52 51 48 49 53 56 62 62 62 57 58 59 61 62 64 65 66 68 68 68 68 69 68 70 73 75 78 80 83 84 85 86 87 88 90 91 92 92 94
55 59 62 59 53 53 53 53 54 57 62 62 62 58 60 63 63 63 64 65 68 68 67 68 68 68 69 71 73 75 78 81 83 85 86 88 88 89 89 90 91 91 92 92
54 55 55 54 53 54 57 59 63 66 63 64 61 63 62 63 64 66 68 68 66 66 65 65 65 66 69 73 75 77 79 81 82 84 86 86 87 89 90 91 90 89 88 87
54 59 57 59 55 58 60 62 65 64 63 67 69 69 65 65 65 66 64 64 65 64 64 65 67 70 71 73 77 79 82 84 85 85 87 88 88 87 85 81 77 74 71 70
57 55 55 58 59 61 67 66 62 64 64 66 70 66 64 64 64 63 63 63 64 65 67 68 70 73 74 76 79 80 81 83 85 86 84 81 76 73 70 67 66 64 64 65
59 55 55 59 60 68 71 64 62 63 63 66 68 68 66 65 63 62 62 64 67 68 69 70 72 74 77 79 79 81 83 83 80 75 69 66 64 64 62 62 63 64 66 69
66 57 58 63 67 68 68 68 64 65 64 66 66 65 66 65 65 63 66 69 69 70 71 72 75 76 77 78 79 81 78 72 67 64 62 61 61 61 61 63 65 67 69 71
57 59 60 61 67 70 64 63 66 67 68 61 62 63 65 65 67 65 70 69 70 71 73 75 75 75 77 77 74 68 64 63 61 61 60 60 61 62 63 64 65 68 70 72
61 59 58 60 68 70 66 66 64 65 63 61 64 65 65 66 68 69 69 71 72 73 73 74 75 75 71 64 60 58 57 57 57 59 61 62 63 63 64 65 67 69 71 71
57 56 59 62 67 71 62 66 65 61 62 63 64 66 68 68 70 70 71 73 73 72 72 72 70 63 58 56 55 54 55 55 56 58 60 62 63 64 65 66 68 70 70 70
58 57 58 61 64 65 66 64 63 63 64 66 69 69 70 71 71 72 72 72 72 72 69 66 60 57 55 54 54 55 55 56 57 58 60 60 62 64 66 67 68 69 70 68
52 52 56 59 59 63 66 64 65 65 67 69 70 71 73 74 73 71 69 69 68 63 60 56 55 54 53 54 55 55 55 56 57 59 60 63 64 65 65 66 68 67 66 63
47 50 56 60 61 62 63 66 66 67 68 69 70 70 70 69 68 66 62 60 56 52 53 53 52 52 52 53 54 55 56 58 59 61 63 63 62 63 64 65 64 63 61 62
50 52 61 63 61 63 64 65 63 63 65 66 66 66 65 62 57 54 53 50 47 48 49 49 51 52 52 53 56 58 60 61 62 63 62 61 62 63 63 62 59 59 59 57

GFSCGP_500_spd_024.txt.gz
Wind_Speed
34 34 28 33 34 34 33 34 36 32 34 35 34 34 31 28 28 29 31 31 31 30 31 30 31 32 33 35 36 37 38 40 42 42 40 40 39 40 41 42 43 45 47 48
35 34 32 35 37 37 37 40 37 35 34 34 32 32 28 28 32 33 32 31 31 30 30 32 34 35 36 34 37 38 40 41 43 46 48 47 47 45 45 46 47 48 49 50
38 38 35 38 40 41 43 39 35 35 33 34 36 38 29 32 35 35 34 32 33 33 36 36 37 38 38 38 35 38 40 41 43 44 47 49 50 50 50 51 53 54 54 53
43 40 41 40 39 40 39 36 37 35 36 37 39 47 42 36 37 35 34 32 34 37 38 40 41 42 43 39 40 44 48 51 51 51 51 54 55 55 57 57 57 58 59 59
42 41 39 36 35 35 36 37 37 38 40 43 40 41 45 44 37 34 34 34 33 35 37 40 40 45 45 46 52 56 56 56 57 57 58 59 61 62 62 61 62 62 64 65
39 38 36 35 36 37 37 37 39 42 44 46 37 42 43 43 40 38 38 38 39 41 41 42 43 49 55 58 61 62 58 58 58 59 59 59 60 61 62 63 65 65 66 67
39 39 38 38 37 37 38 38 41 45 44 46 44 45 43 45 45 46 45 46 46 48 49 50 53 57 60 63 62 61 61 61 60 59 60 62 64 65 65 66 68 69 70 71
39 39 39 38 37 39 41 42 42 45 46 45 44 50 52 50 50 51 49 47 48 51 54 55 57 59 60 60 60 61 61 62 64 63 63 65 65 67 68 69 70 71 72 74
40 41 38 39 40 42 42 44 41 44 47 49 49 52 52 54 52 50 48 48 49 51 55 57 58 60 62 61 61 62 64 66 66 68 67 66 67 71 73 72 74 75 78 79
44 43 41 40 42 43 44 47 49 48 50 56 56 55 57 54 51 51 53 53 53 57 59 60 63 65 65 65 65 67 68 67 68 67 69 70 72 73 74 72 73 74 75 77
44 44 46 46 46 43 46 51 52 49 53 58 62 64 63 61 56 56 56 55 57 58 60 63 64 65 66 68 70 70 70 70 70 70 70 70 70 72 74 75 77 80 82 84
46 49 50 50 51 52 51 50 52 54 53 56 62 66 64 59 57 56 56 57 59 62 64 66 67 68 70 72 72 72 71 69 69 69 70 72 74 75 77 79 81 82 84 86
50 52 53 56 59 55 54 52 52 54 56 64 61 65 58 58 58 56 56 59 61 65 68 70 70 70 71 71 71 70 70 70 71 72 73 74 77 79 81 83 84 86 87 88
56 57 61 62 61 61 61 61 59 56 62 58 64 57 58 58 55 55 59 62 66 69 71 72 72 72 69 69 69 69 70 71 71 74 75 77 79 81 82 85 86 87 88 88
61 63 63 66 65 63 62 63 63 65 61 64 62 57 54 54 56 60 65 68 71 72 71 71 69 67 66 67 68 69 71 73 75 76 76 78 80 81 83 85 86 88 89 90
67 66 67 67 65 65 68 67 70 67 66 64 57 58 54 56 60 65 69 71 71 69 69 69 68 68 67 68 70 72 73 74 75 76 78 80 82 83 85 86 87 85 81 76
63 61 59 62 60 63 71 72 70 68 64 58 59 57 57 60 66 69 71 70 68 68 67 66 66 66 68 69 71 72 73 75 76 78 80 81 83 84 83 79 74 70 67 65
60 54 52 56 59 71 69 69 73 72 64 59 61 60 62 66 69 71 72 72 69 66 65 65 67 68 69 70 71 73 76 78 79 81 81 82 80 75 71 67 64 61 61 61
55 50 53 67 73 74 68 72 72 69 72 70 66 62 67 69 70 70 69 70 68 67 67 68 69 70 72 73 75 76 78 80 81 80 78 74 70 67 64 61 60 60 61 62
55 56 57 61 67 71 67 71 70 69 72 64 62 66 69 69 70 65 70 68 68 68 68 69 72 73 74 75 77 79 80 80 78 74 68 65 62 61 60 61 61 62 62 62
65 62 61 62 67 70 69 68 67 69 67 62 65 67 67 67 67 68 67 68 67 68 69 72 73 75 77 78 79 79 77 72 66 62 60 59 59 59 60 60 62 62 63 63
67 67 67 66 68 71 66 63 64 64 65 63 63 64 64 65 65 65 66 67 70 71 73 76 76 76 77 77 76 72 65 60 57 57 57 57 57 58 58 59 61 62 64 66
67 66 66 67 67 64 63 62 62 63 63 63 62 63 65 66 65 67 69 71 72 75 78 77 77 76 74 71 66 60 57 56 55 55 55 57 57 58 59 61 63 65 67 67
61 57 63 61 61 59 60 62 62 61 63 63 63 64 67 69 70 71 72 73 76 76 75 74 72 66 63 59 58 56 55 55 54 55 56 57 58 60 62 63 65 65 65 65
53 53 57 51 52 57 58 59 62 64 63 62 64 67 69 71 72 72 73 73 71 69 65 62 59 55 54 56 56 56 56 55 55 56 59 60 61 62 62 62 62 63 63 64
45 46 52 56 54 57 58 60 63 63 63 64 67 67 67 69 71 69 66 61 60 58 56 54 52 53 54 54 54 55 55 56 58 60 60 61 61 62 61 60 59 58 58 58

GFSCGP_500_spd_027.txt.gz
Wind_Speed
34 32 26 30 31 30 29 29 27 25 30 32 31 29 23 28 26 27 26 26 27 29 29 27 27 26 25 27 26 28 31 36 39 42 43 43 44 45 46 47 48 49 49 49
32 30 30 31 32 31 30 32 30 31 34 34 30 29 24 24 24 26 25 28 32 32 31 28 28 29 28 32 32 30 33 35 38 40 41 43 43 46 46 49 50 51 52 53
35 34 30 31 32 33 34 34 35 38 36 33 31 30 26 25 25 26 28 30 32 32 30 31 30 30 31 34 36 37 37 37 40 41 44 46 48 51 53 54 56 58 59 59
37 32 33 35 36 37 40 37 38 38 36 34 34 36 27 25 26 26 29 30 31 33 33 31 30 33 35 38 42 45 46 42 43 47 51 55 56 55 59 61 62 64 65 62
37 37 36 37 36 38 38 37 37 38 38 38 34 37 37 31 25 29 30 31 32 32 33 35 38 42 43 44 47 49 50 51 53 57 59 61 60 58 59 62 64 66 66 66
41 41 39 38 36 37 37 38 40 41 42 42 35 38 44 39 35 32 30 28 28 34 38 41 43 46 48 48 50 53 55 58 59 59 59 58 58 59 60 62 65 66 67 68
42 44 43 40 37 37 38 40 42 44 43 43 40 42 40 40 38 35 34 35 38 43 46 48 49 50 50 50 52 54 58 60 60 60 62 60 61 62 62 64 66 69 71 73
45 43 41 39 37 39 40 41 42 42 44 45 41 40 41 40 41 41 40 43 44 46 47 49 51 52 53 55 56 58 61 63 63 63 63 63 64 65 66 68 69 71 74 76
47 46 42 41 41 42 42 42 39 43 45 43 42 41 41 43 46 48 45 46 50 49 51 54 56 57 58 59 61 62 63 66 68 68 69 69 68 67 69 70 71 72 73 73
45 45 43 43 43 45 45 43 45 45 45 45 47 46 48 50 52 50 48 48 51 54 55 56 58 60 62 61 64 64 66 67 68 70 71 70 68 68 69 71 74 74 74 74
44 46 46 47 47 45 46 47 47 46 49 49 51 54 57 56 54 53 52 52 53 55 61 64 62 60 60 62 65 64 68 70 73 73 73 71 69 69 70 70 71 72 73 74
44 49 50 50 50 48 50 50 49 50 49 50 55 59 61 56 55 54 54 53 56 61 63 63 61 61 62 65 66 68 71 72 72 72 71 69 69 69 70 71 72 74 75 77
44 49 51 52 52 52 49 49 49 49 51 55 58 62 58 60 57 54 53 61 65 65 63 60 63 64 66 68 70 71 72 73 72 71 71 70 70 72 72 74 75 77 78 79
50 51 55 55 54 52 52 53 54 57 57 58 62 59 61 56 55 57 62 65 67 64 64 64 65 66 69 71 72 73 73 73 73 73 70 70 72 73 75 76 77 78 80 82
58 56 61 60 57 57 58 59 61 63 61 62 57 61 56 53 53 57 61 64 65 65 65 67 68 70 73 73 73 73 73 72 71 71 72 73 75 76 77 77 78 80 81 83
64 61 65 64 64 66 64 64 67 69 62 61 59 62 56 57 58 60 66 67 65 65 68 70 71 73 72 71 70 70 69 71 72 72 73 75 75 76 77 79 80 81 82 84
65 66 64 67 68 71 72 71 68 63 60 58 61 57 61 60 61 64 63 65 67 70 70 71 71 70 68 67 67 67 71 72 73 73 74 75 76 77 79 80 81 82 81 77
67 61 65 70 72 75 72 68 67 63 61 56 59 62 63 62 64 65 67 69 71 69 70 70 69 67 65 66 68 71 72 73 75 75 76 76 78 79 80 80 79 74 69 66
57 63 67 65 64 66 69 68 64 62 58 61 61 58 64 67 68 69 69 71 72 70 70 69 67 66 68 69 71 73 74 76 76 77 78 78 79 79 78 73 68 65 62 60
66 66 66 69 69 70 65 62 60 61 62 62 63 66 68 70 70 66 71 71 69 68 68 68 68 67 68 71 73 74 76 77 78 77 77 76 74 70 66 63 61 60 59 59
57 59 60 60 64 69 64 66 67 69 66 68 70 70 68 68 68 68 67 65 64 64 65 65 66 68 69 71 74 75 76 77 77 75 73 69 64 61 59 59 58 58 59 60
57 58 59 65 68 70 65 67 69 70 70 68 67 66 64 65 64 63 62 62 64 65 67 67 68 70 73 75 76 75 72 70 69 67 64 60 58 58 58 58 59 60 61 62
63 62 65 69 70 69 69 69 66 64 64 63 63 63 61 60 59 61 62 64 67 68 69 69 71 70 67 67 66 66 65 64 62 59 58 58 58 58 59 60 61 62 63 62
60 62 67 67 68 67 67 61 59 61 61 61 60 58 59 58 59 61 65 69 68 68 69 68 63 61 61 62 61 60 58 55 56 57 57 57 58 59 60 61 62 61 61 61
55 60 63 62 66 67 59 57 59 60 60 59 60 61 60 61 63 65 68 69 70 66 61 60 59 59 59 58 56 55 54 54 55 56 57 57 57 58 59 60 61 61 62 63
59 68 71 70 65 59 56 56 56 58 58 59 60 61 61 63 65 69 69 66 61 58 57 58 58 57 54 52 52 52 53 53 54 54 53 54 56 56 57 60 63 64 63 62

GFSCGP_500_spd_030.txt.gz
Wind_Speed
35 35 28 32 34 31 28 27 25 27 32 31 30 27 27 28 26 26 27 27 26 23 23 24 26 27 26 28 29 28 27 27 28 30 34 37 40 41 40 41 42 45 48 50
37 35 34 34 32 31 30 31 27 30 34 34 32 30 27 30 28 28 27 27 26 25 26 26 27 29 31 32 32 30 29 30 33 34 36 40 44 44 46 46 47 50 52 54
39 36 33 33 33 33 33 33 30 34 35 35 34 33 29 30 30 30 30 30 30 29 30 29 30 31 31 33 34 35 37 37 38 40 42 43 46 49 51 53 55 58 60 61
38 35 35 35 35 34 37 34 36 37 38 38 35 38 28 30 31 31 30 31 30 29 28 28 30 31 32 35 38 39 43 48 47 47 48 52 51 53 57 60 64 63 63 63
36 36 36 36 34 38 39 37 39 39 40 41 38 40 35 31 31 31 31 30 31 30 29 29 31 35 37 40 42 44 47 49 51 52 54 55 59 59 61 62 63 63 63 62
36 36 37 38 39 40 41 39 40 42 42 44 35 39 44 33 30 31 31 29 29 30 30 32 34 37 40 43 47 48 49 50 53 56 58 58 62 61 62 62 65 65 65 67
36 38 40 41 41 42 43 41 43 44 44 43 39 41 42 40 34 30 28 25 26 29 32 36 38 41 43 46 48 50 54 54 56 57 62 62 64 62 64 62 65 67 68 69
44 48 46 43 43 44 43 44 44 45 45 45 45 45 41 38 36 35 30 28 28 32 36 41 45 46 49 49 51 54 55 60 63 63 66 65 66 65 67 66 67 70 71 73
47 52 52 48 45 46 45 47 40 44 47 48 48 45 43 40 38 36 34 34 36 39 43 45 48 50 53 56 56 58 62 64 63 63 66 66 67 67 70 72 73 72 72 72
50 51 53 51 47 48 48 43 46 47 48 49 50 49 46 43 42 42 40 38 39 43 47 50 53 55 56 56 60 62 63 61 61 63 64 68 69 72 75 75 74 73 72 71
53 48 49 52 50 44 45 47 47 46 49 52 51 50 49 48 47 43 42 40 44 50 52 54 54 56 58 60 63 60 61 62 64 66 69 71 73 75 76 75 72 71 71 71
47 49 51 49 47 46 48 49 51 52 50 50 51 51 53 51 48 47 46 47 51 53 53 55 58 58 61 64 63 66 67 68 68 70 72 75 77 77 75 72 71 72 72 73
48 51 51 51 51 51 51 49 48 49 50 52 54 52 54 53 51 51 52 53 53 54 57 60 59 61 63 65 66 68 69 70 72 73 76 79 78 76 73 72 73 73 74 76
47 50 54 53 46 46 49 48 50 50 55 53 53 54 56 55 56 56 57 58 57 56 59 61 62 65 64 65 69 69 70 72 74 76 79 79 76 74 73 74 75 76 77 78
49 51 50 51 50 52 55 56 55 60 56 61 56 57 57 59 58 59 60 62 60 61 62 63 66 65 67 69 70 71 75 77 78 78 77 75 73 73 75 76 77 78 78 79
53 52 51 52 57 58 59 61 63 64 66 65 65 61 58 57 59 60 60 62 61 61 63 65 66 67 68 70 72 76 77 78 78 75 72 72 73 74 76 77 78 79 80 80
56 56 57 59 58 62 68 64 65 67 69 69 68 59 59 59 60 60 61 60 59 63 65 66 66 68 71 73 76 77 76 74 73 71 70 73 74 76 78 78 79 80 81 81
61 61 64 60 58 70 66 69 72 73 72 68 64 61 62 61 60 59 60 60 62 62 65 67 69 71 73 74 74 72 72 71 70 70 71 74 77 77 78 78 79 79 79 77
63 60 58 59 62 68 68 72 73 70 65 66 66 62 62 61 61 62 63 63 65 66 67 68 70 72 73 72 71 70 68 69 69 71 74 77 78 78 78 77 75 73 70 67
57 57 62 65 72 71 64 68 69 69 71 68 63 64 63 64 67 64 68 67 68 69 68 68 70 70 69 67 67 68 68 69 71 75 77 77 74 72 70 69 67 64 63 62
58 60 67 71 69 66 64 66 70 71 70 69 67 65 67 69 70 70 69 71 71 66 65 66 67 67 66 66 67 68 70 72 74 70 67 68 67 66 64 62 60 59 58 59
56 63 64 62 60 64 63 67 67 66 67 67 68 70 70 69 69 69 70 67 67 66 65 64 64 66 68 68 69 70 69 64 63 64 65 64 62 61 59 58 58 58 58 59
59 59 59 61 62 63 63 64 67 69 69 68 69 68 66 67 69 72 71 68 63 62 61 62 65 67 68 68 65 58 58 60 61 63 63 61 59 57 57 56 56 58 58 58
57 57 58 58 62 65 65 65 66 67 68 67 66 66 67 69 68 66 64 61 60 60 61 64 65 65 62 58 57 57 57 60 60 59 59 58 57 57 56 56 56 56 56 56
55 57 58 61 62 62 62 62 64 65 66 67 66 66 64 62 61 59 58 58 59 62 64 65 62 57 55 58 58 57 59 59 59 58 56 55 56 56 56 58 58 56 55 56
50 52 57 61 64 66 66 65 67 67 64 62 61 57 57 57 58 59 58 60 63 63 61 58 57 58 57 58 58 58 58 58 57 55 54 55 55 55 57 59 59 59 59 59

GFSCGP_500_spd_033.txt.gz
Wind_Speed
37 38 32 33 36 35 33 33 31 33 32 34 32 31 30 28 28 29 30 28 27 26 28 28 27 24 25 26 28 30 30 31 32 28 30 32 35 37 38 40 42 45 46 46
37 38 34 37 37 36 37 37 32 33 35 39 36 34 32 33 27 31 31 31 30 30 30 30 29 28 27 28 30 30 30 28 30 33 34 38 42 41 46 47 49 48 49 53
45 44 39 38 40 39 37 37 34 37 38 40 41 37 35 32 33 30 33 32 32 33 32 33 33 33 31 31 31 32 33 35 36 37 38 40 41 44 47 48 49 52 54 56
46 45 36 38 39 37 38 39 38 39 41 40 44 43 37 34 33 33 33 33 34 34 34 35 35 33 32 31 30 34 37 38 38 39 40 42 42 45 48 51 55 57 59 61
43 40 37 37 35 38 41 40 39 41 43 46 45 46 37 34 33 32 33 34 34 35 35 36 36 33 30 30 34 37 40 41 40 42 43 44 45 50 52 54 56 59 61 63
42 39 36 36 35 40 41 41 42 44 47 53 44 45 42 40 31 35 34 35 34 36 37 38 35 34 33 34 37 40 42 44 46 47 47 48 50 53 55 57 58 59 61 62
41 40 39 38 38 37 38 38 42 48 52 51 49 45 44 43 35 34 34 34 35 35 34 33 35 35 35 38 40 44 44 46 48 51 51 52 53 53 54 59 60 61 64 68
38 37 37 37 40 46 47 46 45 50 52 49 50 50 45 40 40 35 34 35 35 35 34 35 35 37 41 43 45 46 48 49 52 51 51 54 55 56 59 61 64 67 70 70
45 46 45 43 46 47 50 53 46 50 51 55 53 49 47 44 39 38 35 34 34 33 34 36 39 41 44 45 48 50 52 55 53 52 55 57 59 58 61 64 68 71 74 75
49 49 50 53 52 53 51 53 52 51 53 55 53 51 46 43 43 41 37 36 35 37 40 41 42 45 47 49 50 51 52 51 53 55 57 62 62 62 64 68 73 75 78 80
53 53 55 55 56 52 51 49 50 51 52 53 54 50 47 47 46 43 42 40 39 39 41 44 47 50 52 53 54 53 53 55 59 61 60 64 66 66 69 73 77 79 81 82
53 55 55 58 57 53 56 52 51 53 54 52 51 46 51 51 49 47 44 43 42 45 48 51 54 55 55 54 54 57 57 58 62 65 65 66 70 73 74 78 80 81 82 83
56 55 58 58 60 58 55 47 47 46 50 47 52 49 51 51 50 49 46 45 46 51 54 56 59 59 59 59 61 62 61 63 64 65 67 71 73 76 77 80 81 82 83 78
59 65 63 59 53 54 53 50 48 47 48 47 49 47 48 51 51 49 49 51 55 56 58 62 63 63 64 64 65 67 65 64 64 66 72 74 76 78 80 82 81 81 79 77
66 64 58 56 49 50 53 51 50 52 48 54 47 51 50 52 55 54 55 59 60 62 64 65 66 68 67 68 68 68 67 63 66 71 74 76 77 79 81 81 79 79 78 77
55 54 50 50 48 48 51 53 52 51 53 59 55 56 58 56 56 61 62 65 66 66 67 68 69 71 69 70 69 70 66 67 71 72 75 77 79 81 80 78 78 78 78 78
59 60 57 52 51 55 62 49 52 53 55 53 61 55 58 61 59 60 64 69 69 68 69 70 71 71 70 70 69 68 69 71 72 74 75 77 79 78 78 77 78 78 79 82
61 56 62 62 61 69 58 56 56 62 62 62 61 60 61 62 65 64 66 67 67 68 70 69 69 69 69 70 70 70 73 71 71 74 75 77 76 77 77 77 78 81 80 75
66 65 63 66 70 68 63 64 64 66 64 61 62 63 62 65 65 67 67 65 66 67 66 65 67 69 69 70 71 71 71 74 74 72 73 75 76 76 78 79 78 73 73 73
66 67 69 68 65 68 63 63 65 64 68 64 63 62 63 61 63 61 61 64 66 66 65 66 68 68 68 69 70 72 72 72 69 71 73 75 77 78 78 72 70 70 71 70
67 65 65 66 65 68 63 62 65 69 68 62 65 66 63 62 60 61 62 65 66 67 67 66 66 67 69 70 70 69 69 69 71 73 74 77 79 72 67 67 69 70 68 65
66 64 64 64 66 67 65 67 68 68 66 68 65 62 61 63 65 66 66 66 68 69 69 68 68 68 68 68 68 69 68 70 73 75 77 72 66 65 64 66 67 66 65 62
68 70 70 68 66 64 64 62 60 63 62 61 61 63 66 65 64 66 67 67 68 68 68 68 68 68 67 67 68 67 68 71 74 70 64 63 63 63 64 65 65 63 61 59
69 66 63 58 58 58 58 58 58 57 58 59 61 62 62 65 66 66 67 66 67 68 68 65 63 63 65 65 65 67 69 68 63 62 62 63 62 63 63 63 62 61 59 56
61 59 57 57 58 57 56 57 56 58 59 60 62 64 65 66 64 64 66 66 65 64 63 64 62 62 62 65 66 65 60 60 60 61 62 62 63 63 62 61 61 60 58 57
51 52 55 58 59 61 62 62 62 62 62 62 61 60 62 63 64 64 64 63 61 61 62 60 60 62 63 62 59 58 59 60 61 62 62 63 63 63 63 62 61 59 59 62

GFSCGP_500_spd_036.txt.gz
Wind_Speed
39 38 32 33 36 34 37 33 32 29 38 35 35 33 31 30 29 26 26 26 26 28 28 27 28 29 29 29 26 26 26 27 31 32 29 27 28 30 33 34 35 34 36 39
41 38 35 38 37 35 36 35 34 34 42 40 36 37 33 35 30 31 31 30 28 29 31 29 30 31 31 32 30 29 29 30 32 31 30 32 31 32 33 34 36 37 39 41
44 41 38 41 40 42 39 39 37 40 44 42 40 39 35 35 36 32 32 36 33 30 33 31 32 32 31 33 35 36 36 31 30 31 34 33 33 35 38 39 41 41 42 45
49 44 45 41 42 41 42 41 41 39 42 42 41 47 37 34 35 37 38 39 38 32 34 33 34 34 34 36 36 35 34 32 32 35 36 36 39 41 42 44 46 46 46 47
51 45 44 41 38 42 42 39 40 38 40 46 44 50 37 35 35 34 38 40 40 34 34 35 36 36 37 36 37 36 34 33 36 36 37 40 42 44 46 49 46 47 51 53
48 46 42 39 37 39 40 38 40 42 43 50 42 43 50 33 35 37 36 38 37 35 37 38 37 38 39 40 38 37 36 38 38 39 42 43 46 47 50 51 49 50 52 56
48 49 46 42 39 38 40 39 43 46 48 48 45 46 46 41 38 34 36 36 36 38 39 39 38 38 39 38 37 37 38 39 41 44 45 48 50 52 53 51 51 53 56 59
42 42 41 40 39 41 45 42 45 46 49 51 51 52 45 41 42 37 35 33 35 38 39 40 39 39 38 37 37 38 40 43 46 47 50 52 54 54 54 52 52 55 59 61
42 41 41 41 39 42 44 46 40 48 50 53 54 54 50 45 37 38 36 35 34 34 35 36 36 36 36 36 39 41 43 46 48 50 53 54 53 55 54 54 55 57 61 64
47 48 46 41 43 48 49 49 50 49 51 56 54 53 51 48 42 39 37 34 30 30 32 34 35 37 39 41 42 44 48 50 53 56 55 54 55 56 58 60 59 61 65 69
44 46 50 49 50 46 47 50 50 50 56 60 59 51 50 48 47 43 36 34 32 31 31 33 36 39 42 42 45 48 52 55 57 58 57 57 60 63 62 62 64 66 70 71
52 53 56 54 53 52 53 54 50 52 54 53 55 47 46 46 45 40 37 36 34 34 35 35 37 39 42 46 49 52 56 59 60 59 61 63 66 66 64 64 68 71 73 74
58 60 56 59 57 59 55 52 50 50 51 54 54 49 47 43 40 41 39 38 38 39 39 38 40 42 45 50 54 58 59 62 62 63 64 66 69 67 66 68 72 75 76 77
65 64 62 61 56 57 59 56 58 56 55 54 51 48 45 42 43 41 41 40 42 44 44 47 49 50 53 56 59 61 63 64 64 67 69 69 69 68 69 73 75 77 79 81
70 68 64 61 57 58 63 61 59 60 52 54 45 50 46 46 44 45 47 46 45 46 48 53 57 60 60 62 64 67 67 67 68 70 69 70 72 72 73 75 77 80 81 82
62 60 61 61 60 61 60 52 60 61 58 55 48 50 45 42 45 49 49 49 50 52 53 55 59 59 62 66 69 70 70 69 69 68 70 72 73 75 76 75 78 80 81 82
60 59 58 62 58 59 60 53 49 53 52 49 52 46 47 47 48 47 49 51 55 56 58 60 60 65 67 68 70 69 69 69 67 69 71 73 74 75 74 77 79 80 82 82
61 61 62 63 63 66 57 53 53 54 51 53 54 49 49 53 54 56 58 59 58 57 58 62 65 68 70 69 69 67 68 67 67 69 71 72 73 74 76 77 78 80 81 82
62 62 65 65 66 66 59 59 56 59 60 58 59 58 60 58 57 59 58 54 52 56 60 62 62 66 69 67 65 66 65 67 67 66 69 72 75 74 75 77 79 80 81 82
63 61 64 66 66 69 58 60 62 66 66 63 60 56 58 58 61 56 57 57 57 58 55 56 60 63 64 64 63 64 66 65 65 69 73 72 72 74 76 78 79 79 81 79
64 62 66 64 66 69 66 64 65 67 63 67 65 62 61 62 60 59 59 59 58 55 53 56 59 60 60 61 63 64 64 66 70 71 70 71 73 76 78 78 78 80 74 71
61 64 66 67 68 70 63 61 63 62 62 62 63 64 62 59 58 58 58 58 53 53 54 56 57 60 62 62 63 65 66 69 69 69 71 72 76 77 77 77 74 70 70 70
73 70 72 73 74 69 65 65 65 64 64 63 63 61 59 58 55 53 53 54 55 56 59 62 63 63 63 63 63 66 68 70 70 72 75 75 76 76 75 69 67 68 68 68
62 62 65 65 66 63 62 62 61 59 58 55 53 52 53 53 53 54 55 57 59 60 61 62 61 60 62 65 65 66 68 71 74 74 74 75 75 70 66 66 66 67 67 67
57 58 59 59 59 60 61 60 57 52 49 49 50 52 53 54 55 56 56 57 57 57 55 57 58 60 63 65 67 69 72 73 73 74 73 70 66 65 66 66 66 67 65 64
51 51 52 51 52 54 54 52 49 49 51 52 53 53 53 54 56 57 56 55 56 58 61 62 60 61 64 66 69 71 72 73 73 70 66 64 64 65 65 66 66 65 65 65

GFSCGP_500_spd_039.txt.gz
Wind_Speed
36 35 29 30 34 32 34 35 34 32 34 36 35 30 30 32 28 26 26 27 26 26 25 28 28 26 28 29 29 29 30 29 28 27 28 30 30 30 30 29 30 32 32 35
38 35 33 35 35 34 35 38 35 36 39 42 38 36 33 34 30 29 29 29 30 29 29 32 31 30 30 30 30 31 31 32 31 31 31 29 30 32 34 34 33 33 35 37
41 39 36 38 37 37 36 40 39 43 44 48 45 41 36 32 32 30 30 32 32 31 33 34 35 33 33 32 33 33 32 34 36 36 35 33 33 34 35 34 37 39 41 42
46 41 40 38 39 40 43 41 42 42 45 47 44 46 34 28 30 32 30 34 36 34 34 37 37 36 35 34 35 35 36 36 36 36 36 36 36 36 34 37 41 43 45 47
47 46 42 43 42 42 42 40 40 41 44 47 44 46 32 28 28 29 33 35 39 36 35 37 39 36 35 35 35 35 36 37 37 36 36 36 36 35 38 40 43 47 49 50
51 51 48 46 44 41 41 40 40 43 45 49 38 41 47 27 29 29 31 33 37 36 34 36 37 36 37 36 37 36 37 38 38 38 38 37 36 40 41 44 46 49 49 51
54 52 52 52 50 47 43 41 43 46 49 49 42 43 44 37 31 32 31 33 36 35 31 32 33 35 37 37 37 37 37 36 35 36 37 39 41 42 44 47 49 50 52 53
56 55 48 44 39 39 43 46 46 50 49 50 50 49 42 43 40 35 36 36 34 35 34 33 35 38 39 38 38 38 37 35 34 36 39 41 43 45 48 51 54 54 56 59
53 49 49 46 45 37 42 47 39 46 52 53 50 46 43 43 42 37 33 34 33 31 33 37 37 37 37 37 37 36 35 35 38 41 42 44 46 49 52 55 58 59 60 63
44 46 48 49 45 46 47 40 39 44 48 51 52 49 49 48 45 41 39 35 30 29 32 35 37 37 37 36 35 35 38 41 41 42 45 47 52 52 54 57 59 61 63 65
44 50 51 47 46 42 45 46 43 42 48 50 51 51 50 48 46 44 36 29 27 28 30 33 34 36 38 39 40 42 44 44 44 46 50 52 53 55 58 59 61 61 63 69
46 49 51 55 51 48 47 49 50 50 47 47 54 48 46 43 43 42 40 36 31 28 30 30 33 36 36 38 40 43 44 44 46 49 53 55 56 58 59 61 61 63 68 71
47 52 52 57 56 57 55 53 51 49 49 53 54 50 48 44 42 43 40 39 35 33 34 36 37 37 39 40 40 42 43 47 51 55 57 58 59 61 61 62 64 68 70 71
48 49 51 56 59 57 55 51 53 52 56 56 56 53 48 47 46 38 40 41 39 38 39 38 36 36 39 42 46 47 49 53 57 59 59 61 62 63 63 65 67 69 70 72
51 53 53 52 54 56 58 58 56 59 55 61 52 53 46 46 42 41 44 45 45 41 40 39 40 44 45 46 48 51 52 54 56 59 61 62 63 66 66 68 69 71 73 75
50 47 47 52 55 57 57 59 59 59 59 59 54 55 45 40 39 43 45 46 47 49 46 45 48 49 49 51 54 55 57 58 60 63 64 65 67 66 68 68 71 74 75 76
50 45 45 49 48 48 53 54 50 50 52 52 59 50 44 40 38 42 43 47 48 47 45 45 45 49 53 58 57 56 59 59 61 65 66 67 67 67 68 71 73 74 75 77
52 51 50 47 52 59 56 50 51 53 55 55 55 49 45 48 45 42 46 48 49 48 50 52 53 54 57 57 58 56 60 61 64 67 67 66 66 68 70 72 72 74 76 77
53 54 55 56 58 58 56 57 56 58 57 56 56 50 48 50 52 54 53 50 51 54 57 59 57 56 56 57 57 59 60 61 65 65 66 66 67 69 70 70 72 75 76 77
51 51 57 56 62 63 50 55 56 60 61 55 52 50 53 55 59 52 52 55 55 55 57 56 57 57 58 58 56 57 61 61 64 64 66 68 68 68 68 71 73 74 76 78
57 58 62 63 65 65 57 57 61 64 57 57 57 53 56 56 54 54 55 57 61 61 60 59 55 53 54 52 54 59 59 64 66 67 66 65 65 67 70 71 72 75 77 78
63 62 63 62 64 66 58 60 61 60 59 59 58 57 58 58 57 56 57 57 58 60 60 57 54 53 50 53 57 59 63 65 66 65 63 63 66 68 70 72 75 77 78 79
64 64 65 67 65 60 57 58 59 58 59 61 62 61 63 62 62 60 60 60 60 57 55 52 47 49 53 57 62 64 66 65 62 62 63 66 68 70 72 75 77 78 78 78
59 55 55 54 58 57 56 58 57 56 51 50 47 52 59 61 61 60 59 57 56 53 49 48 50 55 59 60 63 65 64 60 61 63 65 67 69 72 75 77 78 78 77 74
58 59 57 55 51 47 45 45 46 48 50 52 55 57 57 58 59 56 54 52 50 48 48 51 54 58 61 61 61 60 61 62 63 65 68 70 73 75 76 77 77 75 72 72
46 43 48 51 53 54 54 54 55 55 55 56 55 54 53 52 49 48 47 48 51 53 55 57 59 60 59 59 61 63 63 64 66 68 71 73 76 77 77 75 72 71 72 72

GFSCGP_500_spd_042.txt.gz
Wind_Speed
37 34 28 29 31 30 29 29 29 28 32 34 33 30 30 32 30 27 27 28 28 28 29 27 27 27 27 26 27 28 30 30 30 30 29 30 29 29 30 31 32 33 33 35
38 35 33 33 32 33 32 33 30 33 36 41 39 39 37 37 34 31 30 28 27 31 31 31 32 31 31 30 29 30 31 30 30 31 31 32 33 34 35 34 33 31 33 35
41 39 37 36 35 35 34 35 34 37 41 44 45 43 39 34 35 34 32 30 29 29 33 34 36 36 35 34 32 32 33 33 32 31 31 33 35 37 36 36 37 36 35 35
46 41 40 38 38 38 38 36 38 40 45 48 45 49 38 33 30 32 29 30 30 31 33 35 37 38 39 38 35 35 35 35 34 33 33 35 36 36 37 38 37 37 36 39
48 45 43 43 39 39 38 37 42 44 46 50 44 47 39 29 26 25 30 31 31 34 35 37 37 40 41 38 38 37 35 36 36 35 36 37 36 37 38 37 38 37 40 41
49 49 45 43 41 40 40 45 46 47 51 57 42 47 47 27 23 22 28 32 34 35 35 36 38 40 40 38 38 37 37 37 37 37 38 38 39 39 38 39 40 42 43 44
50 49 48 46 45 44 43 42 47 55 57 59 49 51 48 33 26 27 27 31 33 34 35 35 36 38 40 39 38 38 38 37 38 39 38 38 38 38 40 42 44 44 44 47
53 53 49 50 48 45 47 50 53 52 50 51 51 52 44 42 32 32 33 31 32 34 37 38 37 39 38 37 37 38 38 38 38 38 38 38 38 41 43 45 45 46 47 50
59 62 60 56 56 48 47 48 39 45 51 55 46 37 34 35 34 31 30 31 34 35 34 38 39 38 38 38 40 40 39 38 38 38 38 39 40 43 46 47 48 49 51 53
51 54 59 57 54 56 54 48 49 49 54 54 48 40 36 37 36 33 34 32 32 36 36 35 40 43 41 41 42 41 39 38 39 39 40 43 46 47 47 48 51 53 55 58
46 46 47 45 49 47 45 44 47 49 52 54 51 43 42 41 36 34 34 31 27 26 28 33 38 40 42 42 41 41 40 40 42 44 45 47 48 50 50 51 53 56 58 61
49 49 52 50 48 48 49 51 51 50 51 49 51 45 45 45 38 35 38 38 37 33 32 35 38 39 40 40 42 43 44 44 46 49 49 50 51 52 52 54 58 61 63 64
46 50 53 58 59 59 56 51 47 50 48 51 54 47 48 46 39 39 38 41 40 41 37 37 38 40 41 42 42 44 45 46 49 50 49 51 52 54 58 61 62 62 64 65
47 49 48 50 48 49 51 50 49 50 54 55 54 48 49 49 44 41 39 44 44 42 40 38 37 40 44 45 45 48 48 49 52 52 52 54 56 59 61 61 62 64 66 66
58 54 49 43 46 47 51 51 50 54 54 60 51 52 43 46 50 41 46 48 46 46 45 43 42 42 45 46 48 49 50 50 52 53 55 56 58 61 64 64 64 66 66 66
53 49 49 52 43 47 48 52 55 57 56 59 56 54 51 45 46 49 47 47 49 50 51 50 47 45 46 47 49 51 53 57 57 57 58 59 59 61 62 64 65 67 67 67
60 54 51 54 48 48 51 45 51 53 53 53 59 53 46 49 46 43 44 46 49 51 49 46 44 44 45 47 48 49 54 56 56 59 60 60 59 61 63 66 67 68 68 70
61 56 55 51 53 57 49 45 46 50 52 54 55 49 48 49 45 46 45 47 45 44 45 49 50 48 46 49 52 56 59 60 61 61 61 60 60 64 65 67 68 70 70 70
58 60 55 57 60 57 55 50 52 49 51 51 55 53 47 46 51 53 50 47 49 50 52 53 54 55 55 54 57 59 62 61 63 62 61 62 60 64 65 68 70 71 70 72
59 57 60 54 56 58 52 53 51 54 55 43 48 47 48 50 56 54 51 53 53 51 49 51 54 57 58 57 57 59 60 61 62 59 58 59 62 65 71 69 70 68 72 71
68 74 74 74 69 69 52 52 54 59 49 51 52 48 49 52 51 54 55 55 56 56 55 55 54 54 56 57 58 58 58 54 54 55 59 61 62 67 73 71 70 71 69 73
42 53 66 59 60 59 54 54 60 56 55 51 53 55 55 54 52 52 53 57 58 57 55 55 54 55 56 56 56 56 55 53 56 61 64 66 69 73 70 70 70 72 75 76
49 45 50 57 60 59 61 57 58 57 58 61 59 57 56 54 53 55 57 58 59 58 58 58 57 56 55 56 56 58 57 60 61 65 68 73 71 71 73 74 73 74 76 77
64 63 64 58 56 51 55 56 56 54 59 61 62 57 55 58 61 60 60 58 54 53 53 55 55 56 58 59 60 61 60 60 65 69 69 70 73 73 70 71 74 76 78 78
71 65 63 61 57 58 56 40 44 45 48 50 48 50 53 54 55 54 53 52 54 55 53 55 56 55 55 54 54 56 60 63 66 69 70 68 68 70 72 73 74 76 78 80
62 59 57 61 55 55 59 63 54 51 51 51 52 51 52 54 57 57 57 57 57 56 54 54 53 53 53 53 57 60 63 64 65 65 67 69 70 71 72 73 76 78 79 79

GFSCGP_500_spd_045.txt.gz
Wind_Speed
38 36 30 31 32 30 30 29 27 26 29 30 28 26 28 32 31 31 31 30 28 27 30 28 27 28 28 27 28 27 27 28 29 30 29 29 29 29 30 31 31 33 34 35
42 37 34 35 33 33 33 33 31 31 33 37 31 31 29 35 36 34 36 36 32 33 31 32 31 32 31 32 31 31 31 30 31 31 31 30 30 30 31 32 33 34 36 38
43 40 38 38 35 35 36 36 35 36 36 39 39 42 37 34 35 34 32 33 36 34 34 34 34 35 35 35 36 36 35 33 32 34 34 33 31 31 33 34 35 37 38 40
45 42 40 38 38 37 38 37 39 39 41 42 42 54 44 37 32 33 32 33 35 35 33 34 33 34 36 38 40 39 37 36 36 36 36 36 35 35 35 36 36 37 40 41
46 45 43 42 39 39 40 39 40 41 42 45 49 55 51 40 32 24 30 35 34 34 33 33 34 35 39 40 40 40 40 37 39 39 38 38 37 37 37 38 38 40 41 42
49 48 46 44 41 40 41 42 41 42 44 56 52 54 55 48 39 29 27 31 33 33 33 33 35 36 37 39 40 40 40 40 40 39 39 39 38 39 39 40 42 43 43 44
50 49 47 45 45 43 42 42 44 48 54 59 58 62 51 48 33 32 32 31 33 32 33 35 37 39 40 42 41 41 42 42 42 41 40 40 41 41 42 43 43 44 45 46
51 52 48 45 44 43 42 44 46 53 57 62 64 56 46 39 30 26 31 31 32 34 36 37 39 41 42 43 44 42 42 43 41 41 41 42 42 43 45 45 45 46 48 48
56 56 54 51 50 47 50 53 52 51 60 63 59 50 41 35 31 25 23 26 28 32 34 37 38 41 42 40 43 43 42 43 44 43 44 44 44 45 46 47 47 49 50 51
60 62 61 60 59 61 62 61 61 61 61 64 59 46 37 35 35 28 23 26 28 30 33 38 41 43 44 43 41 44 45 45 46 47 46 45 45 47 47 48 49 51 53 54
52 60 66 65 66 62 54 55 56 56 57 59 56 42 40 41 41 38 30 28 29 30 31 34 37 41 46 46 44 43 43 43 44 46 47 47 48 49 51 51 53 55 56 57
43 50 56 58 54 53 52 51 50 52 51 50 49 41 39 45 40 42 36 31 37 38 35 35 37 38 40 42 42 45 46 47 47 48 48 50 52 53 54 55 56 58 58 59
43 46 51 56 58 58 54 50 48 47 47 47 52 38 43 50 47 45 43 38 39 42 42 40 39 39 42 44 48 48 48 49 50 51 53 53 53 54 55 56 58 59 59 61
54 52 50 53 51 51 52 51 51 51 57 54 56 47 50 52 50 47 49 43 42 44 48 45 42 42 43 44 46 48 47 50 52 54 55 56 56 57 59 61 61 61 63 64
60 56 56 47 46 48 51 51 48 52 58 57 59 59 52 51 53 59 55 44 43 47 50 52 50 46 45 45 47 49 51 51 52 55 57 59 62 61 60 60 61 63 65 68
54 57 53 56 46 47 55 51 52 53 54 58 51 53 51 52 51 54 55 52 51 53 56 54 53 50 48 47 50 53 53 54 56 57 59 62 63 62 62 64 65 67 68 68
58 59 50 52 56 55 62 50 52 54 48 50 55 47 45 48 52 53 54 57 58 58 55 54 55 55 53 50 50 51 53 55 56 58 60 61 61 62 63 65 68 69 69 67
76 65 58 51 53 59 61 48 49 54 54 53 50 43 45 48 47 47 51 53 50 49 49 52 52 53 53 54 52 53 54 54 55 55 56 59 61 64 67 69 69 69 68 66
77 75 71 67 66 63 58 58 57 58 53 53 53 50 51 44 48 52 46 45 50 52 52 51 51 52 54 55 55 56 56 57 57 57 58 60 64 66 67 68 68 66 65 71
78 74 68 76 76 72 58 54 56 61 66 44 56 51 48 47 52 50 44 50 54 54 55 56 56 55 55 55 54 53 54 57 58 58 60 62 65 65 66 66 61 65 70 74
56 69 72 69 66 72 65 55 55 59 53 51 54 49 46 50 52 54 55 54 53 55 55 56 58 57 55 55 57 58 58 57 59 59 58 59 59 60 58 59 65 70 73 71
48 47 51 58 63 72 75 70 70 66 65 65 63 61 57 54 53 51 51 55 57 57 58 58 58 57 57 57 55 55 57 59 59 58 58 58 56 58 61 65 70 72 72 74
51 51 44 40 48 48 41 43 58 65 65 60 58 58 56 58 58 57 57 58 59 59 61 62 63 61 59 59 61 60 59 58 57 57 57 58 61 64 66 68 71 73 76 77
74 68 62 59 49 46 44 42 38 42 44 49 53 53 53 55 57 54 55 57 60 61 61 62 63 63 59 59 56 55 55 55 57 58 60 63 66 67 66 69 76 76 76 79
75 78 74 75 71 60 60 55 54 49 47 48 47 48 48 49 59 63 62 58 56 56 57 56 54 53 53 55 57 57 58 59 61 62 63 65 66 68 72 77 81 82 82 81
69 65 71 68 66 76 70 63 63 58 49 48 50 51 51 51 53 57 56 54 55 57 56 54 57 57 58 58 58 57 55 55 57 60 63 66 69 72 73 73 74 76 78 79

GFSCGP_500_spd_048.txt.gz
Wind_Speed
39 37 32 31 34 29 28 28 27 27 30 31 29 24 24 28 22 22 25 30 31 29 33 31 29 28 29 29 29 30 30 29 28 29 28 28 29 30 31 31 32 31 32 33
43 40 35 36 35 34 32 32 30 31 34 37 34 31 26 28 27 25 29 31 32 33 33 35 35 32 31 33 33 32 32 31 31 31 31 31 31 31 32 33 34 34 35 35
46 42 39 40 38 37 36 35 35 36 36 38 40 41 32 28 31 30 31 33 34 35 37 37 38 36 35 34 35 36 36 35 35 33 33 34 33 33 34 36 37 36 36 37
48 44 40 38 40 40 39 38 39 38 39 40 43 53 40 34 33 34 34 37 38 37 35 37 38 38 37 38 39 38 38 37 38 38 37 36 37 36 38 39 39 39 39 40
48 45 43 42 41 41 41 40 40 41 41 42 49 50 50 41 37 35 37 39 42 41 39 34 37 39 38 37 38 38 37 37 39 40 39 39 40 41 41 41 41 41 42 43
51 50 46 44 42 41 42 43 42 42 42 50 52 48 50 45 43 39 42 40 37 40 38 34 34 36 38 38 38 38 37 38 39 40 41 42 42 42 42 43 43 44 45 45
52 51 48 46 46 44 42 41 42 45 47 53 55 57 49 44 49 45 42 32 36 39 39 36 35 37 37 39 40 40 39 39 40 41 40 42 44 44 44 44 45 45 46 47
53 54 50 48 47 47 46 44 45 49 51 53 59 59 53 48 46 50 41 29 30 34 37 39 38 38 40 41 42 42 43 43 44 44 44 44 45 45 45 46 46 47 49 50
54 53 53 49 47 46 47 49 47 49 53 57 61 57 57 51 49 49 49 34 31 27 31 34 38 40 41 43 43 43 44 44 42 44 45 44 45 46 47 48 49 50 51 52
52 55 55 53 53 53 53 53 53 55 56 59 62 63 58 55 55 53 45 38 31 30 31 34 37 39 40 42 44 45 46 44 45 43 44 46 47 49 49 50 51 52 53 53
54 58 62 62 62 61 60 58 59 59 60 62 67 61 57 60 58 54 42 33 27 33 37 37 38 41 42 43 44 43 41 43 47 47 47 47 48 50 52 53 53 54 55 54
57 57 60 62 61 61 64 66 69 69 66 63 64 59 51 51 52 44 37 35 33 31 36 40 38 42 43 45 46 45 43 43 44 46 48 50 51 52 53 54 55 55 56 56
45 48 51 56 64 72 68 62 60 58 56 59 59 53 47 46 44 41 43 46 48 45 42 41 46 48 46 47 47 47 46 47 49 50 52 53 53 54 55 55 57 58 59 60
55 58 54 52 49 51 50 52 53 54 55 60 58 49 44 46 45 47 52 55 56 53 43 45 49 52 51 47 48 49 50 49 49 51 52 53 53 55 58 59 59 60 61 63
64 64 59 55 53 51 52 51 49 55 54 61 55 59 43 48 50 53 55 57 57 54 52 49 54 55 52 47 47 51 52 53 53 52 53 55 58 59 60 62 63 64 64 64
60 61 61 63 59 58 59 58 58 57 56 62 55 59 47 44 48 53 53 56 58 61 61 55 52 54 57 56 54 51 53 55 56 54 54 55 58 60 62 64 65 66 68 69
66 62 59 62 59 60 65 57 58 61 57 57 61 61 50 50 46 45 51 53 51 55 56 58 57 57 57 56 57 55 51 50 51 52 53 54 55 57 60 63 64 66 68 70
73 62 67 68 64 68 60 56 55 61 59 58 55 48 44 46 47 48 49 49 48 47 50 55 57 57 55 53 52 53 53 52 51 51 51 51 53 56 58 60 62 64 68 72
78 67 71 70 77 78 70 58 58 60 61 60 58 54 48 45 51 50 49 49 51 53 52 51 51 52 52 53 54 55 56 56 56 55 55 55 55 57 61 63 63 66 72 74
75 77 72 66 69 82 75 64 69 69 70 51 55 54 55 57 60 51 52 52 55 56 56 56 55 54 55 55 56 57 58 57 57 56 56 57 58 59 60 61 62 65 69 70
71 79 80 76 71 71 78 77 74 77 75 73 66 57 53 57 62 61 59 59 57 58 60 61 60 60 58 58 58 57 56 56 57 58 59 60 61 62 63 61 59 61 64 62
46 56 64 67 68 72 68 66 73 76 71 66 70 74 68 59 58 61 61 59 62 61 57 56 57 60 60 60 58 56 58 60 60 60 60 60 62 64 62 60 61 61 62 70
59 39 38 38 57 66 64 59 62 60 61 65 70 69 65 67 69 65 66 67 64 65 66 65 64 62 63 64 63 62 59 59 60 60 61 62 61 61 62 64 66 68 69 72
66 67 67 58 43 41 33 36 43 44 39 51 63 63 66 69 72 74 74 69 64 60 60 59 54 55 56 60 62 64 62 62 62 64 59 58 57 59 61 66 69 71 70 67
64 64 65 70 72 57 47 49 50 50 47 48 45 43 39 37 39 42 42 43 43 45 47 47 48 52 57 59 60 59 59 58 57 60 61 62 62 62 63 64 62 61 60 63
76 70 71 75 71 72 72 64 58 61 62 65 60 57 53 51 51 50 47 44 46 49 52 53 55 57 55 56 59 60 61 61 60 61 62 60 58 59 61 63 64 66 69 72

GFSCGP_500_spd_051.txt.gz
Wind_Speed
38 38 33 31 36 31 29 27 25 26 27 28 26 22 23 24 18 19 20 18 21 24 28 30 30 29 30 29 30 29 29 30 30 30 30 29 29 28 28 28 29 31 32 34
42 40 35 38 36 34 32 31 30 30 32 33 30 27 26 27 26 24 23 23 26 28 30 33 34 32 31 34 33 33 33 33 33 32 32 31 32 31 31 31 31 33 34 35
45 43 40 40 39 37 36 36 35 36 35 36 35 37 29 28 30 30 28 29 29 32 35 37 38 37 34 32 35 37 37 36 36 36 35 34 34 34 35 36 35 35 36 37
49 47 43 41 41 41 41 40 40 39 39 38 39 49 32 28 31 31 31 33 34 33 39 44 44 43 42 37 38 39 39 38 37 37 36 36 38 39 39 41 40 39 40 40
49 47 46 44 42 43 44 42 41 41 40 40 44 47 40 32 31 31 33 34 36 38 43 45 46 45 45 41 38 38 38 37 36 36 37 38 39 41 42 44 44 43 43 44
53 52 48 47 45 44 45 44 43 43 41 44 47 46 44 39 36 35 35 37 39 39 42 40 43 44 41 40 38 36 37 37 34 36 38 38 39 41 43 44 45 45 46 46
53 53 51 49 48 46 45 45 43 44 46 47 49 50 49 43 47 40 41 41 41 39 39 40 40 42 42 40 37 35 35 36 37 38 39 40 40 42 43 44 46 47 48 49
53 55 54 52 49 47 45 46 48 51 50 48 50 56 51 44 45 48 51 46 46 45 43 40 40 36 41 45 43 40 38 39 40 41 41 42 42 44 45 46 46 47 48 49
53 54 53 51 50 50 50 50 48 49 50 54 55 52 50 48 49 50 51 57 52 51 48 35 41 37 36 39 41 42 42 42 42 43 43 44 46 45 45 47 46 46 47 49
54 56 55 54 53 53 53 52 52 53 53 55 55 54 53 53 56 56 57 56 56 49 37 33 37 39 36 37 38 40 41 42 43 44 46 48 47 47 48 47 47 48 50 51
53 56 58 58 58 56 54 55 56 56 56 56 56 55 55 58 60 60 62 58 49 39 29 29 34 39 41 43 42 42 43 43 44 45 44 43 44 44 46 48 48 50 51 53
53 56 59 57 55 58 59 59 61 63 62 61 60 61 58 60 63 62 60 61 49 42 36 30 32 36 42 46 46 45 46 46 47 48 47 46 46 47 48 49 49 51 54 56
45 48 47 57 64 64 62 58 56 56 57 59 61 65 62 65 65 60 55 53 50 48 46 44 38 39 43 48 50 50 50 51 51 51 51 52 53 52 50 50 51 53 55 56
60 61 57 56 54 58 59 59 59 57 58 70 66 70 66 63 58 51 50 51 52 53 51 52 51 48 49 51 53 53 52 51 51 53 53 53 52 52 53 52 51 53 55 58
66 63 63 58 56 54 56 55 54 55 58 56 62 56 66 52 51 53 53 50 55 54 55 58 56 55 52 52 53 53 51 50 51 53 54 54 55 55 54 54 54 54 56 58
65 65 65 69 62 63 65 63 59 60 58 58 58 59 49 45 48 49 52 54 52 54 57 56 53 53 53 51 48 47 48 50 52 53 54 54 54 53 53 52 53 56 58 59
62 63 56 69 71 72 72 66 63 62 60 61 61 53 45 48 49 50 56 58 57 57 53 52 52 52 51 48 46 44 46 46 48 48 49 49 48 48 49 50 52 53 55 58
68 51 66 61 62 72 77 71 70 70 65 63 64 58 49 48 49 51 55 56 55 53 53 53 51 50 50 50 49 48 46 45 46 47 47 47 48 50 52 53 54 56 57 59
76 70 58 59 75 74 72 69 69 73 71 64 63 55 48 49 55 51 50 52 50 50 53 55 56 55 56 56 53 50 49 49 49 49 49 51 53 54 56 56 56 57 58 59
69 70 70 63 67 75 78 70 60 66 76 62 64 57 50 54 60 52 56 56 56 59 60 60 60 59 58 58 57 54 53 53 54 54 54 55 54 54 55 56 57 60 61 62
71 69 75 79 77 76 67 70 73 72 79 67 67 70 65 64 64 61 60 58 58 59 61 67 68 64 64 65 64 63 61 60 58 55 54 54 55 57 59 60 60 61 62 62
70 71 68 65 79 75 72 68 69 75 76 74 72 70 67 69 74 72 73 75 75 72 68 66 68 67 70 68 65 61 60 59 59 59 59 60 61 61 61 61 61 61 63 64
76 70 70 68 65 64 66 70 67 69 72 69 69 70 72 70 69 71 71 73 74 80 80 78 74 70 70 68 65 65 67 67 67 64 62 61 61 62 61 63 62 61 61 61
69 66 53 59 67 64 49 50 58 60 57 63 56 56 63 65 70 71 68 69 70 69 72 73 74 73 72 74 71 65 65 62 62 61 57 55 55 58 58 58 57 56 57 60
59 60 59 59 59 61 62 48 47 47 47 46 39 45 52 53 50 53 48 43 50 59 63 64 70 67 63 59 57 57 53 54 57 58 55 57 60 62 64 66 66 65 65 64
73 75 71 65 60 68 71 76 59 61 61 50 58 58 55 48 45 46 44 44 44 45 46 41 40 42 46 47 49 50 52 54 55 57 59 61 63 65 62 60 61 58 58 59

GFSCGP_500_spd_054.txt.gz
Wind_Speed
36 36 34 33 37 36 31 29 28 29 29 27 25 21 22 21 16 19 18 17 17 20 24 25 25 26 27 27 28 29 31 30 29 32 32 32 31 32 31 30 30 30 31 32
40 38 36 39 39 36 33 32 30 33 33 31 30 24 25 24 20 23 22 22 23 23 26 30 32 32 31 32 33 33 33 34 35 33 35 34 35 34 33 33 33 35 35 35
42 41 40 42 41 38 34 34 34 37 37 35 33 32 28 25 25 27 24 26 27 28 29 33 35 37 39 40 39 38 38 37 37 38 36 36 37 36 36 36 38 39 38 39
45 45 44 43 42 41 39 38 40 40 40 40 37 45 30 27 28 27 27 29 28 31 32 34 37 40 44 45 42 41 41 39 37 38 37 36 36 37 38 40 42 42 42 44
45 44 45 45 44 44 44 43 43 43 43 44 44 48 38 31 31 29 30 30 32 33 33 35 37 41 45 45 43 40 37 37 37 37 37 37 37 38 40 42 43 43 45 46
48 48 47 48 48 48 48 46 45 45 45 48 47 46 47 35 30 32 31 32 35 36 36 35 38 41 45 44 43 42 36 35 35 34 37 37 37 38 40 42 43 44 45 46
50 50 49 48 48 49 50 48 46 47 49 51 50 49 50 41 38 36 35 37 39 38 38 38 41 43 41 44 42 43 40 38 37 35 36 37 39 40 42 43 44 46 47 48
51 53 52 50 48 47 46 47 48 52 52 53 54 54 50 43 45 41 41 40 42 42 42 44 47 44 43 42 40 43 40 39 39 39 38 39 40 42 45 45 46 47 47 49
52 52 51 50 49 50 52 53 51 52 53 56 56 54 52 48 44 48 47 47 48 46 47 46 49 47 39 36 38 42 40 38 37 40 40 41 43 44 45 46 47 49 50 51
51 53 53 53 53 53 54 54 55 56 57 59 59 57 53 49 50 46 52 54 50 50 54 54 47 46 37 35 39 43 40 38 37 38 40 41 42 43 44 46 47 49 51 52
53 55 57 57 57 55 54 56 57 58 59 61 60 61 53 51 52 55 53 54 54 55 56 59 51 45 38 38 43 44 45 45 43 42 42 43 43 44 44 44 45 45 47 47
56 60 63 60 58 57 56 56 59 62 61 61 59 61 53 53 55 55 55 53 55 58 61 60 48 38 38 40 43 46 47 47 47 46 46 48 49 50 48 46 46 47 47 48
48 46 52 61 65 62 61 60 58 57 59 61 61 61 52 56 56 56 55 57 58 60 60 56 53 48 44 46 45 47 47 47 45 46 47 49 51 51 51 53 53 50 50 50
55 53 48 52 53 56 61 61 58 59 60 62 62 61 56 57 56 57 59 61 64 65 62 57 58 56 52 46 47 50 52 51 51 51 52 52 52 54 55 54 52 53 53 54
68 68 60 53 54 53 53 54 54 57 60 64 65 63 64 60 62 64 65 59 56 57 53 55 57 58 58 55 50 52 52 51 49 47 49 50 53 55 55 56 57 56 55 55
69 71 70 68 63 64 69 66 62 60 58 59 60 62 62 50 51 54 55 53 55 55 56 55 54 57 57 56 55 54 51 51 51 48 45 45 45 48 50 50 52 53 53 52
60 58 52 61 62 59 70 66 64 63 63 61 64 54 46 48 48 49 49 58 57 58 58 54 55 57 59 58 58 56 52 50 46 44 41 40 39 40 41 43 45 47 49 51
71 63 63 62 63 73 80 73 70 70 69 68 70 61 52 50 54 51 57 61 59 59 61 60 58 57 57 58 58 58 57 54 51 50 48 46 45 44 43 44 45 48 50 52
71 70 73 76 71 69 68 72 70 66 72 63 65 63 62 63 64 62 54 58 59 62 61 61 59 55 52 52 54 55 55 56 54 53 53 52 49 49 50 50 50 50 52 53
66 67 68 72 76 83 81 71 62 59 74 66 70 70 68 64 71 64 61 60 62 61 60 60 61 62 62 61 62 62 62 62 61 59 58 60 60 57 55 54 52 52 53 55
70 71 74 71 70 68 65 64 68 79 80 74 73 70 66 69 69 65 65 63 65 67 63 61 61 62 65 64 62 61 62 63 63 61 62 63 61 57 57 57 58 60 61 62
72 70 69 71 73 76 71 68 71 73 73 74 77 72 67 63 65 70 70 67 66 73 74 71 69 69 69 71 71 71 73 71 67 65 66 67 67 62 62 63 63 63 64 64
75 74 72 68 66 60 58 63 63 68 70 69 72 71 79 79 73 71 69 71 69 73 78 81 80 78 78 77 77 77 79 80 79 78 76 73 71 67 64 64 62 61 61 56
73 72 74 76 77 75 74 69 59 62 63 61 58 51 60 64 66 69 66 64 70 73 79 79 78 77 78 78 77 77 76 76 75 75 73 68 63 61 60 59 59 58 54 57
70 73 74 77 77 72 71 66 61 59 61 56 65 67 68 69 68 63 62 55 52 59 67 66 66 68 71 70 69 67 64 64 63 61 53 51 50 49 51 51 53 57 61 64
62 65 69 72 68 71 72 64 58 62 65 60 63 54 50 42 47 52 55 48 46 35 35 42 40 46 48 42 38 37 39 42 48 48 46 47 48 51 54 55 57 61 65 67

GFSCGP_500_spd_057.txt.gz
Wind_Speed
37 36 35 31 34 36 34 33 31 31 30 30 27 24 24 23 17 17 16 16 16 18 22 22 23 24 25 26 27 27 28 30 30 30 32 32 32 34 34 34 33 33 32 32
38 38 35 36 35 37 36 34 32 34 35 33 32 26 27 26 22 21 20 19 21 21 24 27 29 29 29 30 31 33 35 35 35 34 33 33 36 34 35 36 37 37 37 37
41 40 37 37 39 39 36 35 34 37 38 38 35 31 31 28 25 26 22 23 24 25 27 29 31 32 34 34 35 38 39 38 37 36 35 34 34 36 37 38 39 41 41 40
45 44 40 40 41 41 40 40 39 41 42 41 38 42 34 30 29 28 26 29 27 27 29 29 31 30 34 35 37 40 42 40 38 34 33 34 36 37 38 39 40 42 42 43
45 45 42 42 42 43 45 43 43 43 44 45 43 47 37 33 32 28 31 32 32 32 33 32 33 33 33 36 38 42 44 42 42 37 32 33 35 37 38 38 41 42 43 43
47 47 46 46 44 45 47 48 47 47 47 49 47 49 47 36 36 31 34 33 34 35 35 35 36 35 36 37 41 44 43 43 44 39 35 36 36 36 37 38 40 41 42 43
49 49 47 46 46 46 48 49 49 50 52 50 52 52 50 47 39 37 36 37 36 37 39 38 38 37 39 40 43 45 45 43 43 42 36 38 39 37 35 37 40 42 43 45
51 53 51 48 47 46 46 46 48 52 54 54 57 53 48 51 45 43 41 41 41 42 42 42 43 42 41 42 44 44 41 42 42 42 39 37 39 41 40 40 41 43 44 47
51 54 53 51 49 50 52 53 49 52 55 59 59 53 52 52 50 50 44 44 47 47 45 45 46 45 45 45 43 46 45 41 44 43 44 39 37 38 39 40 40 41 42 44
50 55 55 54 52 52 53 53 56 57 59 61 60 58 55 54 54 51 52 50 50 50 49 50 48 49 50 49 48 48 48 45 44 47 47 43 40 39 40 40 41 42 43 43
49 54 57 57 58 56 55 57 58 59 60 62 61 61 56 55 56 54 54 57 56 56 54 52 52 51 52 53 53 51 48 44 42 48 50 47 45 44 45 45 46 47 48 47
57 61 59 57 59 57 57 55 58 62 61 63 62 61 54 55 56 57 57 57 57 58 59 57 57 56 55 56 58 58 52 48 46 46 50 47 45 44 46 49 50 52 52 51
46 50 55 60 66 64 60 58 58 59 60 64 64 59 51 56 57 57 56 57 59 59 60 61 58 59 59 60 61 60 54 50 50 50 48 48 49 50 52 51 53 55 55 54
50 49 52 56 53 59 65 67 63 61 62 62 64 59 53 57 59 57 57 58 61 62 60 61 62 63 64 65 63 62 55 50 49 49 47 45 48 51 54 52 53 55 55 55
63 59 57 58 60 58 57 55 54 60 65 69 67 62 63 58 57 58 59 59 57 59 65 66 64 64 66 64 64 61 60 53 47 48 49 48 49 49 50 50 51 51 53 54
68 70 66 61 60 61 63 60 58 58 58 62 65 68 57 58 58 57 60 62 64 65 66 63 62 61 62 60 59 57 55 55 51 49 50 51 50 49 48 47 46 47 48 48
70 72 74 77 76 78 81 66 65 64 63 63 66 60 55 56 56 54 53 57 63 63 57 57 59 60 59 60 58 59 57 57 57 56 54 51 48 47 48 48 46 47 49 49
72 72 70 72 75 78 80 78 76 76 74 72 71 69 65 61 58 55 56 63 56 57 57 58 60 60 62 61 59 59 61 61 61 59 54 50 50 50 50 48 47 48 50 51
65 66 70 71 78 80 78 74 70 63 74 69 68 66 70 70 67 68 62 66 66 64 63 64 65 65 65 63 62 62 62 62 62 62 59 56 55 55 54 53 54 54 55 56
66 67 70 70 74 78 76 72 71 75 79 72 73 75 70 67 73 73 68 69 69 67 68 70 69 68 69 69 69 67 66 65 64 64 66 67 65 60 57 57 58 59 59 59
68 69 71 72 75 77 68 65 65 74 79 79 79 78 79 81 80 76 73 73 72 72 70 72 75 74 73 74 72 71 70 68 67 66 67 68 66 65 64 66 66 65 64 65
72 72 72 73 73 75 67 65 71 73 78 75 71 71 70 70 69 73 76 78 78 80 79 79 78 75 73 69 71 74 75 75 75 73 72 72 73 74 76 77 74 73 75 76
76 75 74 73 71 68 65 62 59 64 73 74 71 71 73 73 72 72 72 74 74 76 77 80 80 79 79 82 82 82 81 80 79 81 82 81 81 80 80 76 75 72 72 73
72 72 77 78 78 76 74 70 63 55 53 53 63 67 65 67 67 65 65 65 65 66 67 72 74 75 76 77 79 82 83 82 79 79 78 78 78 77 74 75 65 60 60 59
69 70 72 75 77 76 75 74 76 77 78 77 75 71 74 73 64 62 62 62 60 58 59 59 60 69 61 67 69 70 70 68 66 65 64 62 62 61 58 56 52 48 46 46
63 66 67 70 67 70 73 70 70 75 76 76 77 74 72 72 65 60 57 55 56 55 58 61 62 68 62 52 49 43 45 47 51 50 43 38 41 41 44 46 48 47 49 49

GFSCGP_500_spd_060.txt.gz
Wind_Speed
34 33 32 29 31 33 35 34 32 33 31 29 30 25 23 23 20 17 18 16 14 15 18 18 17 19 20 22 23 24 26 27 28 28 28 28 27 28 28 31 32 33 34 34
36 34 33 33 33 34 35 36 32 32 33 33 32 28 25 25 23 22 19 18 18 19 21 22 22 23 24 25 26 26 27 28 30 31 31 30 29 30 30 30 35 36 37 38
39 38 37 35 35 36 37 37 33 34 37 33 36 30 28 28 26 24 21 22 22 23 24 25 25 24 24 25 27 28 29 30 32 36 34 33 30 32 32 33 37 38 39 39
40 42 40 38 37 38 38 38 38 37 39 38 37 37 31 29 28 26 25 26 26 27 27 27 28 27 26 28 29 31 31 32 35 38 37 36 35 32 33 34 35 38 39 41
42 41 41 40 39 40 41 40 40 39 42 41 39 42 29 30 32 30 27 29 30 30 30 32 31 33 29 31 33 33 33 34 38 40 41 38 38 33 34 34 34 36 39 41
45 44 44 42 43 43 43 43 43 42 44 44 40 41 42 30 33 32 31 33 33 33 34 35 35 34 35 35 37 36 36 39 41 43 42 41 39 37 35 35 34 36 38 40
49 48 45 43 43 45 45 45 44 45 47 46 47 44 47 40 34 36 35 37 38 36 38 38 38 36 38 38 39 39 40 41 42 43 44 44 42 40 38 36 35 39 40 40
52 54 51 46 44 44 44 45 45 48 48 48 50 47 45 48 43 39 41 41 41 41 40 42 43 41 42 43 43 42 43 43 44 45 45 43 44 43 41 37 36 40 40 42
52 54 53 50 48 48 49 50 46 49 50 53 52 47 49 49 50 50 46 44 43 43 44 45 46 46 46 46 48 47 47 46 45 44 45 42 41 41 42 40 38 38 38 41
51 53 56 56 53 52 53 52 52 53 55 56 54 51 48 49 51 52 54 53 49 46 46 48 48 49 50 50 51 51 51 49 47 46 46 44 43 43 45 43 41 43 44 44
51 50 54 57 58 53 51 53 55 55 55 57 57 55 51 49 51 53 55 56 55 54 51 51 52 53 54 53 52 52 53 52 50 51 48 48 44 44 45 41 41 44 46 46
53 52 56 55 54 53 53 53 56 59 58 59 58 56 52 51 54 56 56 55 56 54 57 58 55 55 56 55 53 53 54 54 53 52 54 48 45 45 48 49 49 51 51 50
47 52 60 57 57 57 53 52 52 54 55 58 60 53 49 54 55 55 55 56 56 59 58 59 57 57 56 57 56 57 56 55 54 55 54 51 49 47 47 49 52 55 54 50
46 45 43 45 51 56 58 58 59 59 62 59 61 58 54 53 54 55 56 57 59 61 60 59 61 61 60 61 61 59 58 59 58 55 53 52 49 49 47 48 50 49 49 49
56 52 50 49 48 48 50 50 53 58 59 66 60 65 55 55 54 57 57 59 60 62 65 64 58 58 60 63 65 66 65 61 59 57 53 50 49 48 47 49 50 49 50 48
69 65 63 63 58 61 58 53 56 59 57 59 57 59 46 53 60 63 61 63 65 68 69 69 67 64 64 65 67 66 66 63 59 56 52 52 50 50 50 51 51 51 49 49
64 66 68 69 66 65 67 59 59 60 61 59 60 58 54 56 57 59 60 62 66 69 67 66 66 66 66 63 60 62 61 62 58 56 56 55 55 54 55 56 53 50 50 52
64 64 64 69 70 72 68 63 64 69 66 62 63 67 65 64 62 62 63 64 64 61 62 63 64 64 65 65 64 62 61 60 61 60 59 58 59 60 59 59 58 55 53 52
59 57 60 64 70 74 74 67 70 74 77 77 75 74 75 75 74 69 69 68 71 71 69 69 66 66 69 70 71 70 68 68 68 67 66 66 65 65 64 63 63 61 61 61
55 57 60 62 67 73 73 65 62 64 74 77 77 75 76 77 76 73 71 72 76 78 79 76 76 76 75 75 75 75 75 72 71 71 70 70 70 70 69 68 67 68 66 64
59 61 63 62 66 70 65 64 61 68 69 68 71 72 72 74 77 76 75 75 76 80 81 81 82 82 82 82 81 79 78 78 77 76 74 73 73 72 72 73 73 72 72 72
65 66 67 68 71 73 59 60 67 70 69 69 69 67 69 69 69 71 72 72 77 80 82 82 81 79 78 78 78 79 82 82 81 81 80 78 76 76 76 76 77 77 76 75
72 69 69 71 72 71 68 67 71 74 73 71 70 67 69 71 70 70 72 71 71 72 73 74 74 73 72 72 75 77 78 76 75 76 78 77 80 81 79 79 78 77 71 69
75 71 74 74 74 73 72 72 74 77 78 76 75 73 71 71 74 75 73 71 70 68 67 69 70 70 71 69 67 65 68 69 70 68 67 72 71 70 72 67 61 59 61 60
71 72 72 76 74 75 73 71 72 72 73 75 75 74 73 72 72 73 70 69 72 74 72 69 68 66 67 66 64 63 66 69 63 64 65 62 64 63 56 54 50 47 43 39
67 67 69 72 68 71 71 67 68 71 72 71 71 71 71 73 74 73 70 73 78 76 73 69 67 64 58 61 62 55 53 55 63 65 66 59 53 51 50 39 35 35 40 45

GFSCGP_500_spd_063.txt.gz
Wind_Speed
31 31 29 27 30 31 30 30 31 32 31 31 31 29 26 25 21 18 18 17 14 15 16 14 13 15 14 16 17 17 17 19 20 21 21 22 23 25 26 27 30 32 32 32
32 31 30 30 30 30 30 31 31 32 33 32 33 29 27 26 21 20 19 18 19 18 19 18 17 16 18 19 18 19 19 19 22 22 23 25 27 27 27 29 31 36 37 34
33 33 32 32 31 31 31 31 32 33 34 32 33 32 29 27 24 22 21 22 23 23 22 22 21 20 20 21 23 22 22 23 25 25 26 28 29 30 30 31 31 36 37 35
36 36 35 34 33 33 33 33 34 35 36 35 34 33 29 26 27 24 24 26 27 26 25 25 25 25 24 26 27 27 26 27 26 29 29 31 31 31 33 34 33 35 37 36
40 38 36 34 35 37 36 36 36 37 37 37 34 38 23 28 28 27 27 28 28 29 29 29 29 29 29 28 29 30 30 31 30 32 32 34 35 36 35 34 35 36 39 40
44 42 41 40 38 39 40 40 40 39 39 40 37 37 33 27 28 30 29 30 32 33 33 33 34 34 34 33 33 33 34 35 36 36 36 36 36 38 38 36 34 34 37 42
47 46 44 43 41 41 41 42 42 43 42 41 42 40 43 34 31 32 31 32 34 36 37 37 38 38 38 38 37 37 38 39 39 40 40 39 39 40 38 37 38 34 35 39
50 50 48 47 45 42 42 43 43 46 45 43 45 43 43 45 36 36 38 38 36 37 38 40 41 40 43 42 42 41 42 43 43 44 44 42 42 42 42 39 37 38 36 38
52 53 52 50 50 48 47 48 46 46 47 48 47 44 43 45 45 39 40 41 42 42 42 43 43 44 45 44 44 45 46 47 48 49 48 46 44 43 42 41 40 39 38 40
53 57 58 56 54 55 53 51 50 50 52 52 51 48 46 46 47 47 44 45 45 46 47 46 46 46 47 48 49 50 51 51 52 53 52 49 45 45 43 42 42 43 43 41
48 52 55 54 56 54 52 52 52 52 52 54 55 51 49 48 50 52 52 51 51 50 49 49 49 48 49 51 52 53 54 55 55 55 54 51 48 47 45 43 42 45 49 52
43 45 48 49 51 51 53 55 55 56 55 54 56 57 51 52 53 54 55 56 56 55 52 51 50 51 51 51 52 55 56 56 55 54 53 52 53 50 48 49 48 48 49 53
48 50 47 50 53 55 54 52 49 50 53 56 57 56 51 57 57 57 56 56 53 52 53 53 51 50 51 53 54 54 55 56 56 54 53 52 50 51 54 55 52 52 52 52
54 53 53 52 51 55 57 55 54 52 56 56 57 54 51 54 52 51 53 54 55 57 59 59 57 57 58 58 59 60 58 56 55 54 54 56 57 55 54 53 54 51 48 48
51 51 52 51 51 55 53 46 51 59 61 62 58 60 54 53 55 57 57 57 58 58 60 63 63 62 61 62 61 61 62 61 62 62 60 57 57 55 55 51 51 51 49 49
57 54 54 56 54 56 51 46 49 49 51 53 52 53 46 51 54 58 60 61 64 66 67 68 68 68 68 63 59 58 64 66 64 60 59 58 58 58 55 53 52 53 53 54
57 58 57 57 59 64 61 51 54 52 54 55 58 54 52 50 53 57 58 58 59 60 61 62 64 65 64 65 66 61 57 57 59 60 60 60 60 60 60 59 58 57 58 59
50 55 59 59 65 69 65 64 62 63 64 61 59 58 54 58 58 59 61 63 64 64 63 64 65 67 69 69 68 67 66 65 62 60 60 61 62 64 65 66 66 66 67 67
55 56 56 57 63 67 67 68 68 65 66 63 63 63 65 65 63 61 64 67 68 71 72 72 71 71 72 73 75 75 74 73 71 71 71 69 68 69 68 68 68 68 69 71
52 53 54 58 62 65 68 60 57 58 68 69 64 64 67 70 73 72 76 78 80 81 82 82 82 82 81 80 80 81 82 83 81 81 80 78 77 76 75 74 74 75 75 74
51 52 54 53 57 61 65 60 56 60 62 63 65 63 62 66 69 70 72 75 77 76 75 77 82 82 82 85 86 85 84 81 81 80 80 81 81 77 75 73 76 77 76 74
57 57 58 59 61 62 52 58 63 64 64 62 62 61 63 64 64 65 66 68 69 71 72 73 74 75 77 78 78 78 76 76 75 73 73 73 72 73 73 73 72 72 73 74
65 63 62 64 66 63 59 62 67 69 69 68 68 68 70 71 69 68 67 67 68 70 71 72 72 72 72 73 74 74 75 75 72 71 70 70 69 70 69 67 68 67 63 66
69 68 70 70 69 69 69 69 72 76 76 74 74 76 77 77 77 77 77 76 76 77 78 79 79 79 77 78 78 78 76 74 72 72 71 70 69 68 68 68 66 60 64 58
72 73 73 76 73 72 70 72 74 76 77 78 78 78 78 79 79 79 80 80 80 79 80 82 83 83 83 82 81 80 80 79 78 75 72 69 63 62 60 60 59 60 58 58
68 69 71 74 73 77 77 72 71 73 73 73 74 76 77 78 78 77 77 78 79 79 78 79 79 79 80 80 79 80 81 77 75 70 65 62 54 54 55 55 50 47 44 49

GFSCGP_500_spd_066.txt.gz
Wind_Speed
34 33 30 29 30 32 30 30 29 30 31 31 31 28 29 29 24 23 22 20 18 17 19 16 14 13 11 12 13 15 16 20 17 17 17 16 16 19 20 22 24 25 25 27
33 32 32 32 32 32 32 30 30 31 32 31 33 29 30 30 26 25 24 22 23 22 21 19 17 15 15 16 16 16 17 19 20 21 22 19 19 20 22 24 25 28 29 29
33 34 33 32 33 32 31 31 31 32 32 32 33 31 31 31 28 27 26 25 26 25 24 22 20 20 20 21 22 20 20 21 23 25 25 24 23 23 25 26 27 28 30 32
37 36 34 34 34 32 31 31 31 32 33 33 32 32 28 30 29 29 29 29 28 27 26 26 26 25 24 25 26 25 25 25 26 26 27 28 28 28 29 29 31 32 31 31
39 36 35 35 33 33 33 33 33 33 33 33 32 34 24 27 29 30 31 30 29 30 30 31 30 28 28 29 30 30 30 30 30 30 31 32 33 32 31 34 34 35 35 35
43 41 40 38 36 36 36 36 36 36 35 36 34 34 30 27 28 30 31 31 32 34 34 34 35 34 35 35 35 34 34 35 35 35 36 37 37 37 35 36 37 36 36 35
47 44 42 40 39 39 39 38 38 38 39 38 38 36 38 34 32 31 33 35 37 38 38 39 40 40 40 40 39 38 39 40 39 39 41 42 41 41 39 39 40 40 40 39
50 49 46 44 43 42 42 41 41 41 41 40 41 39 39 41 35 36 37 37 38 40 41 42 43 44 45 44 43 43 43 44 45 45 45 45 45 44 44 42 43 42 42 41
52 52 51 49 48 49 48 46 44 45 46 46 44 41 41 42 45 40 40 42 42 43 43 45 46 45 45 46 47 48 48 48 48 48 48 47 48 48 46 44 44 44 43 43
55 54 53 53 52 52 52 49 48 50 50 51 50 47 47 47 46 46 42 46 46 46 47 46 47 45 46 47 49 50 50 50 51 51 50 50 50 49 48 46 44 45 47 46
56 57 57 58 58 55 55 55 54 53 53 54 53 51 51 52 52 52 52 49 48 48 49 49 49 49 48 49 50 52 53 54 55 54 54 53 52 52 51 49 48 48 49 48
49 54 58 57 56 56 55 56 56 57 57 57 57 57 56 56 56 57 57 55 55 54 52 51 51 52 53 53 53 54 54 55 55 55 55 55 53 52 51 52 52 52 51 52
48 57 55 56 57 59 60 57 54 54 54 58 58 57 59 59 57 57 56 57 56 55 55 54 55 54 54 54 55 55 54 53 53 53 53 53 54 53 51 51 52 55 57 56
52 53 54 55 52 51 52 51 50 50 53 55 56 53 56 54 54 55 56 57 58 59 58 57 56 55 55 54 55 55 55 55 54 52 52 55 56 57 57 58 55 52 54 53
52 53 53 54 55 55 55 53 52 53 56 60 58 58 55 53 52 54 56 56 56 58 59 60 60 60 58 57 58 58 59 60 60 61 62 59 58 59 57 54 53 54 53 52
45 53 57 56 55 56 58 55 54 56 57 55 54 52 53 57 57 60 60 60 62 64 64 64 65 67 67 66 65 64 65 65 64 62 61 61 61 60 57 55 57 56 55 54
53 53 53 55 54 54 58 54 53 52 53 53 55 48 49 52 55 56 57 58 59 59 60 60 61 62 62 63 62 62 59 57 58 60 62 62 62 61 60 61 62 62 62 63
56 57 57 57 58 60 57 55 55 57 58 58 60 56 57 57 55 57 60 61 62 63 63 63 64 65 65 66 66 66 68 68 68 69 68 66 66 67 68 69 69 69 70 71
63 61 59 58 61 65 61 61 63 64 63 62 64 64 64 61 63 65 66 67 69 70 71 71 71 72 72 72 72 73 74 76 78 79 78 79 78 77 76 75 75 78 78 78
57 57 56 58 62 66 64 60 60 64 67 66 66 67 67 68 71 69 72 74 75 76 76 76 77 78 80 81 81 81 83 85 86 86 85 85 85 84 82 80 79 78 77 76
53 54 56 56 58 63 63 63 59 59 63 63 66 66 66 68 70 69 70 70 72 72 73 75 77 76 77 79 81 82 82 81 80 78 77 76 77 79 79 79 77 75 72 69
51 51 53 54 57 63 61 59 60 59 60 61 63 65 65 65 65 65 66 67 67 68 69 70 72 73 74 75 77 78 77 77 77 77 77 76 75 73 73 73 73 71 69 69
57 57 57 58 58 56 59 63 65 64 62 62 62 62 64 66 65 65 66 67 69 71 71 72 73 73 73 76 78 78 79 80 81 81 82 82 80 79 78 75 74 73 72 70
63 62 64 64 62 63 64 66 69 71 71 71 70 71 71 71 71 71 71 71 72 73 76 77 79 80 80 81 83 84 85 86 86 86 86 86 85 83 81 79 77 76 73 70
67 68 68 71 68 69 70 72 74 77 77 77 77 77 78 79 79 80 80 80 80 80 80 81 83 83 83 83 83 84 85 84 84 84 84 85 84 82 80 76 73 68 64 62
58 60 67 70 73 76 76 75 75 78 80 81 82 81 82 84 84 84 83 83 84 83 82 81 80 79 77 76 74 74 74 74 74 74 75 75 74 73 73 70 69 63 59 50

GFSCGP_500_spd_069.txt.gz
Wind_Speed
38 37 35 31 33 35 34 31 30 30 30 30 31 30 31 29 25 25 23 22 21 18 21 19 21 19 18 18 17 17 15 17 15 15 16 16 17 16 17 17 18 19 19 21
38 37 36 36 36 35 33 32 30 30 30 30 30 28 31 31 28 26 26 25 25 22 24 24 22 20 19 20 20 20 21 21 19 17 19 19 20 21 22 22 22 22 23 23
38 37 37 36 36 36 34 32 32 32 32 32 31 28 29 30 29 27 27 29 28 26 26 26 24 24 24 23 24 24 23 23 24 25 24 24 23 23 25 27 28 28 29 29
40 39 36 36 37 37 34 33 33 34 34 33 32 30 28 30 30 29 31 30 30 29 28 29 29 29 28 28 28 27 27 27 28 29 30 29 28 28 30 30 31 32 33 34
38 37 37 37 36 37 36 36 35 35 35 34 31 33 25 27 28 33 33 33 32 33 32 32 33 33 33 33 32 32 32 32 32 32 33 34 34 33 33 35 36 37 37 37
43 42 40 38 38 38 38 37 37 37 35 34 31 33 28 26 28 31 32 33 33 35 36 36 37 37 37 37 36 37 37 37 37 37 37 38 38 38 39 40 42 42 41 42
45 44 42 42 41 40 40 39 38 37 37 35 34 33 32 31 31 30 31 32 35 36 39 40 40 40 40 41 41 42 42 43 43 42 42 42 43 43 44 45 46 46 46 46
50 49 46 44 41 40 41 39 40 39 38 38 38 35 35 38 35 36 36 36 36 39 40 42 44 44 45 45 47 47 47 47 48 48 48 48 48 48 49 48 49 48 48 48
55 53 50 48 47 46 45 43 42 42 42 42 41 39 38 39 42 40 40 40 40 41 43 45 47 48 48 49 49 49 50 50 50 50 51 51 51 50 51 50 49 50 49 49
57 54 53 52 52 52 51 49 48 47 47 46 45 44 44 44 46 48 45 43 43 45 45 46 48 50 51 52 51 52 53 53 52 53 52 52 53 53 51 49 49 51 50 49
58 58 58 57 57 55 55 54 52 51 51 51 50 49 50 51 50 49 51 50 49 48 48 49 50 48 49 50 51 51 52 52 52 53 53 53 52 51 50 49 48 48 48 48
58 60 60 59 57 57 57 57 57 57 55 54 54 55 55 56 56 55 55 55 55 53 53 52 52 53 53 53 54 55 55 54 55 55 55 55 53 52 51 50 51 50 49 50
59 63 62 62 63 63 63 61 60 60 59 59 59 58 60 59 59 59 59 60 59 59 58 58 57 57 55 56 58 58 58 57 58 58 59 58 56 57 57 57 56 54 55 56
54 57 60 61 59 58 58 58 58 58 59 60 59 57 59 59 59 60 61 61 61 61 61 60 59 58 59 58 58 59 60 60 59 59 59 59 59 59 59 60 60 62 61 59
60 61 60 59 59 60 60 58 56 57 57 59 57 56 54 56 56 56 57 60 60 59 58 59 58 57 57 57 57 58 60 61 63 64 64 64 64 64 64 64 63 58 57 58
53 52 53 54 54 56 58 57 58 60 61 61 59 56 50 50 54 58 62 65 65 65 64 64 64 64 63 63 63 63 64 64 62 62 61 60 60 58 57 58 61 62 63 63
48 49 47 49 50 53 58 54 56 57 55 55 54 50 54 57 59 60 60 60 61 63 65 66 66 66 65 64 62 59 58 59 60 61 62 62 62 63 64 66 65 65 68 69
50 51 48 49 52 57 56 56 56 59 57 56 54 54 54 56 57 58 57 58 59 60 62 64 63 63 63 63 63 64 66 66 66 66 67 68 70 70 71 72 75 76 77 78
53 54 56 56 59 59 58 59 58 56 56 55 54 56 56 57 59 61 62 63 64 66 68 68 68 69 69 70 70 71 73 75 76 77 78 79 79 79 79 80 81 81 81 81
66 64 62 62 61 62 58 60 63 65 64 60 59 59 60 62 65 66 68 69 71 73 74 74 75 76 77 78 79 81 81 81 80 79 80 80 81 81 82 81 81 81 81 80
65 65 65 64 66 69 65 66 68 70 66 64 63 64 65 67 68 69 71 71 72 73 76 79 81 81 81 82 83 83 82 81 81 80 80 80 80 79 78 78 77 77 78 79
59 58 58 58 59 66 68 64 62 60 59 64 65 64 63 64 65 67 70 71 72 72 72 74 75 75 76 77 77 77 77 77 78 79 79 80 80 81 82 83 84 84 84 84
52 53 54 55 55 54 57 59 62 62 63 62 63 64 64 64 65 67 68 69 70 71 72 73 73 73 74 75 77 77 78 80 81 83 84 85 86 87 87 88 88 88 88 87
51 52 53 53 54 55 56 60 62 63 63 64 64 65 65 66 66 66 67 68 70 72 73 74 76 77 77 78 80 82 84 85 87 88 88 89 89 88 88 87 85 83 81 78
58 58 58 59 58 60 61 64 66 68 70 70 71 71 72 74 72 74 74 75 77 77 78 80 81 83 83 84 84 86 86 86 85 85 84 82 81 79 78 77 76 75 75 74
59 60 62 63 64 67 69 72 73 74 74 75 76 78 80 82 82 82 81 82 84 86 87 88 88 88 87 86 84 83 84 83 82 80 79 78 78 77 77 76 76 74 70 66

GFSCGP_500_spd_072.txt.gz
Wind_Speed
42 41 38 32 35 35 36 34 32 31 30 29 28 27 27 26 23 25 22 22 21 21 22 20 21 22 20 20 21 21 19 20 18 18 18 17 17 17 18 19 20 21 21 21
42 39 37 39 39 39 37 34 33 32 31 31 29 26 28 28 26 26 26 27 25 25 26 24 22 22 23 23 24 22 24 22 21 20 21 19 21 21 22 23 23 24 25 26
39 37 38 39 38 37 36 34 33 33 32 31 29 25 26 28 26 27 29 30 28 27 28 26 25 26 25 26 27 27 26 25 25 24 23 24 24 25 27 28 29 29 29 30
42 40 39 39 38 37 36 35 35 35 34 33 30 28 26 27 27 28 30 29 30 30 30 30 29 27 29 30 30 30 30 29 29 29 28 29 29 29 31 32 33 34 36 36
41 36 39 39 39 39 38 36 37 37 36 35 31 33 26 27 29 31 30 31 31 32 32 32 32 31 32 33 35 34 34 34 34 35 34 34 34 35 36 37 37 38 39 41
43 43 43 42 41 41 40 39 39 38 38 36 33 33 28 28 28 30 31 31 32 32 33 34 34 35 35 36 36 37 38 39 39 40 39 40 40 41 41 43 43 43 44 46
45 46 44 42 41 43 41 41 39 39 39 38 35 34 32 31 29 28 30 32 32 33 32 34 36 39 39 39 39 40 42 43 44 44 44 44 45 46 48 48 49 50 51 52
42 43 41 40 41 39 38 39 38 40 40 40 39 37 37 33 32 32 31 31 32 34 35 36 36 38 41 42 42 43 44 46 47 48 48 48 49 51 52 53 53 54 54 54
50 48 45 44 43 42 41 42 41 40 40 41 41 39 38 37 35 34 33 33 34 35 37 38 39 40 42 44 45 47 48 48 49 49 50 52 53 54 55 55 55 54 54 55
53 55 54 48 47 47 44 44 44 44 43 43 42 41 42 42 41 40 39 37 37 37 37 39 41 42 45 46 47 48 50 51 51 53 54 55 56 54 53 54 56 57 57 55
57 56 61 55 52 48 49 50 49 47 47 47 47 47 48 46 45 44 44 44 44 44 44 44 44 44 44 45 46 46 47 49 51 53 52 53 53 53 54 54 55 56 55 54
60 63 60 62 54 52 53 53 53 53 52 52 51 50 51 52 51 50 50 51 51 50 48 48 48 49 49 50 51 53 53 54 54 54 54 54 54 55 55 55 54 54 54 54
59 61 60 62 64 64 62 58 57 55 55 54 54 54 56 57 57 56 55 55 55 56 57 56 56 56 56 55 56 57 57 57 57 58 59 59 58 56 55 57 57 58 58 58
61 62 64 63 62 60 61 62 61 58 59 58 57 56 58 57 58 59 58 59 60 59 59 60 61 60 59 59 58 58 59 59 59 60 60 60 59 59 59 60 62 64 65 65
60 63 63 65 66 66 63 62 61 62 60 62 58 58 58 59 61 62 63 62 62 62 62 63 62 60 58 57 57 58 59 60 60 61 62 64 66 65 65 64 62 60 59 58
63 61 59 59 60 61 63 62 61 62 62 61 59 57 55 57 58 59 59 60 60 61 62 61 60 60 61 62 63 64 64 64 63 63 62 61 60 59 59 60 62 63 63 63
55 57 59 61 62 61 62 61 58 57 57 56 58 54 53 53 53 56 60 60 61 61 61 62 62 62 61 60 60 59 59 60 60 60 61 62 63 64 66 67 68 70 72 73
51 50 52 54 54 57 57 56 55 55 54 54 52 50 52 54 55 55 57 59 61 62 62 61 60 61 61 62 62 62 63 63 64 66 67 69 70 71 73 75 76 77 77 78
51 50 54 54 52 54 54 54 52 51 49 49 50 52 54 56 57 58 57 58 59 61 62 63 64 64 66 67 68 70 72 73 74 75 76 78 79 80 81 81 81 81 81 79
57 58 56 55 57 56 53 54 55 54 53 50 52 52 52 54 56 58 60 61 63 64 65 67 68 71 73 74 75 77 78 79 80 83 85 87 88 88 87 87 85 83 83 83
55 59 58 57 64 61 60 57 56 57 53 55 55 56 57 59 62 65 67 68 69 71 73 74 75 76 77 78 79 80 82 83 84 84 85 86 86 85 86 86 86 87 87 88
62 60 60 61 60 61 59 59 60 60 62 64 66 68 69 70 71 71 71 70 70 71 72 74 75 76 78 79 80 81 81 83 83 83 83 84 85 85 86 87 88 89 90 90
69 65 66 66 69 68 72 71 71 70 70 70 71 70 69 68 68 68 69 70 71 72 72 73 73 74 74 76 78 79 81 82 83 84 85 86 87 88 90 91 92 93 94 93
61 63 61 62 63 62 63 67 66 63 61 62 64 63 63 62 63 63 63 64 66 67 69 71 73 75 76 78 81 84 86 88 89 89 90 92 93 94 94 94 93 92 90 88
57 54 59 58 58 56 57 58 59 58 59 59 59 60 61 61 62 63 65 68 70 72 75 77 79 81 82 84 85 88 91 93 93 93 94 95 96 95 94 92 91 89 87 85
58 56 55 53 53 56 57 59 59 60 61 61 62 64 66 67 68 69 69 71 72 74 76 77 79 81 82 84 85 86 89 91 91 90 90 91 91 90 89 88 84 83 80 77

GFSCGP_500_spd_075.txt.gz
Wind_Speed
48 48 44 38 38 36 36 35 34 31 28 26 25 24 23 23 20 21 22 22 21 21 20 19 18 16 18 20 22 21 20 21 18 18 19 17 18 18 19 20 21 21 21 22
46 43 39 42 40 39 39 37 34 32 30 29 27 26 26 25 23 26 26 25 25 25 24 21 20 20 19 21 24 24 25 25 24 22 21 19 21 21 23 25 26 26 26 26
42 38 41 41 40 39 38 36 34 33 33 32 30 27 27 27 26 27 28 28 27 27 26 25 24 23 23 24 25 27 26 26 26 26 25 26 25 25 27 28 29 30 31 32
42 41 42 41 40 39 37 37 36 36 36 34 31 29 27 27 28 26 25 27 28 28 28 27 27 27 27 27 28 28 30 30 30 29 29 30 30 31 32 32 33 35 36 37
42 40 41 40 37 38 38 39 38 37 37 36 32 31 27 28 29 27 27 27 28 28 29 30 30 30 30 30 31 32 33 33 34 34 34 35 35 37 37 37 38 39 42 43
42 42 42 40 40 41 40 39 39 39 39 38 34 34 29 29 30 30 30 29 28 29 29 30 31 32 32 32 33 34 35 36 37 38 38 39 40 41 41 42 44 45 47 47
47 45 42 42 42 43 42 40 42 40 40 40 35 36 33 31 30 30 31 31 29 28 30 30 31 31 33 33 34 35 36 38 40 41 42 43 44 44 45 46 48 49 51 52
44 43 42 43 42 40 38 39 38 40 41 41 39 40 38 33 31 29 30 31 30 30 30 31 31 32 32 33 35 36 38 40 42 43 45 47 47 48 49 50 52 53 54 55
41 41 42 41 40 39 39 38 39 41 40 42 43 39 38 36 34 33 32 33 32 32 32 32 33 34 36 36 38 39 40 42 44 46 47 48 49 50 52 54 55 56 57 58
44 43 42 40 38 39 37 39 40 41 41 41 40 38 37 38 37 37 35 34 34 34 34 34 34 36 36 38 40 42 43 44 45 47 48 49 51 51 52 53 55 56 56 56
50 50 45 45 44 42 41 42 42 41 42 39 39 40 39 39 39 39 39 39 38 38 38 39 39 39 39 39 40 41 42 44 45 46 47 49 51 53 54 54 54 55 57 58
53 53 53 51 50 46 44 45 43 43 42 42 42 44 45 44 44 45 45 44 45 45 44 44 44 45 46 47 47 48 47 49 50 51 53 53 53 54 55 55 57 58 58 58
57 57 59 62 61 60 57 51 50 48 48 47 48 45 47 48 49 49 50 50 50 50 52 53 53 54 54 53 54 53 53 54 55 56 56 57 57 57 58 59 58 58 58 59
57 59 66 61 54 56 58 52 58 57 53 51 47 46 48 49 51 51 53 54 55 56 57 57 57 57 57 57 56 54 54 55 55 56 55 55 56 57 58 60 61 63 65 65
59 56 56 57 57 57 55 54 54 55 57 61 59 55 53 53 54 57 58 59 59 59 58 59 59 59 58 57 56 55 55 56 57 57 57 57 59 61 62 63 63 63 63 61
58 63 62 62 60 59 60 62 60 58 59 59 57 56 57 62 63 60 58 58 58 58 58 58 57 57 56 57 58 58 58 58 59 59 58 57 57 58 59 60 61 63 63 64
59 58 57 62 65 68 70 64 63 61 62 62 63 57 58 57 58 57 56 57 57 57 56 57 58 59 58 58 60 60 59 58 58 58 60 61 62 64 65 67 69 71 72 73
66 64 59 57 58 63 61 60 60 60 58 57 56 54 53 56 56 55 56 56 54 54 55 56 56 57 58 59 60 60 61 62 62 63 65 67 69 71 73 74 75 77 78 80
49 52 57 58 59 59 61 62 62 59 57 54 56 58 57 55 53 52 50 49 51 53 55 57 59 60 60 60 61 63 65 67 69 71 73 75 77 77 79 80 81 82 83 84
51 53 51 53 55 54 49 50 50 50 53 51 51 49 48 47 48 47 50 51 52 53 55 56 59 61 63 66 68 70 73 74 76 77 79 81 82 82 83 84 86 87 88 88
53 51 55 54 55 53 50 49 51 52 48 46 46 47 49 50 50 51 52 54 56 58 59 61 65 68 71 73 75 76 78 79 80 82 84 84 86 87 89 90 91 92 92 92
56 54 55 57 53 51 53 54 55 54 54 52 51 53 54 54 54 55 57 59 61 64 68 70 73 73 74 76 78 79 81 82 84 85 87 87 88 89 90 91 92 93 94 94
56 54 55 53 58 54 56 58 61 60 59 58 58 59 60 59 60 63 65 67 69 71 72 73 74 74 75 77 78 78 81 83 84 85 85 87 88 90 92 93 93 94 94 94
60 55 57 52 44 58 63 62 61 60 59 59 61 63 66 69 69 70 69 68 67 69 69 70 71 72 73 75 77 80 82 84 85 86 87 89 90 91 93 94 95 97 96 96
68 65 66 68 69 69 68 67 67 68 70 70 66 67 68 69 70 69 68 68 67 67 68 70 72 73 75 77 79 81 82 84 85 87 89 91 92 93 94 95 96 96 94 92
71 68 66 66 61 62 64 67 67 66 64 63 63 63 65 66 66 65 64 65 66 69 72 73 73 73 75 77 81 84 86 87 89 89 91 92 94 94 95 94 91 89 88 87

GFSCGP_500_spd_078.txt.gz
Wind_Speed
58 55 53 50 44 40 38 38 39 37 35 33 30 28 26 24 23 22 21 20 20 21 18 17 16 16 16 18 21 22 22 22 20 20 20 20 19 18 19 21 22 22 22 23
55 54 49 46 46 43 42 42 41 39 36 34 32 30 28 26 27 25 25 24 24 25 22 21 20 20 20 20 20 22 25 25 25 24 24 23 22 23 23 24 25 26 26 27
56 50 47 47 46 44 44 42 40 37 36 35 32 31 29 27 28 26 26 26 26 27 27 26 25 24 24 23 23 24 26 27 27 27 26 26 26 27 28 28 29 30 31 32
50 45 45 48 46 46 43 42 40 39 40 36 35 34 31 30 29 29 28 27 27 27 28 28 27 28 28 27 27 27 27 29 29 29 29 30 30 32 33 34 34 35 36 37
48 47 49 49 46 42 41 42 41 41 41 39 37 36 31 32 31 30 28 27 27 27 27 28 28 29 29 30 30 30 30 31 32 32 33 34 33 35 36 38 38 40 41 42
47 46 47 46 45 44 43 43 42 42 42 43 38 37 33 33 32 31 30 29 28 28 29 29 30 30 30 31 32 33 32 33 34 35 37 38 38 39 41 42 43 44 45 47
51 51 50 47 47 47 45 45 44 44 45 44 37 38 33 35 33 33 32 31 30 30 29 29 30 31 32 33 34 34 35 36 37 38 40 41 42 43 45 46 47 48 50 51
51 49 48 48 48 46 45 44 42 42 42 41 39 41 38 36 35 35 33 32 31 31 30 30 31 31 32 33 33 34 36 37 38 39 41 43 45 46 47 49 50 51 53 54
47 50 49 48 46 45 44 43 41 42 44 43 43 42 40 37 36 35 35 34 33 32 31 32 32 33 34 35 36 37 38 39 40 41 42 44 46 48 49 50 52 54 55 57
46 47 48 47 46 47 45 42 43 44 45 45 45 43 41 37 35 35 36 36 36 35 33 32 32 34 36 38 38 39 40 41 42 43 45 47 48 49 49 50 51 52 54 57
46 47 48 46 47 46 45 45 42 41 44 42 42 42 37 38 37 37 36 35 35 36 36 35 35 35 36 36 37 38 41 41 42 42 44 46 48 49 51 53 55 57 58 60
45 46 46 44 45 44 42 41 39 41 43 41 40 41 40 38 37 36 37 38 38 38 38 39 39 39 40 41 42 44 45 45 46 46 48 49 51 52 53 55 56 58 59 60
51 49 49 49 48 45 47 47 45 42 42 41 40 43 41 39 40 42 43 40 41 41 42 42 43 45 46 47 48 47 48 50 51 51 52 52 53 55 56 58 59 60 59 60
60 57 55 53 49 48 48 48 47 44 45 42 44 44 46 44 42 42 42 43 43 44 46 48 49 50 50 50 51 54 55 54 54 54 53 53 55 56 57 58 58 59 60 61
61 63 61 63 60 57 57 58 56 55 52 57 50 51 50 48 50 50 50 49 48 50 52 53 52 52 53 55 56 56 55 55 55 55 55 57 56 56 56 56 56 57 57 58
53 54 55 64 58 60 60 58 57 58 59 65 66 67 55 63 59 58 55 57 56 56 56 56 57 57 57 56 55 55 56 58 58 58 57 56 56 56 56 57 59 60 62 64
55 53 52 54 55 57 60 60 57 57 57 52 54 49 50 53 55 56 57 58 59 61 62 61 59 58 57 57 58 58 57 57 57 57 56 57 58 59 61 63 65 68 70 72
62 60 58 58 57 64 58 55 54 55 56 56 54 51 54 56 58 59 61 63 64 62 60 59 57 57 58 58 57 57 57 57 59 59 60 60 63 66 69 71 73 75 77 79
58 56 58 62 64 64 62 56 54 55 53 53 54 57 60 59 57 56 55 54 54 55 57 58 59 58 57 57 58 57 56 57 59 61 64 68 71 73 76 78 80 83 85 86
57 58 62 66 70 71 60 60 58 57 61 57 61 61 61 60 61 58 55 56 56 56 56 55 54 55 55 56 57 58 58 61 65 69 74 77 79 81 82 84 86 87 89 91
53 55 56 56 54 50 47 50 55 60 53 51 49 49 51 55 54 52 54 53 51 52 53 54 54 55 57 58 60 62 65 69 73 77 79 82 84 84 85 87 89 91 91 92
51 50 52 55 54 53 50 51 52 50 48 48 48 48 49 51 52 52 52 53 54 55 55 56 57 58 60 63 67 71 75 78 79 80 81 82 85 86 89 91 92 93 94 95
59 55 53 54 54 52 51 50 54 54 51 53 53 51 50 51 52 53 55 55 57 58 59 60 62 65 68 72 76 78 79 79 79 80 81 84 86 89 91 92 92 91 93 95
65 59 57 55 50 52 53 53 52 53 55 54 55 56 59 58 56 55 56 58 61 63 65 65 67 69 72 73 74 76 77 78 81 83 85 87 89 89 89 90 91 91 93 96
61 63 62 60 57 56 52 53 53 52 55 57 60 60 59 60 62 61 62 63 64 67 68 67 66 67 68 69 72 75 77 80 83 84 85 86 87 88 89 90 91 94 96 100
62 62 62 61 59 58 54 56 55 51 54 62 66 62 60 61 63 65 68 70 68 65 65 66 66 67 69 72 75 77 79 80 80 82 84 85 87 88 91 93 93 96 98 98

GFSCGP_500_spd_081.txt.gz
Wind_Speed
58 59 58 57 54 51 49 43 41 42 39 39 37 36 31 31 28 26 23 21 20 18 16 16 16 16 16 17 19 21 21 22 20 20 20 21 22 22 21 21 21 21 21 22
63 59 58 56 54 52 45 45 44 42 43 41 38 36 34 32 29 27 25 22 21 21 19 19 19 19 20 20 20 21 23 24 25 25 25 24 25 25 25 26 27 27 26 26
61 60 61 58 53 52 48 48 46 45 42 41 39 39 36 34 32 29 26 25 23 23 23 22 23 23 23 22 23 23 23 24 25 27 27 27 27 29 30 30 31 31 31 32
59 61 56 54 53 50 51 48 46 45 43 43 42 40 41 37 33 32 29 29 26 27 27 26 27 28 28 27 27 28 27 27 28 28 27 29 29 30 33 33 34 35 36 36
60 56 55 55 53 51 52 49 47 45 46 44 43 43 43 38 36 32 31 29 28 28 27 28 29 29 30 31 31 31 31 31 31 31 31 32 32 34 36 37 38 39 41 42
55 53 55 55 52 50 49 48 47 46 47 49 47 46 44 40 36 33 33 30 30 29 29 29 29 28 29 31 32 33 34 35 35 35 35 35 37 38 40 42 42 43 45 46
54 53 53 53 51 52 52 49 50 51 52 55 49 46 44 39 37 34 34 32 31 31 31 31 31 31 32 32 33 34 35 36 37 37 37 38 39 41 43 44 46 47 48 49
57 58 58 56 55 55 51 49 53 51 51 49 44 47 44 40 37 36 36 35 34 34 34 33 32 33 34 33 34 35 36 36 37 38 39 40 42 43 45 46 47 49 50 52
55 56 55 54 53 52 53 53 52 48 49 47 47 48 44 41 40 38 36 37 37 37 35 34 33 33 34 35 35 36 37 38 38 39 40 42 43 44 45 46 48 50 51 52
52 54 54 54 53 53 51 47 48 48 48 48 50 49 47 41 39 39 38 38 37 37 36 35 35 35 35 37 38 38 38 38 39 41 42 43 44 45 46 47 48 50 52 53
52 53 54 53 55 53 52 52 51 48 48 48 49 49 42 42 40 41 42 39 38 38 37 36 36 37 37 37 37 36 37 38 39 40 42 43 43 45 47 49 51 53 54 56
53 52 52 51 49 51 50 49 47 48 49 50 49 47 43 42 41 40 39 37 36 37 37 38 38 38 37 36 36 37 39 41 42 43 44 46 47 49 50 52 54 55 55 57
51 52 51 52 51 49 49 49 46 48 50 50 45 48 43 40 39 38 37 37 38 38 39 39 40 38 38 40 42 43 43 44 46 47 48 49 51 52 53 54 54 56 59 61
48 47 47 47 48 47 49 49 48 48 49 46 47 44 42 39 38 38 38 40 42 45 41 40 41 42 43 43 43 45 47 49 51 52 53 54 54 54 54 56 58 59 58 57
52 54 53 53 51 51 48 47 46 46 44 48 43 43 42 44 43 43 46 47 46 45 44 45 46 46 48 49 50 52 53 54 54 56 56 55 55 56 58 58 57 55 55 55
65 61 58 62 61 60 58 54 54 53 54 51 55 52 50 51 49 50 49 50 51 51 54 53 54 55 56 57 57 56 57 58 57 56 55 56 58 59 57 55 54 54 55 57
67 64 64 63 59 60 64 65 58 53 54 54 60 59 58 60 60 57 55 52 51 52 53 54 55 54 56 58 59 60 60 59 57 58 60 61 58 55 55 54 54 56 61 66
48 51 52 57 58 66 69 65 65 67 65 64 64 62 62 61 59 57 57 57 57 56 56 56 58 59 60 60 58 57 57 58 62 61 58 56 55 55 55 56 59 66 70 72
57 54 54 55 56 59 65 59 65 64 63 56 58 56 57 55 55 57 57 56 57 58 60 61 61 58 57 57 59 61 62 61 59 57 56 57 58 58 60 64 70 74 77 79
60 60 61 64 66 65 51 53 53 56 62 55 52 53 58 57 60 56 56 57 58 58 57 57 58 60 62 62 61 59 58 57 57 58 59 61 62 65 68 73 77 80 83 84
63 60 61 60 65 59 53 54 56 59 53 49 52 53 54 55 53 54 56 60 62 64 64 64 63 61 59 56 55 57 59 59 61 63 65 67 69 72 76 79 82 85 88 92
54 59 60 62 64 56 50 54 57 53 51 50 52 55 60 63 62 58 57 56 56 56 57 56 56 54 52 57 61 62 62 64 66 68 70 72 75 77 80 83 86 89 91 91
56 57 52 53 54 51 53 53 53 50 48 46 46 46 45 45 46 48 51 52 52 52 53 52 54 59 62 64 63 64 66 69 71 74 75 77 77 80 82 84 86 88 90 92
55 55 54 52 47 45 47 49 49 48 49 51 51 52 52 50 49 51 53 53 53 54 56 57 59 61 62 63 65 68 69 71 74 75 76 76 78 79 82 85 86 88 89 91
59 56 51 50 48 47 48 51 50 52 53 53 54 54 53 51 52 52 53 54 56 57 59 60 62 64 65 66 68 70 72 73 73 74 75 77 80 81 83 83 85 85 86 91
65 64 63 60 57 57 56 60 60 57 57 55 54 57 58 56 54 55 57 58 59 58 59 61 64 66 67 69 71 70 70 71 72 74 76 78 80 82 82 82 83 85 88 91

GFSCGP_500_spd_084.txt.gz
Wind_Speed
63 64 66 60 61 55 50 51 51 48 45 42 39 38 35 35 31 28 26 24 22 19 15 16 15 15 16 16 17 19 19 19 19 18 19 19 20 20 20 21 22 23 23 22
62 64 64 61 59 55 56 54 52 50 44 44 43 40 37 36 33 31 29 25 22 19 19 17 17 17 18 18 18 19 20 20 21 22 22 23 23 24 25 26 27 27 27 27
69 65 63 62 60 58 59 54 53 48 45 47 44 43 41 38 36 33 30 28 26 23 21 19 19 19 20 21 22 22 22 22 22 23 24 25 26 28 29 29 30 31 31 32
64 65 61 64 59 59 58 51 52 49 47 47 45 43 44 41 39 36 33 31 27 25 22 22 22 22 24 24 25 25 25 25 25 26 24 29 28 30 31 31 32 34 35 36
64 64 64 62 59 57 55 52 51 46 49 49 47 47 46 44 41 38 34 31 29 27 25 25 25 25 25 26 27 28 29 29 30 30 30 29 31 32 33 35 37 38 40 40
57 58 60 59 56 58 57 55 53 50 51 52 50 50 49 47 42 39 35 33 31 30 28 27 27 27 26 28 28 29 31 33 34 35 35 33 35 36 36 37 39 40 42 44
55 58 56 56 58 58 57 54 53 55 57 58 53 54 50 49 43 39 37 34 34 32 30 30 30 30 29 30 30 31 32 34 35 37 38 38 38 39 40 41 42 43 44 46
58 58 53 55 57 58 59 56 59 60 61 59 55 58 51 45 40 39 38 37 35 33 33 33 33 33 31 31 32 33 34 35 36 38 38 38 39 40 41 42 43 44 45 46
57 56 54 56 56 58 59 58 57 56 56 55 54 54 48 45 43 42 40 39 36 35 35 35 35 35 34 33 35 36 36 37 37 37 38 38 40 40 42 43 43 44 46 46
56 54 56 55 56 57 56 52 54 57 56 55 56 55 52 46 43 43 40 39 38 36 36 37 37 37 36 37 37 37 38 37 38 38 39 40 40 41 42 42 42 44 46 48
55 54 55 55 57 56 56 55 56 54 54 54 55 54 48 45 42 41 41 40 39 39 38 39 39 38 38 39 39 39 39 39 39 40 39 40 41 42 43 45 47 48 50 52
55 56 54 54 54 54 54 52 51 52 53 52 51 49 45 43 41 39 40 40 40 39 38 38 39 39 40 39 39 41 41 40 40 40 40 42 43 45 46 47 49 51 52 54
50 54 53 53 55 55 55 53 51 52 51 52 51 51 48 45 41 39 38 38 39 40 39 39 38 38 39 40 41 40 40 39 39 41 42 43 44 46 47 50 52 53 53 54
49 49 50 50 50 51 51 50 49 49 51 48 50 45 43 41 39 39 38 41 41 40 39 39 39 41 43 44 44 42 41 42 43 44 44 47 49 52 53 54 53 53 54 56
47 49 48 48 48 48 47 48 46 48 46 47 42 44 40 41 41 42 45 44 40 39 39 40 41 44 45 46 45 47 48 48 50 52 54 56 58 58 57 56 55 55 59 59
49 49 49 51 52 53 51 49 48 49 48 48 48 49 44 44 47 45 43 42 43 43 43 43 45 47 49 52 55 54 54 56 59 59 59 59 59 58 56 56 59 62 61 57
57 58 56 56 54 52 53 54 53 50 49 51 57 52 47 49 49 47 45 45 47 47 48 49 51 55 56 55 55 56 56 55 56 58 59 58 56 56 60 63 61 57 55 55
64 60 56 58 60 59 67 61 57 53 53 53 57 56 58 59 58 56 54 55 55 57 58 60 60 59 56 57 58 57 56 57 59 59 59 58 60 62 61 58 56 55 58 60
47 49 56 58 69 67 68 64 64 65 65 57 53 55 53 54 57 61 60 59 58 57 57 55 54 53 54 56 57 58 59 58 57 58 60 62 61 58 55 56 58 61 64 67
50 48 48 51 58 64 57 63 62 64 68 59 63 63 65 68 71 67 64 63 63 59 55 56 57 58 59 58 57 56 58 60 61 60 59 58 55 56 58 61 64 67 70 72
54 52 53 52 54 48 50 52 55 60 55 56 58 55 56 59 59 56 56 56 56 57 57 56 57 57 56 58 61 61 59 57 57 58 56 56 59 63 64 67 70 72 75 78
54 55 52 54 56 50 48 53 55 50 47 48 51 50 50 53 56 54 58 57 55 55 56 58 59 62 62 58 54 53 54 55 55 57 59 62 68 69 70 73 76 78 81 83
54 52 51 56 48 42 47 48 49 49 48 45 45 47 47 49 51 52 51 51 55 60 63 61 55 51 51 51 52 53 53 55 59 62 67 70 71 72 76 77 79 82 85 87
53 50 48 47 44 41 42 45 46 47 48 47 47 48 46 45 42 42 43 44 45 45 46 48 51 53 53 52 52 55 58 61 64 67 69 72 75 76 78 81 82 83 81 83
51 50 51 52 50 50 49 49 50 48 43 42 43 45 47 47 47 48 47 48 48 48 51 53 54 54 54 56 58 60 62 64 67 70 72 74 76 77 79 78 77 78 82 84
50 48 47 43 43 45 47 51 53 53 52 49 48 47 47 46 47 49 50 49 50 52 52 54 56 57 58 59 61 62 64 66 68 70 71 73 74 75 74 76 76 78 80 83

GFSCGP_500_spd_087.txt.gz
Wind_Speed
56 54 57 63 59 60 61 54 52 51 49 48 44 41 37 37 36 33 30 26 24 21 19 18 17 15 14 14 13 14 15 16 16 17 17 18 20 20 20 21 22 22 22 22
58 56 56 62 64 64 63 57 56 52 49 46 46 43 41 39 37 37 34 30 28 24 21 21 19 18 17 17 17 17 19 19 18 20 20 21 22 24 24 25 24 25 26 26
48 49 59 66 67 65 63 60 59 56 50 49 48 47 46 41 40 38 35 33 29 27 26 23 21 19 19 19 19 19 19 21 21 22 22 23 25 27 26 27 28 28 29 31
51 56 62 69 69 66 66 62 60 55 49 51 51 50 47 43 41 41 38 35 30 29 25 23 22 21 22 21 21 22 23 23 24 26 27 27 28 29 30 30 31 32 33 34
55 54 60 70 66 67 64 61 58 55 52 53 54 54 50 48 47 43 39 36 32 31 28 26 25 23 23 24 24 26 26 26 25 26 29 31 30 32 33 33 34 35 37 38
62 60 63 69 62 63 62 63 58 55 52 57 57 57 52 51 45 44 43 38 34 33 30 29 27 27 26 27 28 27 27 27 27 28 31 32 32 35 35 36 38 39 40 41
64 64 68 67 63 64 64 61 58 55 58 63 60 59 55 52 50 47 42 39 37 36 33 31 30 30 29 29 28 28 28 29 30 31 32 33 33 36 37 38 39 40 41 42
66 63 72 67 67 68 66 62 63 64 64 65 62 64 59 52 49 46 42 41 39 37 35 34 33 32 32 31 30 31 32 33 34 33 34 34 35 37 38 39 39 40 42 43
63 66 70 61 59 64 64 63 60 60 61 61 60 60 56 50 48 45 43 42 41 39 38 36 35 35 34 33 33 34 34 35 35 36 37 37 38 38 39 39 40 41 42 43
55 60 58 54 57 58 60 57 61 62 63 65 63 62 58 51 46 45 42 41 41 41 40 40 37 36 36 37 36 36 36 36 37 38 38 40 41 40 40 42 42 40 42 44
55 54 52 51 57 58 60 62 62 59 61 63 63 60 54 47 45 43 42 43 42 42 42 42 40 40 39 38 38 37 36 37 39 40 41 42 41 41 41 42 43 44 45 48
55 57 56 50 51 53 57 55 57 60 60 60 59 57 53 47 43 42 42 42 40 41 43 43 43 41 40 39 37 37 38 40 42 42 42 41 42 41 42 44 46 47 49 51
50 52 54 51 52 54 54 53 54 55 53 55 54 54 51 47 43 39 39 40 41 42 43 45 44 41 40 40 41 41 42 41 42 42 41 42 43 43 43 46 49 51 54 56
42 46 49 51 53 54 54 53 53 54 55 54 53 48 46 43 38 38 38 39 41 43 45 43 41 40 39 40 40 40 41 42 42 43 43 44 45 47 49 53 56 57 57 57
46 46 44 45 48 47 47 48 46 49 48 51 46 45 41 40 40 42 43 43 43 43 39 38 38 38 38 40 42 42 43 43 42 44 46 50 54 54 55 56 56 57 58 58
42 44 44 46 45 47 47 45 49 47 45 48 50 48 43 45 47 44 42 41 40 40 41 42 42 42 42 42 43 43 45 46 48 52 56 58 60 59 56 55 56 58 58 60
45 39 40 46 48 48 52 53 47 47 52 51 51 41 44 45 47 44 42 43 43 44 45 45 45 45 44 44 45 49 53 54 59 60 62 61 58 56 58 60 59 59 61 63
49 44 42 43 45 53 53 52 52 47 47 51 54 51 48 47 47 47 46 46 46 48 48 47 48 48 47 49 54 58 60 59 60 60 58 57 58 60 59 57 59 62 61 59
54 52 52 53 55 57 58 53 52 58 56 51 51 49 50 51 53 56 53 50 47 45 47 48 51 55 59 61 60 60 62 59 58 59 60 60 58 58 60 61 60 59 57 56
44 50 58 53 55 58 46 54 51 57 61 53 54 54 57 53 57 57 52 52 52 52 54 55 55 57 60 63 66 64 59 58 60 60 58 59 61 60 57 57 57 55 57 60
45 48 51 60 62 58 52 51 55 62 44 50 57 58 57 57 56 56 58 60 60 61 62 64 65 65 64 64 62 60 58 56 56 59 61 60 56 54 55 55 56 59 61 65
47 48 47 46 45 43 44 47 52 50 56 58 58 59 59 62 65 64 66 65 66 66 62 58 59 59 58 56 57 58 58 58 60 58 54 54 54 54 56 59 61 64 68 71
50 47 46 44 36 39 42 42 41 41 41 45 50 49 52 57 55 55 58 63 64 62 61 59 56 58 59 61 60 61 60 56 53 53 54 55 55 58 61 63 65 70 72 74
47 45 46 44 42 42 44 45 44 43 44 45 48 52 55 55 55 55 55 56 57 57 56 56 56 53 48 46 47 48 51 54 54 54 54 57 60 62 64 67 70 74 77 79
48 46 45 45 46 46 48 49 46 45 42 40 44 50 50 49 52 52 50 50 50 50 51 50 48 46 47 49 51 53 54 54 53 55 60 62 63 66 70 73 75 77 80 82
46 43 42 42 45 49 50 51 50 47 46 47 47 45 45 43 43 46 46 45 45 47 50 52 51 51 50 50 51 52 52 54 59 61 63 65 69 71 73 75 77 78 78 79

GFSCGP_500_spd_090.txt.gz
Wind_Speed
52 58 61 53 39 58 59 61 58 57 55 52 46 43 40 38 36 33 31 29 27 26 25 23 22 22 20 17 15 14 14 14 15 15 16 17 18 19 20 21 21 21 22 23
54 60 57 49 44 54 57 59 58 55 54 53 51 47 45 43 36 36 36 33 31 29 25 24 23 21 20 19 18 19 18 17 17 18 18 19 21 22 23 23 24 24 25 26
53 55 55 58 55 51 62 62 59 57 55 54 52 50 51 47 42 40 37 36 34 31 27 26 24 23 21 20 20 20 20 19 18 19 20 21 23 25 25 27 28 27 27 29
57 58 54 57 53 52 58 63 57 59 57 57 56 55 53 48 45 43 41 39 36 33 30 29 27 25 24 24 22 21 21 21 22 22 23 24 26 27 27 30 31 30 31 32
55 60 59 61 54 51 61 67 61 61 61 59 57 59 56 53 51 47 43 41 38 35 33 33 31 29 28 27 25 24 23 24 25 27 27 27 28 29 29 31 32 33 34 35
53 56 62 61 56 55 67 66 61 62 64 64 61 64 59 57 51 46 44 43 41 38 36 36 34 31 30 29 29 27 25 25 27 29 29 29 27 29 32 32 34 35 36 37
55 54 53 57 62 67 70 65 62 64 67 70 64 65 61 57 53 50 48 45 42 41 39 38 35 34 33 32 32 30 29 28 27 28 28 28 29 32 34 35 36 36 38 39
59 59 63 63 61 66 71 71 72 73 73 73 67 69 65 59 56 53 51 48 46 45 42 41 38 37 36 35 34 32 31 30 30 30 29 29 32 33 35 37 37 38 40 41
54 56 54 58 63 64 69 72 68 69 69 70 68 67 63 60 56 53 49 45 45 43 43 42 40 40 39 37 36 35 35 34 33 32 32 33 35 36 38 39 40 41 42 43
55 57 61 62 63 65 68 66 69 73 70 71 72 69 67 59 54 50 46 44 44 45 45 43 43 42 42 40 39 38 37 36 36 35 35 36 38 39 40 42 42 43 42 43
56 55 58 61 66 70 70 69 67 66 68 70 71 70 63 57 51 47 46 43 45 46 45 45 45 44 44 43 42 40 39 38 38 38 39 40 42 42 43 43 42 42 44 46
56 58 58 57 62 69 68 66 65 66 68 68 67 67 60 57 51 50 46 46 46 46 46 45 46 45 45 45 44 42 41 40 40 40 41 42 43 45 44 41 42 43 46 49
58 61 60 56 62 65 67 63 62 59 61 64 64 65 55 54 48 49 44 42 44 45 46 45 46 46 46 45 44 44 43 43 41 41 42 44 45 43 42 42 43 46 49 55
54 53 58 57 55 61 73 65 55 58 59 65 65 62 56 51 45 41 39 41 42 45 47 48 47 46 45 45 44 43 42 41 41 43 43 45 46 43 43 44 47 53 56 59
51 52 52 52 50 51 55 52 49 51 54 56 58 55 46 43 39 38 41 44 46 45 47 47 47 46 45 43 41 41 41 41 43 44 43 41 42 44 46 53 57 59 60 62
52 50 47 46 47 51 54 51 46 43 42 46 49 49 44 45 46 45 44 45 45 44 44 44 45 45 43 41 41 41 42 44 45 44 43 42 45 50 57 59 60 62 62 60
53 52 46 43 42 42 50 52 49 52 50 47 52 46 43 44 45 43 43 43 44 44 44 44 43 42 42 43 44 44 45 47 46 44 47 54 59 60 62 62 62 61 61 62
36 32 34 41 41 45 51 49 51 48 47 52 53 43 43 44 45 46 46 45 44 44 46 45 45 43 44 45 46 47 48 48 50 53 54 58 62 61 62 61 60 62 61 60
50 45 41 43 41 48 50 49 52 54 54 50 53 49 46 45 44 44 43 43 44 46 46 46 46 47 47 48 48 49 50 54 57 60 64 63 64 65 63 61 62 59 61 64
54 51 49 47 49 51 46 47 47 50 56 50 51 51 51 50 58 54 52 51 47 46 47 48 48 48 52 55 57 59 59 60 60 61 65 66 64 62 62 61 60 62 62 60
37 50 52 49 50 50 46 46 47 49 42 44 49 55 52 51 49 46 47 49 50 49 48 46 48 53 58 59 54 55 58 62 65 65 63 62 62 62 61 60 60 58 57 61
43 42 47 47 52 50 50 48 46 38 41 46 48 47 50 51 51 52 53 54 56 57 57 57 58 61 59 61 63 65 65 64 61 58 58 59 61 62 60 59 57 58 60 62
44 43 43 43 44 43 39 40 42 44 47 50 52 53 53 55 56 59 61 61 62 63 64 66 68 68 67 66 65 65 62 60 60 62 63 63 63 63 57 57 58 60 62 66
45 43 41 40 39 40 41 39 38 40 44 46 50 54 55 56 58 61 62 63 64 66 66 64 61 63 64 63 63 63 63 63 63 62 61 58 54 55 57 58 59 64 68 70
43 45 43 40 41 40 39 38 37 38 40 45 47 50 52 52 54 56 57 58 58 59 60 61 60 61 60 59 60 61 60 58 55 54 54 55 53 55 59 61 67 69 71 73
39 40 40 37 39 40 42 43 43 42 41 43 44 45 48 51 53 53 54 54 56 56 58 59 58 56 55 53 52 51 51 53 55 55 54 54 55 59 64 67 69 72 74 78

GFSCGP_500_spd_093.txt.gz
Wind_Speed
50 55 57 53 43 48 43 41 38 48 55 52 50 45 44 42 40 38 34 32 32 30 30 27 25 23 21 21 21 20 17 16 15 15 15 15 16 17 18 18 18 19 20 22
46 50 48 51 45 48 56 49 42 52 61 56 52 50 46 45 43 38 35 36 34 35 29 28 26 25 23 23 20 19 19 17 18 18 18 18 19 20 20 20 20 21 23 25
41 44 51 53 55 49 51 50 40 45 63 62 54 54 52 51 48 45 43 41 40 36 33 31 29 27 26 24 23 22 21 20 20 20 20 20 20 21 22 22 23 24 25 26
51 46 51 54 54 53 55 54 46 55 66 63 57 57 56 55 51 48 43 42 39 37 34 33 32 30 28 28 27 25 24 23 23 22 23 23 24 24 25 25 26 27 28 29
53 47 50 54 49 49 55 57 47 59 65 60 59 60 58 57 55 51 46 43 42 40 38 35 35 33 32 30 29 28 27 27 26 24 24 25 26 27 27 27 28 28 29 32
55 52 50 49 51 51 47 60 48 54 60 67 63 65 63 61 56 52 47 45 44 42 40 38 37 35 34 33 31 30 29 28 28 28 27 26 26 27 28 29 29 29 32 34
54 52 47 52 53 52 54 59 59 57 63 68 66 70 64 61 59 55 51 48 47 45 44 42 41 39 37 36 34 33 31 31 31 31 30 29 29 29 30 30 31 33 35 36
55 51 39 46 54 54 56 57 57 56 54 57 69 71 66 62 61 59 56 53 51 49 46 45 43 40 39 39 39 36 34 33 33 33 33 31 32 31 32 33 34 36 38 40
53 52 48 50 57 58 62 65 62 63 61 63 73 69 68 65 63 61 58 54 52 48 45 45 45 44 43 42 41 39 38 36 36 36 35 34 34 35 35 36 38 39 41 43
55 55 53 55 62 59 63 54 61 62 63 65 70 74 70 67 64 57 55 52 52 49 46 45 46 45 44 44 44 43 41 40 39 37 36 36 37 37 38 40 41 42 43 45
55 57 53 59 65 65 60 64 61 63 67 67 70 70 66 64 64 58 54 49 50 49 46 46 49 48 48 47 46 44 44 43 41 39 38 38 39 39 40 42 44 44 44 44
51 54 54 57 67 63 64 63 59 62 63 69 70 71 70 68 61 58 57 50 51 49 50 49 49 50 51 50 49 48 46 44 42 42 41 40 42 43 43 44 45 46 44 42
47 50 54 56 64 63 62 59 57 57 64 69 71 71 66 62 60 62 55 54 48 50 49 48 47 49 50 50 49 48 47 45 44 43 43 43 44 45 46 46 47 45 42 41
40 46 50 52 58 60 55 55 51 54 65 67 66 68 64 60 54 51 47 51 41 48 50 49 50 50 49 49 49 49 48 47 46 45 43 44 46 47 49 48 45 42 43 45
43 45 46 47 49 52 53 50 55 60 60 69 65 67 62 60 58 45 41 43 42 49 49 47 48 47 48 48 48 49 48 46 44 44 45 46 47 48 48 46 43 45 48 55
45 40 42 44 44 49 52 52 51 59 65 70 68 65 56 50 43 45 43 44 43 42 44 46 48 49 48 48 48 47 46 45 44 44 46 47 48 49 48 46 47 51 55 60
40 41 41 43 46 49 52 52 53 50 53 60 70 64 53 40 42 44 43 43 43 45 47 48 48 47 47 46 44 43 44 44 44 46 48 48 49 48 47 48 50 57 62 64
42 38 38 43 45 47 44 42 43 47 49 53 59 60 55 49 42 45 46 48 49 50 51 49 48 47 47 46 45 44 45 45 47 49 49 49 47 48 50 55 64 64 65 66
38 40 44 48 48 44 42 39 40 44 47 51 54 51 48 47 46 49 48 48 48 50 48 47 46 46 45 45 45 46 48 48 49 50 50 51 51 56 65 67 66 65 66 67
32 41 45 47 46 42 40 41 37 39 47 47 52 54 51 50 49 39 39 45 47 46 44 44 46 46 46 46 47 50 51 52 51 50 51 56 63 65 63 64 65 68 67 66
32 38 45 45 47 40 44 43 40 41 30 36 48 49 48 49 49 43 41 44 45 44 42 44 45 46 48 51 51 53 53 51 51 57 61 62 61 62 64 66 68 67 67 67
38 31 35 41 42 39 40 40 37 34 35 36 40 47 50 52 50 47 44 44 48 49 51 53 54 55 55 54 56 57 56 56 62 65 62 63 66 70 69 69 68 67 68 67
45 40 36 35 36 41 41 39 38 37 39 38 41 42 42 46 49 53 55 53 51 51 50 50 49 50 51 53 56 60 64 64 63 65 68 72 71 69 67 66 67 68 67 69
42 39 40 43 41 41 38 41 40 35 38 46 47 43 43 44 45 47 48 49 51 55 57 58 60 60 60 60 60 61 65 69 71 67 65 64 66 67 68 68 69 65 64 63
43 41 41 39 38 39 41 39 38 38 37 38 42 47 48 50 51 52 54 55 57 58 58 59 60 61 62 62 63 63 64 64 63 63 63 65 66 68 68 65 62 62 64 67
32 34 37 40 42 41 41 40 38 39 37 38 39 42 45 48 49 49 50 51 51 52 52 53 53 54 57 58 58 60 61 62 62 62 62 61 62 62 61 60 61 65 67 67

GFSCGP_500_spd_096.txt.gz
Wind_Speed
51 50 51 49 44 42 42 47 35 34 33 40 39 43 44 44 42 40 36 32 30 28 32 27 27 25 24 22 22 22 22 22 19 18 15 13 14 14 16 17 18 18 19 20
49 51 47 43 44 47 49 37 38 33 35 39 37 42 47 49 46 42 39 37 35 36 33 29 29 27 26 26 25 23 23 19 19 17 16 15 17 19 20 19 19 20 21 22
48 48 47 44 44 46 45 46 43 45 40 42 38 39 52 52 50 47 44 42 42 38 35 33 33 31 30 28 28 26 25 22 21 20 19 21 21 22 21 22 22 23 24 25
53 46 47 44 46 44 48 47 46 52 50 48 42 48 51 55 55 50 47 45 41 38 36 34 35 33 32 32 30 28 27 26 25 25 23 23 23 23 24 24 25 25 25 27
49 45 43 44 42 46 48 44 50 48 49 49 49 50 41 60 58 54 50 47 42 40 39 37 36 35 35 34 32 32 31 28 27 27 26 25 26 26 26 25 26 25 25 27
53 49 45 42 45 47 48 48 49 53 52 56 56 56 58 56 60 55 53 48 44 43 41 41 40 39 37 36 35 34 32 30 30 30 29 27 27 28 28 27 26 27 28 30
54 51 46 47 52 52 49 48 51 52 56 61 55 56 56 44 61 57 54 48 46 47 47 46 43 39 39 37 37 35 35 34 34 34 32 31 30 30 30 30 30 30 31 34
52 51 46 48 47 48 45 49 54 54 57 53 57 51 45 34 52 61 60 54 54 53 52 49 46 43 43 41 39 38 37 38 38 37 35 34 32 33 32 33 34 34 36 37
54 56 53 53 51 50 51 51 48 53 57 56 47 45 44 39 41 55 63 59 55 53 52 50 47 46 46 45 41 42 42 41 41 39 38 37 36 35 35 35 36 37 39 40
59 57 58 55 55 57 53 46 51 52 52 54 53 51 51 47 41 44 60 61 55 52 51 50 48 48 47 48 47 46 45 43 42 42 41 40 40 38 38 37 39 40 41 42
60 58 57 61 59 52 51 51 52 50 53 54 54 58 54 56 50 45 51 60 57 51 51 50 51 49 50 50 50 48 47 46 45 44 44 44 43 41 41 41 42 42 43 46
52 54 59 58 57 55 55 55 55 52 51 55 55 47 49 53 51 44 47 56 57 47 51 51 53 54 53 50 50 49 50 49 48 47 45 45 44 43 44 43 44 45 47 48
51 49 50 54 58 55 56 57 56 54 55 54 58 52 51 49 50 48 49 61 60 55 49 51 51 53 53 52 51 51 51 50 49 47 46 46 46 44 44 45 47 48 49 50
41 44 43 48 49 50 54 55 57 58 56 53 56 50 54 52 49 51 51 46 48 53 49 52 47 54 52 54 54 52 50 49 49 48 47 47 46 46 46 47 48 50 51 50
38 37 39 42 44 46 48 52 52 52 46 53 49 60 55 50 50 51 48 43 42 43 51 47 49 50 50 53 51 51 49 48 47 47 48 48 48 47 48 49 51 51 52 49
37 37 40 41 42 45 47 50 53 53 49 49 57 55 52 46 47 52 53 37 37 36 42 48 49 47 50 55 54 53 51 49 48 49 49 48 48 48 49 51 53 52 51 46
37 36 41 42 39 40 45 42 44 46 48 48 53 51 55 52 45 47 56 51 44 41 41 43 48 51 55 55 54 53 52 50 49 50 50 49 49 51 52 53 53 51 48 49
33 35 36 39 35 38 36 38 39 41 44 48 48 48 50 43 40 50 50 49 43 45 46 48 49 50 52 52 52 52 51 48 48 48 47 48 50 51 52 53 53 52 52 53
36 37 39 41 39 38 36 35 34 37 37 39 41 47 52 46 43 47 46 45 47 48 50 51 50 50 49 49 50 50 50 49 50 50 50 51 51 53 53 53 53 53 54 60
36 39 39 39 41 36 37 34 32 34 41 35 39 45 52 49 45 43 42 54 50 53 54 54 54 53 52 50 49 48 47 47 47 49 51 53 54 55 53 54 56 55 64 65
32 28 34 38 38 37 37 38 33 36 34 25 32 40 45 47 46 46 43 45 49 47 48 49 50 50 49 50 50 48 47 46 50 52 54 55 55 55 56 57 58 64 68 66
44 39 30 25 32 36 39 34 30 28 33 33 31 32 33 44 43 46 47 46 44 44 44 44 45 47 50 50 51 50 50 52 54 55 56 55 55 56 58 60 63 69 70 73
41 43 42 35 27 29 32 29 28 27 30 33 33 34 36 34 36 47 46 48 51 51 49 49 50 50 50 51 52 52 52 53 55 58 60 60 61 60 63 67 69 71 74 73
34 36 37 36 38 36 32 29 31 33 33 33 34 35 36 35 34 34 37 45 50 52 54 54 56 58 59 59 61 63 63 61 61 60 60 61 64 68 70 71 74 73 71 71
33 35 37 38 37 38 37 34 30 30 31 37 37 36 35 42 43 40 39 41 43 45 48 50 53 55 57 59 59 59 60 62 63 65 67 68 70 71 70 69 70 70 70 70
36 37 38 38 39 39 38 37 33 35 37 36 39 40 38 37 40 43 45 46 46 46 46 48 50 52 54 54 54 55 56 57 59 61 63 63 64 65 66 67 68 68 67 67

GFSCGP_500_spd_099.txt.gz
Wind_Speed
56 54 53 50 43 40 39 40 33 32 27 33 34 39 41 41 41 40 38 34 32 28 33 29 26 25 24 22 19 19 20 21 21 22 22 19 17 15 15 16 16 17 17 18
56 52 50 47 43 40 41 40 45 41 35 35 36 36 37 46 44 43 42 40 37 37 36 31 29 27 24 24 24 23 24 23 24 24 23 21 19 18 20 19 19 19 19 20
51 50 50 47 43 42 43 42 40 42 41 38 36 34 39 42 46 47 45 42 43 41 39 36 33 29 29 27 27 28 29 28 27 27 25 23 22 23 24 22 21 21 22 22
49 46 45 45 46 43 42 40 40 41 42 39 36 38 32 35 45 51 47 46 45 43 41 39 36 33 31 31 34 33 32 29 29 29 27 25 25 26 25 24 24 24 24 25
48 44 46 46 42 46 46 42 39 42 44 42 42 45 35 33 38 47 49 46 47 47 43 41 38 36 37 39 36 35 34 32 31 30 29 28 28 28 27 26 27 26 27 28
58 51 50 46 51 51 49 45 43 44 47 53 46 49 40 38 33 33 47 49 48 48 45 44 41 41 40 40 38 35 34 34 33 33 32 32 30 30 29 29 29 29 29 30
57 56 49 52 53 53 49 45 48 50 49 56 50 51 48 33 39 35 35 51 51 49 50 48 47 44 41 41 39 38 37 37 37 36 34 33 32 32 31 32 31 32 32 32
55 56 51 52 51 49 47 49 49 51 47 48 51 48 53 44 40 37 38 46 57 54 54 52 49 46 44 43 43 42 40 39 40 40 37 36 35 34 34 34 34 35 35 36
58 57 56 56 56 57 52 53 52 50 50 50 51 50 49 47 36 35 42 48 49 55 53 52 51 47 46 45 45 44 43 42 42 41 40 39 38 37 38 38 37 38 39 39
60 61 60 59 62 61 57 55 53 54 52 49 48 53 49 46 37 31 28 30 36 51 48 52 53 49 49 47 48 48 47 45 44 44 44 42 41 41 42 41 41 41 42 43
63 61 59 60 59 59 60 61 57 56 54 51 48 50 42 43 44 38 33 36 32 34 48 58 53 54 53 51 51 51 50 48 47 47 46 46 46 46 46 44 43 44 44 44
63 63 63 58 59 59 56 53 52 51 51 53 51 43 40 34 44 31 36 42 47 44 40 59 58 57 56 54 53 53 52 52 51 51 50 50 50 49 49 47 47 47 47 47
58 60 56 58 57 58 59 58 54 50 52 53 52 40 38 40 40 45 40 40 40 46 45 45 62 58 56 57 56 55 54 53 53 52 53 53 52 52 51 50 49 50 48 49
44 47 44 46 49 47 52 52 49 44 51 50 52 36 39 39 40 43 44 46 47 45 44 45 48 53 50 54 57 54 55 55 55 54 54 54 53 52 52 51 51 50 50 51
38 41 41 42 44 46 47 50 51 51 48 54 42 50 37 38 42 44 45 43 44 45 48 47 47 52 55 55 56 53 54 56 56 55 54 53 52 52 51 50 50 51 51 53
43 42 43 43 45 49 50 49 51 49 49 53 50 47 41 42 44 46 48 49 47 51 49 52 51 52 67 60 58 56 58 57 56 53 52 52 52 52 51 51 52 54 53 54
39 41 41 43 45 48 52 50 49 50 52 49 55 39 48 49 48 42 42 44 45 47 50 53 53 52 54 59 56 55 57 57 54 54 54 54 54 52 53 54 53 53 54 54
36 36 41 42 41 42 38 43 44 45 46 49 52 49 54 53 50 53 49 44 45 46 48 52 53 49 53 55 58 60 58 55 55 55 54 53 52 51 51 52 53 53 54 53
36 38 39 44 46 40 37 42 42 43 43 42 46 47 53 53 56 53 49 45 48 50 51 58 61 55 51 52 54 52 52 53 53 52 52 52 52 51 50 50 52 53 54 54
32 31 34 32 39 37 31 35 39 40 39 39 41 44 46 49 54 49 45 44 47 49 53 57 54 57 57 57 54 53 53 52 50 49 48 48 50 51 52 52 53 54 54 53
32 32 32 31 34 35 39 41 43 39 32 35 31 36 39 45 46 44 42 42 38 44 47 48 47 51 54 56 53 51 49 49 51 50 48 50 52 52 55 56 54 53 55 56
35 32 36 35 32 32 33 36 38 30 28 33 29 29 32 33 33 34 37 37 37 39 42 46 49 53 55 56 56 57 58 55 52 53 54 55 54 54 54 54 55 55 58 59
37 37 36 35 28 22 24 23 25 26 28 24 25 33 31 34 35 30 30 35 38 37 46 48 45 48 53 48 48 50 52 53 55 55 55 56 56 56 56 55 55 55 60 63
33 33 36 37 38 35 32 29 26 25 28 29 32 30 27 27 28 29 30 30 31 37 43 50 49 47 48 49 50 50 51 52 54 54 54 52 52 53 54 55 62 61 62 66
33 34 37 39 35 30 30 27 26 27 27 33 36 36 33 31 29 30 30 33 33 33 36 44 49 51 54 56 56 57 58 56 53 52 52 54 57 62 65 63 63 67 70 73
36 37 39 36 33 35 35 35 35 32 32 34 32 34 32 34 34 36 35 35 37 39 40 41 43 43 45 48 49 50 53 57 61 63 63 63 63 63 64 66 67 66 65 63

GFSCGP_500_spd_102.txt.gz
Wind_Speed
63 61 60 57 51 48 45 39 33 36 40 34 29 30 31 33 41 40 39 36 34 30 35 32 30 27 25 23 23 22 21 22 22 22 23 25 26 23 21 19 19 19 19 19
64 62 56 54 50 44 43 40 37 39 40 38 33 29 30 33 39 42 42 40 37 37 36 34 32 29 25 26 25 23 24 23 23 24 27 28 27 23 22 22 23 23 22 21
61 61 59 55 51 48 46 41 38 38 43 43 39 35 29 28 35 42 45 41 42 39 39 37 36 32 31 28 27 26 28 27 27 29 30 30 28 26 26 28 26 24 24 24
62 62 57 54 53 49 48 43 40 41 42 45 43 39 32 32 32 37 46 46 43 43 42 39 37 33 31 31 34 33 33 31 31 32 30 32 31 29 30 30 28 27 26 26
60 62 59 56 51 50 50 46 44 42 44 42 47 50 27 34 30 30 38 44 42 43 44 43 40 37 37 38 37 37 37 35 35 33 32 34 33 33 33 32 32 29 29 28
61 57 60 54 53 52 48 45 43 43 45 47 44 51 35 40 24 21 30 36 44 45 46 44 44 44 42 41 41 41 39 36 36 35 33 35 37 36 36 34 32 32 31 32
64 61 54 56 54 53 50 50 50 48 45 49 48 53 43 33 24 29 26 23 25 40 47 48 49 47 45 42 43 44 44 40 38 37 36 36 38 39 39 37 35 34 35 35
65 63 58 53 52 50 49 52 47 47 46 47 47 52 54 38 33 30 27 30 28 31 35 50 51 51 47 47 46 47 44 43 41 41 39 40 41 41 42 41 39 37 38 39
63 63 60 56 52 55 56 56 50 52 49 46 45 48 50 34 34 35 30 33 32 36 40 43 51 54 48 48 47 48 47 46 45 44 44 43 44 44 45 45 44 41 41 42
65 64 62 60 62 59 57 54 54 56 52 48 43 46 46 44 32 36 33 32 34 34 39 43 46 52 52 51 51 51 50 50 49 49 48 47 47 47 48 48 46 44 44 45
66 68 69 64 68 60 59 58 57 55 56 54 47 46 44 42 35 33 33 31 36 32 34 37 49 50 53 56 55 53 52 53 53 53 53 51 51 50 51 51 50 49 48 48
72 68 68 63 64 60 61 57 54 55 54 55 55 43 42 41 40 37 35 36 37 40 41 37 36 31 44 53 55 56 56 56 57 56 56 54 55 54 54 54 53 53 52 51
66 70 67 64 59 57 59 55 56 55 58 56 58 40 42 43 39 40 39 38 36 37 40 40 40 41 46 40 59 60 60 59 59 61 60 59 57 57 56 56 57 57 56 55
62 60 61 58 54 52 51 50 49 46 50 53 58 40 45 43 44 44 46 43 41 41 40 41 41 42 43 46 47 59 64 61 63 64 64 61 59 58 58 58 58 58 57 58
56 54 53 51 47 49 47 50 50 52 52 54 49 51 45 48 50 48 50 50 48 46 44 46 47 47 46 45 43 48 65 67 66 66 65 64 63 62 60 59 59 58 57 58
46 49 48 48 49 49 48 48 50 52 50 52 52 53 44 51 51 52 52 51 50 49 47 44 44 44 43 43 42 44 52 73 72 69 67 65 63 62 61 60 59 58 58 57
44 43 39 40 44 46 50 52 51 50 51 47 49 46 43 54 58 57 56 57 55 54 54 51 47 46 48 45 43 45 47 61 68 66 64 62 60 58 58 59 59 59 60 59
34 36 37 37 39 42 44 44 44 46 45 47 50 46 50 53 58 61 60 54 53 55 57 56 53 49 50 48 46 44 48 54 61 70 64 63 62 61 61 61 59 59 60 61
38 37 36 37 36 36 38 42 42 40 39 41 41 42 49 53 61 58 59 60 58 53 56 59 58 56 52 48 50 49 49 53 56 68 70 60 60 60 61 60 58 56 55 55
37 36 35 35 36 33 35 38 37 37 35 41 41 41 43 49 50 53 59 59 58 60 58 57 59 61 59 53 54 56 55 55 61 61 64 66 62 57 56 53 48 49 50 52
40 37 34 30 31 30 29 30 37 39 36 39 37 39 45 47 47 48 53 55 55 53 55 54 54 55 57 55 58 61 60 61 59 58 62 57 54 51 50 51 51 54 53 54
39 38 34 31 31 31 29 27 29 33 39 40 38 35 36 40 43 46 50 53 50 47 47 48 49 52 53 52 51 53 58 68 67 65 63 54 51 50 53 54 53 52 51 51
44 40 36 33 27 28 29 31 30 31 36 37 39 38 35 38 43 44 46 44 40 38 38 39 40 44 48 50 52 52 54 58 63 63 60 60 59 61 61 57 58 56 53 54
43 39 37 37 36 33 32 33 29 26 25 25 31 36 40 39 39 41 42 43 43 38 35 35 37 42 43 47 52 51 55 61 62 63 62 63 67 62 57 55 55 55 53 53
43 38 39 37 40 37 38 38 39 38 36 34 31 30 32 36 38 37 37 39 37 34 33 35 35 37 40 45 48 50 53 54 54 51 50 50 48 48 48 49 50 53 57 59
43 42 40 38 38 42 39 40 41 40 39 39 40 38 36 32 32 32 34 38 39 37 38 39 41 42 41 42 43 46 48 50 53 56 60 62 62 62 61 60 61 63 66 70

GFSCGP_500_spd_105.txt.gz
Wind_Speed
70 69 68 63 59 54 54 52 46 39 41 40 38 38 33 37 37 35 40 38 36 32 35 31 27 25 25 25 25 24 24 24 22 22 23 23 24 25 25 24 22 20 21 21
71 73 63 60 59 54 55 54 50 41 46 39 38 41 32 37 35 30 37 42 39 38 38 32 30 27 25 26 25 26 25 25 25 25 25 26 27 26 28 26 24 25 26 24
64 69 65 63 61 57 57 53 45 48 44 42 42 41 34 28 33 34 33 42 42 41 39 35 32 29 27 25 27 28 28 28 28 28 29 29 28 29 30 30 29 30 27 26
63 69 66 64 61 58 59 56 47 49 44 46 46 47 40 29 32 36 32 35 44 41 41 37 34 32 28 28 30 30 32 30 29 30 29 29 30 30 32 33 32 32 30 30
67 66 65 65 62 59 59 54 47 48 44 48 46 51 39 35 36 29 27 34 40 44 43 41 36 33 33 35 34 34 33 32 31 31 30 30 31 32 35 36 36 36 34 33
69 67 65 63 62 60 57 52 49 48 46 50 46 49 45 40 33 31 31 27 37 45 43 42 40 40 39 38 37 36 35 34 33 34 34 33 34 35 37 38 38 39 38 37
73 70 66 65 63 62 60 56 52 50 50 54 49 53 49 38 31 32 34 24 25 33 42 45 44 43 41 40 40 39 39 38 38 39 38 37 39 39 40 43 42 42 41 42
71 73 70 66 64 59 59 58 55 56 51 50 50 53 53 37 29 27 39 25 27 29 25 29 36 49 43 45 44 45 43 42 41 44 43 43 43 44 44 46 47 45 44 44
72 73 69 68 63 61 63 61 55 52 51 52 53 48 52 37 31 33 35 35 31 30 32 33 32 32 35 49 46 47 48 47 47 43 45 47 46 46 47 48 50 49 48 47
72 72 71 67 64 64 63 60 56 55 54 52 50 50 52 43 35 33 32 34 35 35 35 36 38 38 37 38 40 50 49 50 50 47 49 49 50 49 50 51 52 53 50 51
70 72 73 68 66 62 62 59 59 57 55 52 49 49 47 40 29 31 32 34 34 35 36 38 39 37 36 39 42 46 52 53 52 54 53 53 54 52 53 55 55 56 56 55
70 74 72 71 67 63 64 62 59 55 53 49 50 45 43 41 39 35 35 37 39 41 40 41 41 40 40 40 35 45 51 56 57 60 58 56 56 57 56 59 58 59 58 60
71 74 71 70 67 67 65 61 56 55 57 54 54 54 47 48 47 42 39 41 44 45 44 43 43 44 41 40 37 36 40 45 62 64 63 62 60 59 60 61 62 64 62 62
71 70 71 69 60 63 62 64 62 59 59 53 54 45 46 48 48 46 43 43 44 49 50 48 47 46 45 44 44 44 47 47 45 46 48 64 64 63 65 66 65 66 65 65
62 66 70 70 66 61 56 51 50 53 58 57 49 52 50 49 49 48 48 48 48 49 50 52 52 51 51 49 45 46 46 47 47 48 50 49 58 68 67 68 69 69 69 68
62 65 62 66 66 63 60 55 52 51 54 57 54 53 49 48 53 52 57 57 53 49 51 54 54 54 52 53 52 51 52 51 51 52 50 50 50 65 70 70 70 70 70 69
55 57 58 59 63 63 61 57 54 48 45 43 48 43 41 52 52 55 56 53 53 56 54 51 53 54 55 57 55 52 51 49 50 50 49 48 51 60 68 70 68 68 70 70
51 48 53 54 54 52 49 46 45 47 44 46 47 45 47 51 54 56 54 52 52 53 55 56 56 56 56 58 58 56 55 54 53 51 52 50 52 59 67 65 66 66 67 67
50 42 44 41 38 41 44 43 40 38 36 39 44 44 47 50 56 53 56 56 56 56 55 53 54 55 56 57 60 58 55 54 55 57 55 53 56 58 62 63 63 62 62 62
40 36 37 35 37 39 39 38 37 38 40 39 38 39 40 42 46 48 50 54 54 55 55 55 55 55 56 56 56 58 56 57 58 60 61 60 59 58 60 64 64 64 56 53
45 43 39 37 34 36 36 34 33 35 36 35 34 36 39 41 42 44 48 50 51 50 50 51 51 52 53 54 54 55 58 58 58 61 63 64 64 64 64 55 54 49 48 49
36 37 38 35 30 29 31 31 29 29 30 34 37 40 43 44 43 44 48 50 52 51 51 51 50 50 51 51 53 52 54 56 58 58 62 67 68 67 67 64 58 57 59 56
38 33 28 27 26 25 27 32 35 37 34 32 35 41 44 44 43 42 44 45 46 45 46 46 47 47 46 49 52 54 54 54 55 59 61 62 63 66 65 71 60 56 49 53
39 39 38 36 33 32 35 35 37 34 32 31 29 33 37 40 42 43 44 44 42 40 42 43 42 43 43 44 44 45 49 49 51 53 54 56 58 60 61 60 55 55 56 58
40 39 38 36 37 38 40 36 34 37 37 34 33 35 34 33 32 32 36 39 40 40 41 40 37 39 40 41 42 43 43 43 44 47 49 51 52 54 56 57 57 54 51 51
44 43 42 42 41 39 41 42 42 41 37 36 38 39 39 39 38 36 35 35 36 37 40 40 40 41 41 42 43 44 46 46 46 45 46 47 51 57 59 59 60 62 60 60

GFSCGP_500_spd_108.txt.gz
Wind_Speed
63 69 66 63 61 58 56 54 51 46 40 41 42 35 36 35 38 40 32 36 33 31 33 30 27 23 23 22 22 22 24 24 22 20 20 20 21 22 23 23 25 25 25 25
70 74 65 61 62 61 58 56 53 47 47 46 41 36 36 35 34 36 36 33 33 37 37 33 28 25 21 22 22 21 23 24 24 24 24 24 24 23 24 24 27 29 29 30
67 73 66 64 63 62 59 59 55 48 50 48 41 41 36 37 30 33 34 33 32 35 38 36 29 27 24 22 24 24 23 23 23 24 26 25 25 24 25 28 32 32 31 32
61 67 71 66 65 63 61 58 53 52 52 53 47 49 38 35 35 33 26 31 29 29 33 39 33 30 27 24 27 26 25 23 22 23 25 26 26 26 28 31 32 34 34 34
61 69 71 69 63 63 61 57 54 51 52 53 46 53 43 36 36 33 23 25 29 33 30 38 36 32 32 32 28 28 28 27 24 24 24 26 27 27 30 31 32 34 37 38
58 65 71 64 62 62 61 58 55 52 53 53 47 51 50 40 38 32 30 30 29 28 29 33 36 36 37 34 33 31 30 30 28 28 27 26 29 30 31 33 35 36 39 41
63 69 69 67 66 64 62 61 58 56 56 59 54 55 56 40 35 30 33 34 31 27 27 28 35 37 37 38 37 36 35 34 34 34 33 31 31 34 35 37 38 41 41 43
54 59 74 69 67 63 59 61 63 59 58 56 55 57 58 40 34 32 29 30 37 35 27 27 27 30 36 38 39 39 38 38 38 39 37 38 39 38 39 40 42 43 43 45
65 71 59 65 66 64 63 62 56 57 58 58 57 52 53 41 35 33 34 32 30 30 31 27 24 23 21 24 29 33 41 43 44 42 43 43 42 41 41 43 46 46 46 47
64 61 70 67 59 68 64 58 59 61 60 59 57 54 54 48 38 35 34 31 30 31 33 33 30 28 29 27 29 30 28 29 34 43 47 47 46 47 46 47 47 49 48 49
59 67 63 66 71 62 65 64 62 59 59 58 58 56 53 50 40 37 34 33 32 32 33 32 31 32 31 30 29 29 30 31 36 41 45 51 51 50 51 52 51 51 52 53
57 61 67 70 68 62 63 60 62 62 59 60 60 57 53 49 40 31 32 36 34 35 35 36 36 36 36 37 36 35 36 35 35 37 44 48 52 53 55 55 54 56 58 57
62 60 55 51 56 70 69 67 62 59 59 59 58 55 51 48 45 39 38 38 37 37 38 40 41 41 42 42 41 40 38 38 37 37 37 42 42 46 56 59 60 62 63 62
55 64 58 64 59 63 62 63 64 60 62 58 60 54 46 48 47 45 44 42 41 44 45 45 45 46 46 46 45 42 39 40 38 38 39 41 44 45 47 54 61 64 64 65
62 59 58 62 58 56 56 62 61 60 55 57 51 52 49 50 50 49 49 46 44 47 48 47 48 50 51 49 49 50 49 48 48 45 45 48 51 52 52 54 57 62 66 68
62 64 62 55 66 61 57 60 58 50 58 59 54 59 61 55 57 58 54 48 44 41 46 49 51 51 51 54 56 55 55 54 52 52 53 53 55 55 57 59 61 64 65 65
56 54 50 65 59 59 60 65 61 54 54 54 60 48 53 55 54 52 53 49 48 46 47 48 48 49 50 51 55 57 58 57 56 55 56 58 59 60 61 61 62 62 63 65
57 55 54 51 54 57 58 55 57 58 53 48 48 45 45 47 48 52 51 49 48 47 46 48 49 50 52 53 54 55 55 55 59 58 58 61 62 61 60 60 62 62 62 62
58 58 57 59 56 53 55 49 45 48 46 48 48 43 42 39 44 46 44 47 49 50 51 51 51 50 51 53 55 55 57 59 60 59 58 59 60 59 59 60 62 63 63 64
48 55 54 53 49 44 42 43 44 43 47 40 38 34 35 39 43 39 46 49 51 52 52 53 53 51 52 53 54 55 56 57 57 59 59 57 57 57 57 58 60 61 62 65
43 45 52 51 50 44 40 42 42 38 31 32 33 34 36 38 39 43 44 45 48 49 50 49 48 47 47 47 48 48 49 51 51 52 53 54 55 56 58 59 60 61 63 65
38 42 48 46 43 39 39 38 34 27 29 29 29 32 34 36 38 39 39 40 42 45 47 48 47 46 46 46 46 45 45 46 47 48 49 51 54 56 58 59 62 64 68 70
43 39 40 44 41 41 38 33 28 29 27 28 31 32 31 30 30 32 35 38 41 42 42 42 43 43 43 44 43 41 41 39 39 41 45 48 52 55 57 58 60 62 63 62
43 42 41 41 37 32 25 26 25 28 31 32 31 29 26 25 24 28 33 36 39 40 42 43 44 44 44 43 41 39 39 39 40 41 43 46 50 52 52 51 50 50 49 49
39 41 39 38 35 36 27 28 30 32 31 31 30 30 29 30 31 29 29 29 30 32 34 36 36 37 38 38 38 38 38 37 38 39 40 41 42 45 46 46 46 46 46 46
38 38 37 34 32 33 31 33 33 35 36 33 33 36 35 34 33 32 31 32 32 33 34 36 37 37 37 37 37 36 36 37 39 40 42 44 43 42 42 43 43 43 44 46

GFSCGP_500_spd_111.txt.gz
Wind_Speed
58 63 62 55 54 51 52 52 51 50 50 46 39 35 32 36 33 30 34 33 31 30 31 27 25 23 20 19 19 21 20 22 22 24 24 24 24 22 21 21 21 22 25 27
60 62 62 54 56 54 55 54 54 53 50 50 45 39 33 34 36 31 33 33 33 31 31 29 26 26 21 21 20 19 21 21 21 22 26 25 25 24 24 23 24 27 29 31
55 56 57 59 58 56 55 58 55 55 53 51 49 48 38 35 32 35 27 30 31 35 31 27 32 30 28 23 22 22 22 21 21 21 22 23 22 24 24 26 28 29 29 32
48 52 61 59 60 60 58 54 55 57 54 55 55 55 43 37 35 33 26 24 23 29 31 31 30 33 29 26 28 25 24 21 21 22 21 21 23 23 25 26 28 29 30 32
50 50 55 60 57 58 61 54 55 55 54 57 57 59 49 40 38 32 28 23 30 26 30 29 30 29 33 33 31 30 28 26 22 22 22 21 21 24 26 26 27 29 29 30
55 46 51 54 52 54 56 55 56 57 57 62 61 59 61 46 41 35 30 30 32 27 22 25 29 30 33 36 36 33 31 28 28 25 26 25 25 27 28 29 29 30 32 33
57 57 47 47 55 58 59 56 54 55 60 66 62 62 63 50 40 36 36 33 31 30 27 23 23 26 32 31 34 34 35 34 32 32 31 30 30 32 32 32 34 34 34 35
50 62 53 41 48 60 62 63 66 64 65 68 66 67 64 54 40 36 34 35 33 32 33 28 25 24 22 28 35 37 38 36 36 34 34 36 35 35 36 36 36 38 38 39
40 51 58 58 52 50 60 65 57 62 62 65 66 66 62 56 40 42 35 35 35 33 30 27 29 26 24 18 23 29 33 35 36 37 39 40 40 40 40 41 42 41 42 42
62 47 51 63 58 59 60 56 63 59 62 64 68 67 64 60 43 38 38 38 37 35 32 29 29 28 24 20 18 18 19 22 24 25 26 30 39 43 46 47 47 47 47 47
61 60 61 42 49 60 61 68 66 61 60 63 63 65 62 58 49 39 38 36 36 36 34 32 30 28 27 28 27 27 27 26 26 27 28 30 32 37 42 46 50 51 51 51
57 63 65 52 53 52 48 49 61 66 66 63 62 63 59 58 55 40 38 39 39 37 35 35 35 33 31 30 30 31 31 31 33 34 35 36 37 39 41 45 48 51 54 54
43 48 67 59 60 57 54 61 55 52 60 62 61 60 59 57 51 42 36 38 39 39 40 40 38 36 36 35 34 35 35 35 36 38 38 39 40 40 40 43 50 51 55 56
52 62 65 54 61 56 58 56 61 60 57 60 60 54 57 55 52 45 37 40 41 43 42 41 40 38 39 39 40 40 41 40 39 40 40 42 44 46 46 46 46 50 54 56
55 71 61 57 48 69 56 48 55 61 55 60 53 56 53 50 48 46 46 42 43 47 47 46 43 42 43 44 44 44 45 47 47 48 48 50 50 50 49 51 53 55 56 57
56 58 65 52 43 55 50 49 47 44 44 51 56 59 54 50 53 52 49 46 42 46 47 47 48 48 50 51 51 50 50 51 51 52 54 54 55 55 56 55 53 55 58 59
58 53 53 51 51 54 58 56 49 49 45 46 49 53 53 46 52 51 49 47 42 44 47 50 51 51 54 57 56 55 53 53 52 52 53 55 57 58 59 58 59 59 60 62
55 60 62 54 48 64 50 47 42 46 48 45 43 43 51 53 50 49 48 49 50 48 47 44 46 48 50 51 52 52 51 52 53 54 55 55 55 55 55 56 56 57 58 60
54 54 56 55 58 56 49 42 46 45 47 45 46 48 44 42 48 54 49 52 49 43 43 43 44 43 42 45 48 51 52 53 54 56 56 55 55 56 56 58 58 60 60 60
48 49 55 63 57 51 38 36 34 49 49 45 41 41 48 49 47 43 45 42 40 41 38 37 36 36 37 39 42 46 50 50 50 49 50 51 52 53 54 56 56 57 58 59
52 55 57 51 49 45 44 41 44 50 25 29 36 34 34 39 41 39 42 40 40 37 36 35 36 36 36 37 39 40 42 44 46 47 48 50 52 54 55 56 57 56 57 57
48 46 61 52 46 46 44 41 39 32 31 32 24 34 34 31 31 30 33 36 36 37 36 36 36 39 40 41 42 41 41 42 42 43 44 46 47 49 51 51 51 51 53 55
38 37 47 48 43 41 41 40 38 40 39 36 31 29 33 32 34 35 34 34 32 33 35 38 39 40 39 38 37 37 37 38 38 37 37 38 39 40 41 42 43 45 46 47
32 38 39 39 36 41 41 39 44 35 35 33 34 35 34 33 34 34 32 30 30 32 34 35 34 34 35 35 35 35 35 34 35 34 34 34 35 36 37 38 40 41 42 44
37 35 35 36 34 35 40 41 36 33 35 35 35 33 35 34 31 31 31 30 29 27 27 26 25 25 26 27 28 30 31 32 33 33 33 32 32 34 37 39 39 40 41 41
42 39 37 40 38 36 40 35 35 38 43 45 40 35 35 34 34 35 35 34 32 28 25 24 25 26 27 27 28 29 30 31 32 33 34 36 37 38 38 39 40 40 41 40

GFSCGP_500_spd_114.txt.gz
Wind_Speed
52 62 59 50 50 47 47 49 50 45 42 47 49 35 34 32 32 27 32 34 31 28 32 27 25 24 23 21 21 23 21 23 20 24 27 27 27 25 26 27 27 25 26 26
57 54 53 58 55 53 52 52 50 49 47 49 46 43 36 34 33 28 29 32 30 31 30 30 28 27 24 25 23 21 23 22 21 22 26 26 27 25 27 26 26 27 28 30
54 52 55 55 59 56 54 55 51 51 49 52 51 51 47 39 35 34 30 28 29 31 32 29 31 29 29 25 26 26 26 25 23 23 22 23 23 24 24 27 29 30 30 30
46 50 52 54 53 56 56 51 52 52 52 53 54 58 50 48 42 39 31 26 20 24 33 35 32 30 28 30 32 32 29 28 25 24 22 22 23 23 26 27 28 28 30 30
43 45 48 53 53 53 54 53 54 53 53 54 56 61 57 50 47 38 32 30 25 30 30 33 30 32 34 33 36 37 35 31 28 26 25 24 22 23 26 26 27 29 30 31
36 40 45 44 46 53 53 52 53 55 56 62 58 60 67 55 47 40 35 33 31 30 31 24 24 31 33 34 32 36 38 36 33 31 29 27 27 28 28 29 29 30 31 31
47 48 50 47 47 47 58 56 53 55 59 69 63 65 68 60 50 41 39 40 38 33 29 25 23 21 26 30 33 30 36 38 37 36 34 32 32 33 32 32 32 32 33 33
46 50 50 50 48 45 47 52 56 59 63 64 72 71 70 63 54 43 41 40 41 38 36 31 27 24 24 22 24 28 33 35 39 41 38 36 34 33 33 33 35 37 36 38
45 48 47 50 46 42 42 50 43 54 55 58 63 67 72 66 58 46 41 42 41 38 35 33 31 29 30 30 25 25 29 35 39 39 38 35 34 36 38 39 40 39 40 42
45 47 49 53 54 55 51 39 46 51 54 62 62 64 69 67 61 54 47 42 41 44 40 37 34 32 31 31 29 28 24 25 31 33 33 32 33 33 34 36 40 43 44 46
50 52 52 50 50 53 53 53 48 47 50 55 58 63 63 63 58 55 44 44 43 41 43 42 36 35 35 33 32 31 29 27 25 25 27 28 31 34 36 37 37 40 44 47
49 54 57 56 40 34 44 57 54 52 49 52 55 59 60 60 58 54 40 42 44 44 42 41 40 38 36 35 34 35 36 34 32 31 31 32 35 37 38 41 43 45 47 49
50 54 56 61 63 44 40 40 45 48 49 58 58 55 50 55 57 51 44 42 42 43 44 42 41 39 36 36 35 35 35 36 36 36 37 38 40 41 43 43 44 46 49 51
49 54 55 55 52 54 56 49 45 46 43 41 47 47 53 50 52 49 40 38 40 46 46 44 43 42 42 41 40 39 39 39 40 41 42 43 45 45 45 46 47 49 49 50
52 52 55 57 59 53 54 67 59 56 45 51 36 46 43 44 52 53 48 42 43 43 44 46 48 46 43 41 41 41 42 43 43 44 45 45 45 47 49 51 52 53 52 53
49 53 56 57 56 51 61 55 64 59 42 46 45 49 46 42 43 50 49 50 47 45 47 48 48 47 46 45 44 44 45 46 47 49 50 51 53 54 55 54 55 56 57 58
50 47 58 64 59 56 62 54 59 59 54 47 43 35 39 40 46 45 47 49 45 42 45 47 47 48 49 50 50 49 49 51 53 54 54 52 52 51 52 53 54 56 57 58
52 50 49 65 64 65 61 55 53 49 52 50 44 35 34 33 33 45 47 50 49 40 39 44 47 50 50 50 52 54 56 58 57 53 50 51 52 53 54 54 53 52 52 54
55 51 56 53 63 62 69 65 55 46 38 44 41 38 43 40 38 43 51 49 43 37 38 38 40 45 49 52 53 53 51 51 50 51 51 51 52 52 52 53 53 55 56 56
54 52 54 65 59 58 62 49 46 48 47 39 42 42 39 43 48 39 40 42 46 44 44 39 36 38 41 42 43 45 46 46 45 45 47 48 49 49 50 51 53 54 55 56
63 53 59 56 63 57 44 49 48 46 31 31 36 39 40 43 38 35 41 37 39 41 41 40 39 38 38 40 41 41 41 42 43 44 45 45 46 47 48 49 50 51 52 53
44 38 55 52 58 51 47 54 44 36 38 34 29 34 37 38 43 43 47 47 46 46 41 41 40 39 39 39 40 41 42 43 44 44 45 45 45 44 43 43 43 42 43 44
40 34 39 50 51 48 53 50 47 44 40 42 42 39 39 36 43 44 41 46 48 43 41 39 37 37 38 37 39 40 40 40 38 38 39 39 40 41 41 42 43 43 43 43
28 26 36 42 53 51 49 48 47 40 42 43 39 37 36 37 38 38 38 36 36 38 38 37 37 36 35 36 35 34 34 34 34 35 36 36 37 37 37 37 36 36 35 36
25 38 35 39 42 44 39 48 50 45 39 37 41 36 32 37 36 42 41 39 39 38 37 35 33 31 31 30 29 31 31 30 29 30 32 33 34 35 35 35 35 34 32 32
28 32 33 42 40 35 41 43 44 42 43 35 37 33 35 40 40 40 40 39 39 37 35 32 30 28 26 29 32 32 30 29 28 29 30 30 31 31 32 33 33 35 35 36

GFSCGP_500_spd_117.txt.gz
Wind_Speed
51 53 55 50 51 50 49 47 46 43 45 48 47 42 35 41 41 32 28 28 30 28 31 30 27 27 25 23 22 24 23 27 27 27 27 28 27 27 26 25 26 26 30 30
50 46 47 57 55 49 50 50 50 47 48 53 51 48 42 41 42 34 30 29 22 25 30 30 29 29 26 26 25 23 25 26 27 27 28 28 29 27 27 27 28 31 31 31
50 48 46 48 57 57 52 50 48 50 49 52 55 55 47 47 46 35 31 30 24 20 23 26 31 31 32 28 27 29 29 27 27 28 28 27 26 26 26 29 32 33 33 33
51 49 49 48 48 51 56 52 50 52 52 52 56 61 51 49 47 44 35 27 22 23 23 25 29 33 33 30 33 32 32 31 30 29 29 28 28 26 28 30 31 31 31 31
49 49 51 50 47 52 48 53 56 55 56 56 57 63 56 51 50 42 39 37 29 27 28 27 26 28 35 35 32 33 35 35 34 33 30 31 29 29 31 30 30 31 32 32
50 48 49 48 48 49 51 53 53 56 57 63 56 61 67 54 50 43 42 38 35 34 31 29 29 25 24 32 35 37 36 34 37 39 35 32 32 34 34 32 32 33 32 32
48 48 50 49 48 48 54 56 57 57 59 59 60 66 71 60 54 47 44 42 40 39 35 32 28 26 26 25 35 37 38 35 35 39 40 37 37 37 35 35 34 34 33 32
49 48 46 47 49 50 49 51 56 60 62 55 64 66 68 64 59 50 43 44 43 41 37 35 33 30 27 28 25 26 29 30 34 37 40 42 41 38 36 35 35 36 36 36
54 51 46 47 45 46 43 43 41 48 52 58 64 55 55 60 62 58 49 46 43 42 38 37 33 33 33 33 31 32 30 29 31 35 39 41 43 39 36 37 38 38 38 39
50 51 51 53 52 49 47 43 38 41 44 47 48 51 53 54 54 57 53 48 46 46 44 39 37 35 35 34 35 37 36 35 33 32 36 39 39 39 37 38 39 38 38 38
51 52 53 54 55 52 49 48 40 42 48 46 42 40 39 47 49 52 51 46 48 48 46 42 38 38 38 37 38 37 38 39 37 34 33 34 37 39 35 28 28 34 39 44
49 52 51 51 48 44 50 52 49 50 47 51 52 42 35 38 37 38 43 42 44 48 47 46 43 40 39 39 41 38 39 40 40 39 34 33 33 35 38 41 43 44 43 43
50 51 50 49 47 46 45 47 47 47 50 50 50 33 35 37 38 35 37 36 34 40 43 44 44 43 41 39 39 39 39 39 42 44 42 39 38 39 41 43 44 45 46 47
49 50 50 47 42 44 47 43 45 37 42 38 45 36 40 39 37 32 32 31 29 33 41 45 44 44 43 41 40 39 39 39 40 41 42 44 43 43 44 46 48 49 50 52
40 43 46 48 48 47 49 54 53 45 43 48 35 41 31 29 27 30 29 30 30 30 35 43 47 45 45 44 43 45 45 45 46 46 46 47 47 48 49 49 51 53 54 55
41 44 46 45 46 47 52 51 54 55 57 51 48 47 34 35 30 35 36 32 25 29 35 37 37 41 43 45 44 43 44 46 46 46 47 48 49 50 50 52 54 56 58 56
44 39 42 50 50 51 46 53 53 54 53 61 60 46 40 43 40 35 35 36 36 37 46 48 49 48 47 45 44 45 45 47 48 48 49 51 52 52 52 54 58 56 54 54
50 51 54 53 53 61 55 55 51 55 55 57 55 50 48 42 43 40 43 44 44 44 46 49 52 54 52 50 45 43 44 45 45 46 47 48 50 52 54 56 56 54 54 53
50 52 52 55 59 61 60 52 57 54 54 45 51 46 49 52 53 47 41 43 43 43 47 48 48 50 47 48 46 44 44 44 43 44 45 45 47 49 50 51 50 49 50 51
49 54 58 56 60 65 49 51 49 59 65 42 44 49 46 53 56 43 38 37 38 41 40 40 45 48 51 47 45 47 46 47 47 47 47 51 54 55 52 51 51 51 51 51
52 55 61 57 62 62 53 48 43 56 52 52 44 42 47 45 47 40 39 43 47 44 39 39 44 46 46 48 47 44 46 47 47 48 50 51 52 51 52 51 51 52 52 52
49 53 56 62 63 61 56 46 55 48 49 48 50 39 42 41 47 49 47 41 42 45 44 45 48 54 52 50 51 50 48 47 47 48 49 49 50 50 49 50 50 47 45 44
50 49 50 59 59 52 52 52 49 49 49 46 41 40 37 40 36 42 48 47 48 48 46 49 50 53 50 51 47 47 45 46 45 46 47 47 48 49 47 46 45 43 43 42
41 44 48 51 54 55 46 50 58 48 52 48 49 46 45 43 43 40 44 42 43 49 49 53 55 54 53 48 43 41 41 41 44 45 46 45 44 43 41 40 40 39 39 39
34 40 44 50 60 57 45 49 53 44 52 56 48 47 44 45 44 45 47 45 46 48 53 52 54 57 44 39 40 38 40 42 43 43 43 41 38 35 35 36 37 39 40 40
30 36 42 45 51 39 33 39 50 54 51 46 43 47 42 38 41 44 44 42 47 49 46 45 39 36 36 38 40 42 41 40 40 40 38 37 33 31 31 32 34 35 36 37